[[{"header":{"parameterUnit":"m.s-1","parameterCategory":1,"la1":30.6,"la2":28.766,"lo1":-90.7593,"lo2":-88.6598,"dy":0.0162,"dx":0.0183,"nx":116,"ny":114,"refTime":"2023-08-04T06:00:00:Z","depth":0,"parameterNumber":2,"parameterNumberName":"U-component_of_WINDS"},"data":[0.0,0.0,0.0,0.0,0.0,0.0,0.0,0.0,0.0,0.0,0.0,0.0,0.0,0.0,0.0,0.0,0.0,0.0,0.0,0.0,0.0,0.0,0.0,0.0,0.0,0.0,0.0,0.0,0.0,0.0,0.0,0.0,0.0,0.0,0.0,0.0,0.0,0.0,0.0,0.0,0.0,0.0,0.0,0.0,0.0,0.0,0.0,0.0,0.0,0.0,0.0,0.0,0.0,0.0,0.0,0.0,0.0,0.0,0.0,0.0,0.0,0.0,0.0,0.0,0.0,0.0,0.0,0.0,0.0,0.0,0.0,0.0,0.0,0.0,0.0,0.0,0.0,0.0,0.0,0.0,0.0,0.0,0.0,0.0,0.0,0.0,0.0,0.0,0.0,0.0,0.0,0.0,0.0,0.0,0.0,0.0,0.0,0.0,0.0,0.0,0.0,0.0,0.0,0.0,0.0,0.0,0.0,0.0,0.0,0.0,0.0,0.0,0.0,0.0,0.0,0.0,0.0,0.0,0.0,0.0,0.0,0.0,0.0,0.0,0.0,0.0,0.0,0.0,0.0,0.0,0.0,0.0,0.0,0.0,0.0,0.0,0.0,0.0,0.0,0.0,0.0,0.0,0.0,0.0,0.0,0.0,0.0,0.0,0.0,0.0,0.0,0.0,0.0,0.0,0.0,0.0,0.0,0.0,0.0,0.0,0.0,0.0,0.0,0.0,0.0,0.0,0.0,0.0,0.0,0.0,0.0,0.0,0.0,0.0,0.0,0.0,0.0,0.0,0.0,0.0,0.0,0.0,0.0,0.0,0.0,0.0,0.0,0.0,0.0,0.0,0.0,0.0,0.0,0.0,0.0,0.0,0.0,0.0,0.0,0.0,0.0,0.0,0.0,0.0,0.0,0.0,0.0,0.0,0.0,0.0,0.0,0.0,0.0,0.0,0.0,0.0,0.0,0.0,0.0,0.0,0.0,0.0,0.0,0.0,0.0,0.0,0.0,0.0,0.0,0.0,0.0,0.0,0.0,0.0,0.0,0.0,0.0,0.0,0.0,0.0,0.0,0.0,0.0,0.0,0.0,0.0,0.0,0.0,0.0,0.0,0.0,0.0,0.0,0.0,0.0,0.0,0.0,0.0,0.0,0.0,0.0,0.0,0.0,0.0,0.0,0.0,0.0,0.0,0.0,0.0,0.0,0.0,0.0,0.0,0.0,0.0,0.0,0.0,0.0,0.0,0.0,0.0,0.0,0.0,0.0,0.0,0.0,0.0,0.0,0.0,0.0,0.0,0.0,0.0,0.0,0.0,0.0,0.0,0.0,0.0,0.0,0.0,0.0,0.0,0.0,0.0,0.0,0.0,0.0,0.0,0.0,0.0,0.0,0.0,0.0,0.0,0.0,0.0,0.0,0.0,0.0,0.0,0.0,0.0,0.0,0.0,0.0,0.0,0.0,0.0,0.0,0.0,0.0,0.0,0.0,0.0,0.0,0.0,0.0,0.0,0.0,0.0,0.0,0.0,0.0,0.0,0.0,0.0,0.0,0.0,0.0,0.0,0.0,0.0,0.0,0.0,0.0,0.0,0.0,0.0,0.0,0.0,0.0,0.0,0.0,0.0,0.0,0.0,0.0,0.0,0.0,0.0,0.0,0.0,0.0,0.0,0.0,0.0,0.0,0.0,0.0,0.0,0.0,0.0,0.0,0.0,0.0,0.0,0.0,0.0,0.0,0.0,0.0,0.0,0.0,0.0,0.0,0.0,0.0,0.0,0.0,0.0,0.0,0.0,0.0,0.0,0.0,0.0,0.0,0.0,0.0,0.0,0.0,0.0,0.0,0.0,0.0,0.0,0.0,0.0,0.0,0.0,0.0,0.0,0.0,0.0,0.0,0.0,0.0,0.0,0.0,0.0,0.0,0.0,0.0,0.0,0.0,0.0,0.0,0.0,0.0,0.0,0.0,0.0,0.0,0.0,0.0,0.0,0.0,0.0,0.0,0.0,0.0,0.0,0.0,0.0,0.0,0.0,0.0,0.0,0.0,0.0,0.0,0.0,0.0,0.0,0.0,0.0,0.0,0.0,0.0,0.0,0.0,0.0,0.0,0.0,0.0,0.0,0.0,0.0,0.0,0.0,0.0,0.0,0.0,0.0,0.0,0.0,0.0,0.0,0.0,0.0,0.0,0.0,0.0,0.0,0.0,0.0,0.0,0.0,0.0,0.0,0.0,0.0,0.0,0.0,0.0,0.0,0.0,0.0,0.0,0.0,0.0,0.0,0.0,0.0,0.0,0.0,0.0,0.0,0.0,0.0,0.0,0.0,0.0,0.0,0.0,0.0,0.0,0.0,0.0,0.0,0.0,0.0,0.0,0.0,0.0,0.0,0.0,0.0,0.0,0.0,0.0,0.0,0.0,0.0,0.0,0.0,0.0,0.0,0.0,0.0,0.0,0.0,0.0,0.0,0.0,0.0,0.0,0.0,0.0,0.0,0.0,0.0,0.0,0.0,0.0,0.0,0.0,0.0,0.0,0.0,0.0,0.0,0.0,0.0,0.0,0.0,0.0,0.0,0.0,0.0,0.0,0.0,0.0,0.0,0.0,0.0,0.0,0.0,0.0,0.0,0.0,0.0,0.0,0.0,0.0,0.0,0.0,0.0,0.0,0.0,0.0,0.0,0.0,0.0,0.0,0.0,0.0,0.0,0.0,0.0,0.0,0.0,0.0,0.0,0.0,0.0,0.0,0.0,0.0,0.0,0.0,0.0,0.0,0.0,0.0,0.0,0.0,0.0,0.0,0.0,0.0,0.0,0.0,0.0,0.0,0.0,0.0,0.0,0.0,0.0,0.0,0.0,0.0,0.0,0.0,0.0,0.0,0.0,0.0,0.0,0.0,0.0,0.0,0.0,0.0,0.0,0.0,0.0,0.0,0.0,0.0,0.0,0.0,0.0,0.0,0.0,0.0,0.0,0.0,0.0,0.0,0.0,0.0,0.0,0.0,0.0,0.0,0.0,0.0,0.0,0.0,0.0,0.0,0.0,0.0,0.0,0.0,0.0,0.0,0.0,0.0,0.0,0.0,0.0,0.0,0.0,0.0,0.0,0.0,0.0,0.0,0.0,0.0,0.0,0.0,0.0,0.0,0.0,0.0,0.0,0.0,0.0,0.0,0.0,0.0,0.0,0.0,0.0,0.0,0.0,0.0,0.0,0.0,0.0,0.0,0.0,0.0,0.0,0.0,0.0,0.0,0.0,0.0,0.0,0.0,0.0,0.0,0.0,0.0,0.0,0.0,0.0,0.0,0.0,0.0,0.0,0.0,0.0,0.0,0.0,0.0,0.0,0.0,0.0,0.0,0.0,0.0,0.0,0.0,0.0,0.0,0.0,0.0,0.0,0.0,0.0,0.0,0.0,0.0,0.0,0.0,0.0,0.0,0.0,0.0,0.0,0.0,0.0,0.0,0.0,0.0,0.0,0.0,0.0,0.0,0.0,0.0,0.0,0.0,0.0,0.0,0.0,0.0,0.0,0.0,0.0,0.0,0.0,0.0,0.0,0.0,0.0,0.0,0.0,0.0,0.0,0.0,0.0,0.0,0.0,0.0,0.0,0.0,0.0,0.0,0.0,0.0,0.0,0.0,0.0,0.0,0.0,0.0,0.0,0.0,0.0,0.0,0.0,0.0,0.0,0.0,0.0,0.0,0.0,0.0,0.0,0.0,0.0,0.0,0.0,0.0,0.0,0.0,0.0,0.0,0.0,0.0,0.0,0.0,0.0,0.0,0.0,0.0,0.0,0.0,0.0,0.0,0.0,0.0,0.0,0.0,0.0,0.0,0.0,0.0,0.0,0.0,0.0,0.0,0.0,0.0,0.0,0.0,0.0,0.0,0.0,0.0,0.0,0.0,0.0,0.0,0.0,0.0,0.0,0.0,0.0,0.0,0.0,0.0,0.0,0.0,0.0,0.0,0.0,0.0,0.0,0.0,0.0,0.0,0.0,0.0,0.0,0.0,0.0,0.0,0.0,0.0,0.0,0.0,0.0,0.0,0.0,0.0,0.0,0.0,0.0,0.0,0.0,0.0,0.0,0.0,0.0,0.0,0.0,0.0,0.0,0.0,0.0,0.0,0.0,0.0,0.0,0.0,0.0,0.0,0.0,0.0,0.0,0.0,0.0,0.0,0.0,0.0,0.0,0.0,0.0,0.0,0.0,0.0,0.0,0.0,0.0,0.0,0.0,0.0,0.0,0.0,0.0,0.0,0.0,0.0,0.0,0.0,0.0,0.0,0.0,0.0,0.0,0.0,0.0,0.0,0.0,0.0,0.0,0.0,0.0,0.0,0.0,0.0,0.0,0.0,0.0,0.0,0.0,0.0,0.0,0.0,0.0,0.0,0.0,0.0,0.0,0.0,0.0,0.0,0.0,0.0,0.0,0.0,0.0,0.0,0.0,0.0,0.0,0.0,0.0,0.0,0.0,0.0,0.0,0.0,0.0,0.0,0.0,0.0,0.0,0.0,0.0,0.0,0.0,0.0,0.0,0.0,0.0,0.0,0.0,0.0,0.0,0.0,0.0,0.0,0.0,0.0,0.0,0.0,0.0,0.0,0.0,0.0,0.0,0.0,0.0,0.0,0.0,0.0,0.0,0.0,0.0,0.0,0.0,0.0,0.0,0.0,0.0,0.0,0.0,0.0,0.0,0.0,0.0,0.0,0.0,0.0,0.0,0.0,0.0,0.0,0.0,0.0,0.0,0.0,0.0,0.0,0.0,0.0,0.0,0.0,0.0,0.0,0.0,0.0,0.0,0.0,0.0,0.0,0.0,0.0,0.0,0.0,0.0,0.0,0.0,0.0,0.0,0.0,0.0,0.0,0.0,0.0,0.0,0.0,0.0,0.0,0.0,0.0,0.0,0.0,0.0,0.0,0.0,0.0,0.0,0.0,0.0,0.0,0.0,0.0,0.0,0.0,0.0,0.0,0.0,0.0,0.0,0.0,0.0,0.0,0.0,0.0,0.0,0.0,0.0,0.0,0.0,0.0,0.0,0.0,0.0,0.0,0.0,0.0,0.0,0.0,0.0,0.0,0.0,0.0,0.0,0.0,0.0,0.0,0.0,0.0,0.0,0.0,0.0,0.0,0.0,0.0,0.0,0.0,0.0,0.0,0.0,0.0,0.0,0.0,0.0,0.0,0.0,0.0,0.0,0.0,0.0,0.0,0.0,0.0,0.0,0.0,0.0,0.0,0.0,0.0,0.0,0.0,0.0,0.0,0.0,0.0,0.0,0.0,0.0,0.0,0.0,0.0,0.0,0.0,0.0,0.0,0.0,0.0,0.0,0.0,0.0,0.0,0.0,0.0,0.0,0.0,0.0,0.0,0.0,0.0,0.0,0.0,0.0,0.0,0.0,0.0,0.0,0.0,0.0,0.0,0.0,0.0,0.0,0.0,0.0,0.0,0.0,0.0,0.0,0.0,0.0,0.0,0.0,0.0,0.0,0.0,0.0,0.0,0.0,0.0,0.0,0.0,0.0,0.0,0.0,0.0,0.0,0.0,0.0,0.0,0.0,0.0,0.0,0.0,0.0,0.0,0.0,0.0,0.0,0.0,0.0,0.0,0.0,0.0,0.0,0.0,0.0,0.0,0.0,0.0,0.0,0.0,0.0,0.0,0.0,0.0,0.0,0.0,0.0,0.0,0.0,0.0,0.0,0.0,0.0,0.0,0.0,0.0,0.0,0.0,0.0,0.0,0.0,0.0,0.0,0.0,0.0,0.0,0.0,0.0,0.0,0.0,0.0,0.0,0.0,0.0,0.0,0.0,0.0,0.0,0.0,0.0,0.0,0.0,0.0,0.0,0.0,0.0,0.0,0.0,0.0,0.0,0.0,0.0,0.0,0.0,0.0,0.0,0.0,0.0,0.0,0.0,0.0,0.0,0.0,0.0,0.0,0.0,0.0,0.0,0.0,0.0,0.0,0.0,0.0,0.0,0.0,0.0,0.0,0.0,0.0,0.0,0.0,0.0,0.0,0.0,0.0,0.0,0.0,0.0,0.0,0.0,0.0,0.0,0.0,0.0,0.0,0.0,0.0,0.0,0.0,0.0,0.0,0.0,0.0,-4.2949,0.0,0.0,0.0,0.0,0.0,0.0,0.0,0.0,0.0,0.0,0.0,0.0,0.0,0.0,0.0,0.0,0.0,0.0,0.0,0.0,0.0,0.0,0.0,0.0,0.0,0.0,0.0,0.0,0.0,0.0,0.0,0.0,0.0,0.0,0.0,0.0,0.0,0.0,0.0,0.0,0.0,0.0,0.0,0.0,0.0,0.0,0.0,0.0,0.0,0.0,0.0,0.0,0.0,0.0,0.0,0.0,0.0,0.0,0.0,0.0,0.0,0.0,0.0,0.0,0.0,0.0,0.0,0.0,0.0,0.0,0.0,0.0,0.0,0.0,0.0,0.0,0.0,0.0,0.0,0.0,0.0,0.0,0.0,0.0,0.0,0.0,0.0,0.0,0.0,0.0,0.0,0.0,0.0,0.0,0.0,0.0,0.0,0.0,0.0,0.0,0.0,0.0,0.0,0.0,0.0,0.0,0.0,0.0,0.0,0.0,0.0,0.0,0.0,0.0,0.0,0.0,-4.2916,0.0,0.0,0.0,0.0,0.0,0.0,0.0,0.0,0.0,0.0,0.0,0.0,0.0,0.0,0.0,0.0,0.0,0.0,0.0,0.0,0.0,0.0,0.0,0.0,0.0,0.0,0.0,0.0,0.0,0.0,0.0,0.0,0.0,0.0,0.0,0.0,0.0,0.0,0.0,0.0,0.0,0.0,0.0,0.0,0.0,0.0,0.0,0.0,0.0,0.0,0.0,0.0,0.0,0.0,0.0,0.0,0.0,0.0,0.0,0.0,0.0,0.0,0.0,0.0,0.0,0.0,0.0,0.0,0.0,0.0,0.0,0.0,0.0,0.0,0.0,0.0,0.0,0.0,0.0,0.0,0.0,0.0,0.0,0.0,0.0,0.0,0.0,0.0,0.0,0.0,0.0,0.0,0.0,0.0,0.0,0.0,0.0,0.0,0.0,0.0,0.0,0.0,0.0,0.0,0.0,0.0,0.0,0.0,-5.0749,-5.115,-5.136,-5.15,-5.1263,-5.0523,-4.7313,-4.5103,-4.376,-4.2864,0.0,0.0,0.0,0.0,0.0,0.0,0.0,0.0,0.0,0.0,0.0,0.0,0.0,0.0,0.0,0.0,0.0,0.0,0.0,0.0,0.0,0.0,0.0,0.0,0.0,0.0,0.0,0.0,0.0,0.0,0.0,0.0,0.0,0.0,0.0,0.0,0.0,0.0,-5.3818,-5.5909,-5.7292,-5.7867,0.0,0.0,0.0,0.0,0.0,0.0,0.0,0.0,0.0,0.0,0.0,0.0,0.0,0.0,0.0,0.0,0.0,0.0,0.0,0.0,0.0,0.0,0.0,0.0,0.0,0.0,0.0,0.0,0.0,0.0,0.0,0.0,0.0,0.0,0.0,0.0,0.0,0.0,0.0,0.0,0.0,0.0,0.0,0.0,-4.4699,-4.4699,0.0,0.0,0.0,0.0,0.0,0.0,0.0,0.0,0.0,0.0,0.0,0.0,0.0,-4.8735,-5.0251,-5.229,-5.3029,-5.2579,-5.5382,-5.5724,-5.3925,-5.4698,-5.4635,-5.3923,-5.277,0.0,-4.6186,-4.4107,0.0,0.0,0.0,0.0,0.0,0.0,0.0,0.0,0.0,0.0,0.0,0.0,0.0,0.0,0.0,0.0,0.0,0.0,0.0,0.0,0.0,0.0,0.0,0.0,0.0,0.0,0.0,0.0,0.0,0.0,0.0,0.0,0.0,0.0,0.0,0.0,-5.1602,-5.4356,-5.7089,-5.8487,-6.0308,-6.2342,-6.0151,-5.8324,-5.6822,-5.495,0.0,0.0,0.0,0.0,0.0,0.0,0.0,0.0,0.0,0.0,0.0,0.0,0.0,0.0,0.0,0.0,0.0,0.0,0.0,0.0,0.0,0.0,0.0,0.0,0.0,0.0,0.0,0.0,0.0,0.0,0.0,0.0,0.0,0.0,0.0,0.0,0.0,0.0,0.0,-4.5053,-4.5718,-4.4801,-4.592,-4.6361,0.0,0.0,0.0,0.0,0.0,0.0,0.0,0.0,0.0,-5.1261,-5.201,-5.3125,-5.4716,-5.6192,-5.7155,-5.7672,-5.9108,-5.9477,-5.8895,-5.9282,-5.9268,-5.8896,-5.7712,-5.5852,-5.3315,-4.8951,-4.621,-4.4654,0.0,0.0,0.0,0.0,-4.2922,-4.2685,0.0,0.0,0.0,0.0,0.0,0.0,0.0,0.0,0.0,0.0,0.0,0.0,0.0,0.0,0.0,-4.709,0.0,0.0,0.0,0.0,0.0,0.0,0.0,0.0,0.0,0.0,0.0,0.0,-5.3991,-5.6731,-6.0182,-6.1126,-6.3098,-6.5792,-6.5454,-6.3514,-6.0346,-5.829,-5.6051,0.0,0.0,0.0,0.0,0.0,0.0,0.0,0.0,0.0,0.0,0.0,0.0,0.0,0.0,0.0,0.0,0.0,0.0,0.0,0.0,0.0,0.0,0.0,0.0,0.0,0.0,0.0,0.0,0.0,0.0,0.0,0.0,0.0,0.0,0.0,0.0,0.0,0.0,-4.6193,-4.7158,-4.5773,-4.7736,-4.8504,0.0,0.0,0.0,0.0,0.0,0.0,-5.108,-5.2221,-5.3748,-5.5783,-5.6712,-5.7976,-5.9573,-6.0351,-6.1298,-6.2415,-6.2618,-6.2888,-6.3226,-6.3024,-6.2956,-6.2854,-6.1332,-6.0283,-5.9167,-5.3348,-4.9695,-4.7631,-4.7056,-4.6007,-4.4925,-4.55,-4.5495,-4.5258,0.0,0.0,0.0,0.0,0.0,0.0,0.0,0.0,0.0,0.0,0.0,0.0,0.0,0.0,-4.9424,-5.0779,-5.0371,-5.0304,0.0,0.0,0.0,0.0,0.0,0.0,0.0,0.0,0.0,-5.4431,-5.7306,-6.0283,-6.3328,-6.4722,-6.6382,-6.8089,-6.8996,-6.8614,-6.6843,-6.141,-5.8964,-5.8377,0.0,0.0,0.0,0.0,0.0,0.0,0.0,0.0,0.0,0.0,0.0,0.0,0.0,0.0,0.0,0.0,0.0,0.0,0.0,0.0,0.0,0.0,0.0,0.0,0.0,0.0,0.0,0.0,0.0,0.0,0.0,0.0,0.0,0.0,0.0,0.0,0.0,0.0,0.0,-4.8209,-5.0247,0.0,0.0,0.0,0.0,-5.15,-5.2986,-5.4215,-5.5176,-5.7287,-5.8907,-5.9783,-6.1274,-6.2759,-6.4241,-6.4986,-6.5392,-6.5493,-6.6203,-6.617,-6.5493,-6.4816,-6.4478,-6.441,-6.2922,-6.1873,-6.0791,-5.5513,-5.3247,-5.2909,-5.071,-4.939,-4.8714,-4.8748,-4.7902,-4.6684,0.0,0.0,0.0,0.0,0.0,0.0,0.0,0.0,0.0,0.0,0.0,0.0,0.0,-4.9965,-5.1725,-5.3247,-5.3585,-5.3416,-5.2739,0.0,0.0,0.0,0.0,0.0,0.0,0.0,0.0,-5.8896,-6.14,-6.414,-6.7117,-6.7624,-6.9032,-7.1169,-7.1704,-7.1723,-7.1101,-6.7113,-6.3356,-5.9685,-5.6088,-5.3261,0.0,0.0,0.0,0.0,0.0,0.0,0.0,0.0,0.0,0.0,0.0,0.0,0.0,0.0,0.0,0.0,0.0,0.0,0.0,0.0,0.0,0.0,0.0,0.0,0.0,0.0,0.0,0.0,0.0,0.0,0.0,0.0,0.0,0.0,0.0,0.0,0.0,-5.2014,-5.5066,0.0,-5.5172,-5.4949,-5.5324,-5.633,-5.736,-5.8561,-5.9879,-6.1613,-6.313,-6.4377,-6.5392,-6.644,-6.7489,-6.776,-6.7895,-6.7895,-6.8166,-6.7861,-6.7117,-6.6846,-6.6474,-6.5967,-6.4952,-6.4106,-6.3226,-6.0385,-5.7814,-5.5513,-5.4228,-5.2976,-5.1826,-5.1319,-5.0777,-5.0338,0.0,0.0,0.0,0.0,0.0,0.0,0.0,0.0,0.0,0.0,0.0,-4.753,-4.9526,-5.1961,-5.4363,-5.6664,-5.6393,-5.5784,-5.504,0.0,0.0,0.0,0.0,0.0,0.0,0.0,0.0,0.0,-6.4377,-6.6779,-6.9451,-6.9451,-7.0678,-7.2804,-7.3322,-7.3654,-7.3727,-7.2034,-6.8201,-6.2989,-5.9722,-5.7299,-5.5133,0.0,0.0,0.0,0.0,0.0,0.0,0.0,0.0,0.0,0.0,0.0,0.0,0.0,0.0,0.0,0.0,0.0,0.0,0.0,0.0,0.0,0.0,0.0,0.0,0.0,0.0,0.0,0.0,0.0,0.0,0.0,0.0,0.0,0.0,0.0,-5.5044,-5.5934,-5.9301,-6.1015,-5.965,-5.9392,-5.9761,-6.0754,-6.1533,-6.2651,-6.4174,-6.5662,-6.6948,-6.7929,-6.8673,-6.9316,-6.9857,-6.9857,-6.9857,-6.9857,-6.9586,-6.9045,-6.8301,-6.776,-6.7252,-6.6779,-6.6,-6.5425,-6.4884,-6.3632,-6.1535,-5.893,-5.7679,-5.6292,-5.4905,-5.4397,-5.3721,-5.3044,0.0,0.0,0.0,0.0,0.0,0.0,0.0,0.0,0.0,0.0,-4.5969,-4.8003,-5.098,-5.3991,-5.734,-6.1028,-5.8592,-5.7103,-5.778,-5.1623,0.0,0.0,0.0,0.0,0.0,0.0,0.0,0.0,0.0,0.0,-7.0229,-7.0229,-7.1147,-7.2797,-7.3846,-7.4438,-7.4668,-7.5687,-7.345,-6.8752,-6.3796,-6.2218,-6.2034,0.0,0.0,0.0,0.0,0.0,0.0,0.0,0.0,0.0,0.0,0.0,0.0,0.0,0.0,0.0,0.0,0.0,0.0,0.0,0.0,0.0,0.0,0.0,0.0,0.0,0.0,0.0,0.0,0.0,0.0,0.0,0.0,0.0,-5.1946,-5.5459,-5.8423,-5.9911,-6.2856,-6.3843,-6.159,-6.2127,-6.3226,-6.4681,-6.5459,-6.6474,-6.7929,-6.9417,-7.0229,-7.0229,-7.0939,-7.1312,-7.1312,-7.1312,-7.1312,-7.1312,-7.0567,-6.9857,-6.9079,-6.759,-6.688,-6.6812,-6.6068,-6.573,-6.5628,-6.4918,-6.4208,-6.3294,-6.1028,-5.9235,-5.7949,-5.7881,-5.6461,-5.4465,0.0,0.0,0.0,0.0,0.0,0.0,0.0,0.0,0.0,0.0,-4.7289,-5.0135,-5.2604,-5.6461,-5.9742,-6.1907,-5.9336,-5.7239,-5.6359,0.0,0.0,0.0,0.0,0.0,0.0,0.0,0.0,0.0,0.0,0.0,0.0,-7.1007,-7.1253,-7.1786,-7.3532,-7.4317,-7.4509,-7.6235,-7.6173,-7.4478,-6.8421,-6.4714,-6.223,0.0,0.0,0.0,0.0,0.0,0.0,0.0,0.0,0.0,0.0,0.0,0.0,0.0,0.0,0.0,0.0,0.0,0.0,0.0,0.0,0.0,0.0,0.0,0.0,0.0,0.0,0.0,0.0,0.0,0.0,0.0,0.0,-5.5527,-5.5303,-5.8631,-6.2055,-6.4601,-6.6656,-6.7811,-6.7717,-6.7921,-6.8199,-6.8605,-6.935,-6.9958,-7.0364,-7.077,-7.1007,-7.1007,-7.121,-7.1312,-7.1312,-7.1312,-7.1312,-7.1312,-7.1109,-7.0601,-6.9857,-6.9451,-6.8639,-6.759,-6.7387,-6.6677,-6.5662,-6.5459,-6.4647,-6.3362,-6.1637,-6.0351,-5.9302,-5.7679,-5.5716,-5.3788,0.0,0.0,0.0,0.0,0.0,0.0,0.0,0.0,0.0,0.0,-4.753,-5.0507,-5.2739,-5.6427,-5.9336,-6.0858,-5.822,-5.5886,-5.4397,0.0,0.0,0.0,0.0,0.0,0.0,0.0,0.0,0.0,0.0,0.0,0.0,0.0,0.0,-7.2927,-7.4557,-7.5316,-7.5512,-7.7502,-7.7965,-7.6943,-7.323,-7.0367,-6.7797,-6.2401,-5.9979,-5.9134,-5.6455,-5.5757,-5.5831,-5.3959,0.0,0.0,0.0,0.0,0.0,0.0,0.0,0.0,0.0,0.0,0.0,0.0,0.0,0.0,0.0,0.0,0.0,0.0,0.0,0.0,0.0,0.0,0.0,0.0,-5.8392,-6.0098,-6.1118,-6.2989,-6.5222,-6.7895,-6.9553,-7.0635,-7.1075,-7.1379,-7.1582,-7.1582,-7.1684,-7.1751,-7.1751,-7.1481,-7.1312,-7.1312,-7.1312,-7.1312,-7.1312,-7.1312,-7.1312,-7.1312,-7.1312,-7.0906,-7.0195,-7.0195,-6.9519,-6.8402,-6.8402,-6.7726,-6.6576,-6.6271,-6.529,0.0,0.0,0.0,0.0,0.0,-5.5547,-5.4329,0.0,0.0,0.0,0.0,0.0,0.0,0.0,0.0,0.0,0.0,0.0,-4.9763,-5.1725,-5.4702,-5.7103,-5.8524,-5.5919,-5.3551,0.0,0.0,0.0,0.0,0.0,0.0,0.0,0.0,0.0,0.0,0.0,0.0,0.0,0.0,0.0,0.0,-7.6057,-7.6754,-7.7126,-7.9088,-7.9066,-7.7714,-7.7714,-7.6974,-7.5102,-6.8495,-6.6329,-6.6256,-6.2365,-5.9758,-5.8107,-5.7629,0.0,0.0,0.0,0.0,0.0,0.0,0.0,0.0,0.0,0.0,0.0,0.0,0.0,0.0,0.0,0.0,0.0,0.0,0.0,0.0,0.0,0.0,0.0,0.0,-6.2169,-6.441,-6.803,-6.7963,-6.8267,-7.0195,-7.1751,-7.2631,-7.2529,-7.3172,-7.3544,-7.3375,-7.2766,-7.236,-7.2293,0.0,0.0,0.0,0.0,-7.1312,-7.1312,-7.1312,-7.1312,-7.1312,-7.1312,-7.0973,-7.0297,-7.0297,-6.9857,-6.9113,-6.9113,-6.8605,-6.7726,-6.7083,-6.5933,-6.4512,-6.3599,-6.1907,-5.9641,-5.6867,-5.575,-5.5378,0.0,0.0,0.0,0.0,0.0,0.0,0.0,0.0,0.0,-4.4412,-4.7158,-4.9154,-4.9593,-5.2841,-5.5378,-5.6292,-5.3619,-5.1251,0.0,0.0,0.0,0.0,0.0,0.0,0.0,0.0,0.0,0.0,0.0,0.0,0.0,0.0,0.0,0.0,0.0,0.0,-7.7746,-7.9842,-8.0571,-8.0277,-8.0277,-7.7818,-7.3854,-7.1174,-6.9449,-6.8091,-6.5338,-6.5301,-6.6072,-6.2743,-6.223,-6.2365,-5.8914,0.0,0.0,0.0,0.0,0.0,0.0,0.0,0.0,0.0,0.0,0.0,0.0,0.0,0.0,0.0,0.0,0.0,0.0,0.0,0.0,-6.5447,-6.7182,-6.8876,-7.1954,-7.2293,-7.2157,-7.1988,-7.3274,-7.395,-7.3341,-7.395,-7.3883,-7.2699,-7.2462,-7.2157,-7.1548,-7.1379,-7.1312,-7.1312,-7.1312,-7.1312,-7.1312,-7.1312,-7.1312,-7.1312,0.0,0.0,-7.1109,-7.1109,-7.0364,-6.9113,-6.9113,-6.8301,-6.7015,-6.688,-6.5933,-6.441,-6.2482,-6.0723,-5.8998,-5.7239,-5.5818,-5.4668,0.0,0.0,0.0,0.0,0.0,0.0,0.0,0.0,0.0,0.0,-4.6278,-4.8037,-4.8409,-5.0439,-5.1961,-5.2334,0.0,0.0,0.0,0.0,0.0,0.0,0.0,0.0,0.0,0.0,0.0,0.0,0.0,0.0,0.0,0.0,0.0,0.0,0.0,0.0,0.0,-8.0479,-8.1206,-8.0975,-8.0571,-7.8699,-7.6019,-7.4771,-7.3274,-7.1688,-7.0073,-6.9486,-6.9192,-6.7136,-6.6219,-6.5558,-6.3503,-6.119,-5.8804,0.0,0.0,0.0,0.0,0.0,0.0,0.0,0.0,0.0,0.0,0.0,0.0,0.0,0.0,-5.7192,0.0,0.0,-6.504,-6.991,-7.1036,-7.1954,-7.3781,-7.4052,-7.3916,-7.3544,-7.4153,-7.4762,-7.5168,-7.5168,-7.4999,-7.4695,-7.3578,-7.28,-7.2428,-7.1718,-7.1312,-7.1312,-7.1312,-7.1312,-7.1312,-7.1312,-7.1312,-7.1312,-7.1312,-7.1312,-7.1312,-7.0939,-7.0331,-6.962,-6.9248,-6.8436,-6.7252,-6.617,-6.5053,-6.3903,-6.2415,-6.0926,-5.9194,-5.6456,-5.5326,-5.4903,0.0,0.0,0.0,0.0,0.0,0.0,0.0,0.0,0.0,0.0,0.0,-4.6583,-4.7192,-4.7936,-4.8308,0.0,0.0,0.0,0.0,0.0,0.0,0.0,0.0,0.0,0.0,0.0,0.0,0.0,0.0,0.0,0.0,0.0,0.0,0.0,0.0,0.0,0.0,0.0,0.0,-8.1636,-8.0828,-7.9837,-7.8772,-7.8075,-7.668,-7.5028,-7.4037,-7.2055,-6.9889,-7.0036,-6.8715,-6.699,-6.7136,-6.5705,-6.3466,-6.0689,-5.8783,0.0,0.0,0.0,0.0,0.0,0.0,0.0,0.0,0.0,-5.6156,-5.7949,-5.9844,-6.2381,-6.6271,-6.8098,-7.0128,-7.3578,-7.4018,-7.4187,-7.4965,-7.4931,-7.483,-7.483,-7.4965,-7.5439,-7.6352,-7.6014,-7.5845,-7.6217,-7.439,-7.3274,-7.3274,-7.2022,-7.1312,-7.1312,-7.1312,-7.1312,-7.1312,-7.1312,-7.1312,-7.1312,-7.1312,-7.1312,-7.1278,-7.0534,-7.0094,-6.9925,-6.9045,-6.8301,-6.7523,-6.5459,-6.4241,-6.3599,-6.2415,-6.1197,-5.97,-5.6292,-5.5442,-5.5542,0.0,0.0,0.0,0.0,0.0,0.0,0.0,0.0,0.0,0.0,0.0,0.0,0.0,0.0,0.0,0.0,0.0,0.0,0.0,0.0,0.0,0.0,0.0,0.0,0.0,0.0,0.0,0.0,0.0,0.0,0.0,0.0,0.0,0.0,0.0,0.0,0.0,0.0,0.0,0.0,-8.3324,-8.1672,-7.9653,-7.9543,-7.8038,-7.5763,-7.4258,-7.1688,-6.9155,-6.9853,-6.9449,-6.8752,-6.9486,-6.9009,-6.7467,-6.3514,0.0,-5.5763,-5.4384,-5.3148,-5.2628,-5.45,-5.5174,-5.7137,0.0,0.0,-6.4174,-6.7015,-6.8335,-6.9485,-7.1312,-7.2326,-7.3646,-7.6115,-7.5912,-7.5743,-7.6521,-7.6048,-7.5574,-7.5574,-7.6217,-7.6183,-7.4965,-7.5371,-7.5202,-7.395,-7.3037,-7.2529,-7.2529,-7.1751,-7.1312,-7.1312,-7.1312,-7.1312,-7.1312,-7.1312,-7.1312,-7.1312,-7.1312,-7.1312,-7.1278,-7.0534,-6.9823,-6.9147,-6.7692,-6.7015,-6.6812,-6.5256,-6.4546,-6.4208,-6.1434,-6.025,-5.9979,-5.8886,-5.7704,-5.6318,0.0,0.0,0.0,0.0,0.0,0.0,0.0,0.0,0.0,0.0,0.0,0.0,0.0,0.0,0.0,0.0,0.0,0.0,0.0,0.0,0.0,0.0,0.0,0.0,0.0,0.0,0.0,0.0,0.0,0.0,0.0,0.0,0.0,0.0,0.0,0.0,0.0,0.0,0.0,0.0,0.0,0.0,-7.8993,-7.8002,-7.5836,-7.312,-7.1468,-6.9449,0.0,0.0,-6.6696,-6.71,-6.8862,-6.8201,-6.6103,-6.2579,-6.0092,0.0,-5.6325,-5.6333,0.0,0.0,-6.025,-6.3497,-6.6203,-6.7354,-6.847,-7.0567,-7.2293,-7.3849,-7.5371,-7.5912,-7.669,0.0,-7.7807,-7.7164,-7.7468,-7.6487,-7.5371,-7.4525,-7.4695,-7.4999,-7.5236,-7.4728,-7.4322,-7.4153,-7.3071,-7.2394,-7.2394,-7.1718,-7.1312,-7.1312,-7.1312,-7.1312,-7.1312,-7.1312,-7.1312,-7.1312,-7.1312,-7.1075,-7.0635,-6.9891,-6.8673,-6.7117,-6.6914,-6.6068,-6.4884,-6.4681,-6.4072,-6.3159,-6.1467,-6.052,-5.9726,-5.6939,-5.5567,-5.4837,0.0,0.0,0.0,0.0,0.0,0.0,0.0,0.0,0.0,0.0,0.0,0.0,0.0,0.0,0.0,0.0,0.0,0.0,0.0,0.0,0.0,0.0,0.0,0.0,0.0,0.0,0.0,0.0,0.0,0.0,0.0,0.0,0.0,0.0,0.0,0.0,0.0,0.0,0.0,0.0,0.0,0.0,-7.8038,-7.6166,-7.3156,-6.9816,-6.8421,-6.6145,0.0,0.0,-6.2066,-6.2771,-6.5232,-6.4959,-6.3311,-6.0982,-5.9844,-5.8976,-5.7097,0.0,0.0,-6.1298,-6.5324,-6.9282,-6.9789,-7.1312,-7.3003,-7.4289,-7.5506,-7.6657,-7.7773,-7.7638,-7.7841,-7.9329,-7.8517,-7.7773,-7.7942,-7.6487,-7.4864,-7.3375,-7.2631,-7.2699,-7.3781,-7.3477,-7.3409,-7.395,-7.2834,-7.2191,-7.2394,-7.1718,-7.1312,-7.1312,-7.1312,-7.1312,-7.1312,-7.1312,-7.1312,-7.1312,-7.1312,-7.1041,-7.0466,-6.9519,-6.7861,-6.573,-6.6474,-6.5662,-6.3869,-6.4377,-6.3835,-6.2584,-6.1434,-6.0435,-5.9198,-5.5304,-5.4226,-5.4295,0.0,0.0,0.0,0.0,0.0,0.0,0.0,0.0,0.0,0.0,0.0,0.0,0.0,0.0,0.0,0.0,0.0,0.0,0.0,0.0,0.0,0.0,0.0,0.0,0.0,0.0,0.0,0.0,0.0,0.0,0.0,0.0,0.0,0.0,0.0,0.0,0.0,0.0,0.0,0.0,0.0,0.0,-7.7053,-7.4661,-7.0807,-6.6549,-6.5705,0.0,0.0,0.0,-5.5606,-5.5374,-5.7969,-5.9295,0.0,-5.9591,-5.8303,-5.6731,0.0,0.0,-6.2279,-6.6576,-6.9958,-7.3206,-7.6826,-7.828,-7.9058,-7.9803,-7.8855,-7.7942,-7.7976,-7.6758,-7.6251,-7.7807,-7.7435,-7.7164,-7.7874,-7.6048,-7.4086,-7.2597,-7.0534,-6.9248,0.0,-7.121,-7.2428,-7.2462,-7.1751,-7.165,-7.236,-7.1718,-7.1312,-7.1312,-7.1312,-7.1312,-7.1312,-7.1312,-7.1312,-7.1312,-7.1312,-7.1312,-7.1244,-6.9755,-6.7861,-6.573,-6.6474,-6.5967,-6.458,-6.458,-6.414,-6.326,-6.1028,-5.9505,-5.8247,-5.5527,-5.5223,-5.5824,0.0,0.0,0.0,0.0,0.0,0.0,0.0,0.0,0.0,0.0,0.0,0.0,0.0,0.0,0.0,0.0,0.0,0.0,0.0,0.0,0.0,0.0,0.0,0.0,0.0,0.0,0.0,0.0,0.0,0.0,0.0,0.0,0.0,0.0,0.0,0.0,0.0,0.0,0.0,0.0,0.0,0.0,-7.4515,-7.1027,-6.6802,-6.2172,0.0,0.0,0.0,0.0,0.0,0.0,-5.377,-5.4652,-5.4942,-5.5343,-5.5764,-5.6677,-5.9411,0.0,-6.803,-7.1481,-7.4999,-7.801,-7.9769,-8.0378,-8.0344,-7.9634,-7.7096,-7.4695,-7.3747,-7.2326,-7.1954,-7.395,-7.5303,-7.6183,-7.642,-7.669,-7.5202,-7.0737,-7.0838,0.0,0.0,0.0,0.0,-7.0838,-7.0703,-7.1109,-7.2326,-7.1718,-7.1548,-7.2022,-7.1582,-7.1312,-7.1312,-7.1312,-7.1312,-7.1312,-7.0331,-6.9553,-6.9011,-6.803,-6.6643,-6.5019,-6.573,-6.4952,-6.3159,-6.3666,-6.3159,-6.1907,-6.0622,-5.9131,-5.7555,-5.5758,-5.4334,-5.3092,0.0,0.0,0.0,0.0,0.0,0.0,0.0,0.0,0.0,0.0,0.0,0.0,0.0,0.0,0.0,0.0,0.0,0.0,0.0,0.0,0.0,0.0,0.0,0.0,0.0,0.0,0.0,0.0,0.0,0.0,0.0,0.0,0.0,0.0,0.0,0.0,0.0,0.0,0.0,0.0,0.0,0.0,-6.9311,-6.5081,-6.1105,0.0,0.0,0.0,0.0,0.0,0.0,0.0,-4.9469,-5.1109,-5.2585,-5.3848,-5.6065,-5.9133,-6.3903,-6.8605,-7.2935,-7.6183,-7.9194,-8.1494,-8.1968,-8.146,-8.031,-7.8314,-7.4695,-7.1379,-6.962,-6.7895,-6.7421,-6.9654,-7.1413,-7.3071,-7.4695,-7.5067,-7.4086,-7.1041,-7.0737,-6.9958,0.0,0.0,0.0,-7.006,-7.0432,-7.1007,-7.1954,-7.1582,-7.1548,-7.1988,-7.1548,-7.1312,-7.1312,-7.1312,-7.1312,-7.1312,-7.006,-6.9079,-6.8301,-6.7286,-6.6,-6.4613,-6.5087,-6.4174,-6.2448,-6.3193,-6.2651,-6.1231,-6.0419,-5.873,-5.667,-5.5462,-5.3309,-5.0822,0.0,0.0,0.0,0.0,0.0,0.0,0.0,0.0,0.0,0.0,0.0,0.0,0.0,0.0,0.0,0.0,0.0,0.0,0.0,0.0,0.0,0.0,0.0,0.0,-5.4296,-5.5141,-5.6224,-5.7645,0.0,0.0,0.0,0.0,0.0,0.0,0.0,0.0,0.0,0.0,0.0,0.0,0.0,0.0,-6.1935,-5.7351,0.0,0.0,0.0,0.0,0.0,0.0,0.0,0.0,0.0,-4.9052,-5.2942,-5.5412,-5.9235,-6.3802,-6.9045,-7.3172,-7.686,-8.0547,-8.2475,-8.349,-8.3389,-8.1596,-7.9092,-7.6048,-7.1819,-6.7929,0.0,0.0,-6.2956,-6.5222,-6.6474,-6.8673,-7.3003,-7.1887,-7.1345,0.0,0.0,0.0,0.0,0.0,0.0,-7.0094,0.0,-7.1278,-7.1379,-7.1345,-7.1345,-7.1379,-7.1345,-7.1312,-7.1312,-7.1312,-7.1312,-7.1244,-7.05,-6.9755,-6.8977,-6.7455,-6.5967,-6.4613,-6.4546,-6.3734,-6.2448,-6.3125,-6.255,-6.1163,-6.0351,-5.8277,-5.5644,-5.479,-5.2317,-4.9403,0.0,0.0,0.0,0.0,0.0,0.0,0.0,0.0,0.0,0.0,0.0,0.0,0.0,0.0,0.0,0.0,0.0,0.0,0.0,0.0,0.0,0.0,0.0,0.0,0.0,-5.2503,0.0,0.0,0.0,0.0,0.0,0.0,0.0,0.0,0.0,0.0,0.0,0.0,0.0,0.0,0.0,0.0,-5.7218,0.0,0.0,0.0,0.0,0.0,0.0,0.0,0.0,0.0,0.0,-5.3044,-5.5716,-6.0216,-6.3903,-6.7624,-7.2868,-7.7029,-8.0479,-8.3118,-8.3625,-8.3219,-8.2103,-7.9261,-7.5845,-7.2326,-6.6677,-6.1704,0.0,0.0,0.0,-6.3599,-6.8402,0.0,-7.483,-7.6115,0.0,-7.3003,0.0,-7.1278,-6.9282,-6.9417,0.0,0.0,-7.0364,-7.0939,-7.2056,-7.1616,-7.1548,-7.209,-7.1616,-7.1312,-7.1312,-7.1312,-7.1041,-7.0466,-6.9722,-6.8977,-6.8166,-6.6643,-6.5459,-6.458,-6.4038,-6.326,-6.2347,-6.2009,-6.1298,-6.0317,-5.9573,-5.7974,-5.5829,-5.3834,-5.2019,-5.023,0.0,0.0,0.0,0.0,0.0,0.0,0.0,0.0,0.0,0.0,0.0,0.0,0.0,0.0,0.0,0.0,0.0,0.0,0.0,0.0,0.0,0.0,0.0,0.0,0.0,0.0,0.0,0.0,0.0,0.0,0.0,0.0,0.0,0.0,0.0,0.0,0.0,0.0,0.0,0.0,0.0,0.0,0.0,0.0,0.0,0.0,0.0,0.0,0.0,0.0,0.0,-5.2131,-5.5378,-5.7645,-6.0216,-6.5797,0.0,-7.1921,-7.6826,-8.0412,-8.305,-8.4302,-8.3828,-8.2272,-7.9464,-7.6217,-7.2259,-6.688,-6.1975,0.0,-5.531,0.0,0.0,0.0,0.0,0.0,-7.3341,-7.5168,-7.5574,0.0,-7.3916,0.0,-7.121,-7.1109,-7.1176,0.0,-7.0872,-7.1041,-7.1887,-7.1548,-7.1515,-7.1921,-7.1548,-7.1312,-7.1312,-7.1312,-7.0939,-7.0195,-6.9451,-6.8504,-6.7387,-6.5899,-6.4816,-6.4072,0.0,-6.2482,-6.2313,-6.1231,-6.052,-6.0047,-5.9302,-5.7859,-5.5922,-5.3825,-5.2122,-5.0615,0.0,0.0,0.0,0.0,0.0,0.0,0.0,0.0,0.0,0.0,0.0,0.0,0.0,0.0,0.0,0.0,0.0,0.0,0.0,0.0,0.0,0.0,0.0,0.0,0.0,0.0,0.0,0.0,0.0,0.0,0.0,0.0,0.0,0.0,0.0,0.0,0.0,0.0,0.0,0.0,0.0,0.0,0.0,0.0,0.0,0.0,0.0,0.0,0.0,0.0,-5.2334,-5.5175,-5.9708,-6.2719,-6.5696,-7.1582,-7.4221,-7.6149,-8.0412,-8.305,-8.464,-8.464,-8.3287,-8.0818,-7.642,-7.2665,-6.8098,-6.0994,0.0,-5.5074,-5.2367,-5.3281,-5.531,-5.7915,0.0,-6.5797,-7.1142,-7.2428,-7.3578,-7.5608,-7.5202,-7.4458,-7.3713,-7.3071,-7.2597,-7.2428,-7.1819,-7.1413,-7.1312,-7.1312,-7.1312,-7.1312,-7.1312,-7.1312,-7.1312,-7.1312,-7.0939,-7.0195,-6.9451,-6.8301,-6.6779,-6.529,-6.4208,-6.3429,-6.1941,-6.167,-6.211,-6.0588,-5.9945,-5.9877,-5.9167,-5.7792,-5.5988,-5.4237,-5.2469,-5.0646,0.0,0.0,0.0,0.0,0.0,0.0,0.0,0.0,0.0,0.0,-4.0113,-4.0113,0.0,0.0,0.0,0.0,0.0,0.0,0.0,0.0,0.0,0.0,0.0,0.0,0.0,0.0,0.0,0.0,0.0,0.0,0.0,0.0,0.0,0.0,0.0,0.0,0.0,0.0,0.0,0.0,0.0,0.0,0.0,0.0,0.0,0.0,0.0,0.0,0.0,0.0,-5.6089,-5.9844,-6.4952,-6.8132,-7.1007,-7.6386,-7.8145,-7.9025,-8.2238,-8.3862,-8.464,-8.464,-8.2137,-7.8653,-7.4762,-6.8707,0.0,0.0,-5.3687,-5.0913,-4.9796,-5.1826,-5.5243,-5.9945,0.0,0.0,0.0,0.0,-7.5506,0.0,0.0,0.0,0.0,0.0,0.0,0.0,0.0,-7.1954,-7.1345,-7.1312,-7.1312,-7.1312,-7.1312,-7.1312,-7.1312,-7.1312,-7.0939,-7.0195,-6.9451,-6.8301,-6.6779,-6.529,-6.4208,-6.3429,-6.1941,0.0,-6.1366,-5.9844,-5.9201,-5.9133,-5.8389,-5.7323,-5.5988,-5.4237,-5.2469,-5.0646,0.0,0.0,0.0,0.0,0.0,0.0,0.0,0.0,-4.0113,-4.0113,-4.0451,-4.0553,-4.0146,-4.0113,0.0,0.0,0.0,0.0,0.0,0.0,0.0,0.0,0.0,0.0,0.0,0.0,0.0,0.0,0.0,0.0,0.0,0.0,0.0,0.0,0.0,0.0,0.0,0.0,0.0,0.0,0.0,0.0,0.0,0.0,0.0,0.0,0.0,0.0,0.0,0.0,-5.46,-6.0216,-6.7421,-7.0703,-7.2902,-7.8145,-7.9397,-7.9837,-8.3186,-8.4336,-8.4539,-8.4133,-8.0648,-7.6048,-7.1142,0.0,0.0,0.0,-5.0777,-4.9289,-4.8578,0.0,0.0,0.0,0.0,0.0,0.0,0.0,0.0,0.0,0.0,0.0,0.0,0.0,0.0,0.0,0.0,-7.1684,-7.1345,-7.1312,-7.1312,-7.1312,-7.1312,-7.1142,-7.0737,-7.0737,-7.0161,-6.8977,-6.8639,-6.7489,-6.5628,-6.4918,-6.4005,-6.2854,-6.1332,0.0,-6.1163,-5.9235,-5.866,-5.893,-5.8186,-5.7189,-5.5988,-5.4237,-5.2469,-5.0646,0.0,0.0,0.0,0.0,0.0,0.0,0.0,-4.0113,-4.0113,-4.0113,-4.0595,-4.073,-4.018,-4.0248,-4.0282,0.0,0.0,0.0,0.0,0.0,0.0,0.0,0.0,0.0,0.0,0.0,0.0,0.0,0.0,0.0,0.0,0.0,0.0,0.0,0.0,0.0,0.0,0.0,0.0,0.0,0.0,0.0,0.0,0.0,0.0,0.0,0.0,0.0,0.0,0.0,-5.1758,-5.7442,-6.5797,-7.0161,-7.3003,-7.7266,-7.8923,-8.004,-8.3287,-8.437,-8.4403,-8.349,-7.9194,-7.3713,-6.7895,-6.1569,0.0,0.0,-4.8612,-4.8206,-4.7939,0.0,-5.2063,0.0,0.0,0.0,0.0,0.0,0.0,0.0,0.0,0.0,0.0,0.0,0.0,0.0,0.0,0.0,-7.1312,-7.1312,-7.1312,-7.1312,-7.1312,-7.0939,-7.0195,-7.0195,-6.9417,-6.7895,-6.7726,-6.6576,-6.458,-6.4444,-6.3632,-6.2313,-6.0757,0.0,0.0,-5.8761,-5.8254,-5.8727,-5.8118,-5.7189,-5.606,-5.464,-5.2898,-5.0894,0.0,0.0,0.0,0.0,0.0,0.0,0.0,-4.0113,-4.0113,-4.0113,-4.018,-4.018,-4.0113,-4.0696,-4.0832,0.0,0.0,0.0,0.0,0.0,0.0,0.0,0.0,0.0,0.0,0.0,0.0,0.0,0.0,0.0,0.0,0.0,0.0,0.0,0.0,0.0,0.0,0.0,0.0,0.0,0.0,0.0,0.0,0.0,0.0,0.0,0.0,0.0,0.0,0.0,0.0,-5.0913,-5.7171,-6.4783,-7.165,-7.28,0.0,0.0,-8.2171,-8.3592,-8.4268,-8.2847,-7.8077,-7.2293,-6.6981,0.0,0.0,-4.9695,-4.7394,-4.6413,-4.7669,-4.8108,-4.9695,0.0,0.0,0.0,0.0,0.0,0.0,0.0,0.0,0.0,0.0,0.0,0.0,0.0,0.0,0.0,-7.1312,-7.1312,-7.1312,-7.1312,-7.1312,-7.0939,-7.0195,-7.0195,-6.9417,-6.7895,-6.7218,-6.6102,-6.458,-6.3903,-6.3159,-6.2313,-6.0757,0.0,0.0,-5.8524,-5.7915,-5.7983,-5.7915,-5.7189,-5.6204,-5.5988,-5.4218,-5.1785,0.0,0.0,0.0,0.0,0.0,0.0,0.0,-3.9808,-4.0113,-4.0113,-4.0493,-4.0595,-4.0146,-4.0764,-4.0899,0.0,0.0,0.0,0.0,0.0,0.0,0.0,0.0,0.0,0.0,0.0,0.0,0.0,0.0,0.0,0.0,0.0,0.0,0.0,0.0,0.0,0.0,0.0,0.0,0.0,0.0,0.0,0.0,0.0,0.0,0.0,0.0,0.0,0.0,0.0,0.0,0.0,-4.8714,-5.4431,0.0,0.0,-7.2157,-7.5845,-8.0479,-8.2509,-8.2949,-8.146,-7.5912,-6.9586,-6.4783,0.0,0.0,-4.8781,-4.7293,-4.6549,-4.7124,-4.7597,-4.8511,0.0,0.0,0.0,0.0,0.0,0.0,0.0,0.0,0.0,0.0,0.0,0.0,0.0,0.0,0.0,-7.1345,-7.1312,-7.1109,-7.0635,-7.0635,-7.006,-6.8808,-6.8808,-6.8267,-6.7252,-6.6474,-6.5595,-6.458,-6.3835,-6.2854,-6.167,-6.0588,0.0,0.0,-5.8321,-5.7881,-5.7881,-5.7881,-5.7189,-5.6204,-5.6204,-5.4107,-5.1301,0.0,0.0,0.0,0.0,0.0,-3.8734,-3.8971,-3.9436,-3.9876,-4.0079,-4.0527,-4.0663,-4.018,-4.0561,-4.0663,-4.0146,0.0,0.0,0.0,0.0,0.0,0.0,0.0,0.0,0.0,0.0,0.0,-4.0113,-4.0113,0.0,0.0,0.0,0.0,0.0,0.0,0.0,0.0,0.0,0.0,0.0,0.0,0.0,0.0,0.0,0.0,0.0,0.0,0.0,0.0,0.0,0.0,0.0,0.0,0.0,0.0,0.0,-6.6981,-7.1413,-7.6589,-7.9532,-8.0682,-7.8957,-7.3443,-6.7252,0.0,0.0,-4.9729,-4.8477,-4.7124,-4.6346,-4.6989,-4.7192,-4.7365,0.0,0.0,0.0,0.0,0.0,0.0,0.0,0.0,0.0,0.0,0.0,0.0,0.0,0.0,0.0,-7.1345,-7.1312,-7.0973,-7.0195,-7.0195,-6.9451,-6.7929,-6.7895,-6.7421,-6.6474,-6.573,-6.4986,-6.4241,-6.3531,-6.2482,-6.1264,-6.0452,0.0,0.0,-5.8186,-5.7881,-5.7881,-5.7881,-5.7409,-5.6701,-5.6701,-5.4886,-5.2479,0.0,0.0,0.0,0.0,0.0,0.0,0.0,-3.9005,-3.9276,-4.0011,-4.0113,-4.0113,-4.0113,-4.0113,-4.0113,-4.0113,0.0,0.0,0.0,0.0,0.0,0.0,0.0,0.0,0.0,0.0,-4.0113,-4.0113,-4.0113,-4.0113,-4.0113,0.0,0.0,0.0,0.0,0.0,0.0,0.0,0.0,0.0,0.0,0.0,0.0,0.0,0.0,0.0,0.0,0.0,0.0,0.0,0.0,0.0,0.0,0.0,0.0,0.0,-6.0994,-6.8267,-6.9857,-7.4086,-7.7502,-7.5236,-7.0737,-6.5662,0.0,0.0,-4.9864,-4.9154,-4.665,-4.5263,-4.7466,-4.6718,-4.621,-4.7635,0.0,0.0,0.0,0.0,0.0,0.0,0.0,0.0,0.0,0.0,0.0,0.0,0.0,0.0,-7.1312,-7.1312,-7.0973,-7.0195,-7.0195,-6.9451,-6.7929,-6.7895,-6.7151,-6.5696,-6.4952,-6.4241,-6.3497,-6.2753,-6.2009,-6.1264,0.0,0.0,0.0,-5.8186,-5.7881,-5.7881,-5.7881,-5.7881,-5.7881,-5.7881,-5.7151,-5.6132,0.0,0.0,0.0,0.0,0.0,0.0,0.0,-3.8667,-3.9242,-4.0011,-4.0113,-4.0113,-4.0113,-4.0113,-4.0113,-4.0113,0.0,0.0,0.0,0.0,0.0,0.0,0.0,0.0,0.0,0.0,-4.0113,-4.0113,-4.0113,-4.0113,-4.0113,-4.0113,-4.0113,0.0,0.0,0.0,0.0,0.0,0.0,0.0,0.0,0.0,0.0,0.0,0.0,0.0,0.0,0.0,0.0,0.0,0.0,0.0,0.0,0.0,0.0,0.0,0.0,0.0,-6.3903,-6.644,-6.7692,-6.5933,-6.2719,-5.9201,-5.6258,0.0,-4.8545,-4.8308,-4.709,-4.6143,-4.638,-4.6447,-4.6786,-4.7736,-4.8075,0.0,0.0,0.0,0.0,0.0,0.0,0.0,0.0,0.0,0.0,0.0,0.0,0.0,-7.1345,-7.1312,-7.0737,-6.9485,-6.9451,-6.847,-6.6406,-6.6373,-6.5899,-6.4918,-6.37,-6.2956,-6.2685,-6.14,-6.0419,0.0,0.0,0.0,0.0,-5.7983,-5.7881,-5.7881,-5.7881,-5.7881,-5.7808,-5.7039,-5.6249,-5.5474,0.0,0.0,0.0,0.0,0.0,0.0,0.0,-3.7855,-3.8531,-3.9571,-3.9673,-3.9808,-4.0079,-4.0113,-4.0113,-4.0113,0.0,0.0,0.0,0.0,0.0,0.0,0.0,0.0,0.0,-4.0113,-4.0113,-4.0113,-4.0113,-4.0113,-4.0113,-4.0113,-4.0113,-4.0113,-4.0113,0.0,0.0,0.0,0.0,0.0,0.0,0.0,-4.0113,0.0,0.0,0.0,0.0,0.0,0.0,0.0,0.0,0.0,0.0,0.0,0.0,0.0,-4.7631,0.0,0.0,-5.9945,-6.1095,-5.9911,-5.7577,0.0,0.0,0.0,-4.7496,-4.7496,-4.6684,-4.5906,-4.5737,-4.5838,-4.6278,-4.7327,-4.7496,0.0,0.0,0.0,0.0,0.0,0.0,0.0,0.0,0.0,0.0,0.0,0.0,0.0,-7.0939,-7.0872,-7.0195,-6.8707,-6.8944,-6.7996,-6.5696,-6.5696,-6.5053,-6.3768,-6.2821,-6.2076,-6.1501,-6.0554,-5.9708,0.0,0.0,0.0,0.0,-5.7881,-5.7881,-5.7881,-5.7881,-5.7881,-5.7808,-5.7076,-5.6359,-5.5617,0.0,0.0,0.0,0.0,0.0,0.0,0.0,0.0,0.0,-3.8734,-3.8903,-3.9174,-3.9943,-4.0011,-4.0045,0.0,0.0,0.0,0.0,0.0,0.0,0.0,0.0,0.0,0.0,-4.0113,-4.0113,-4.0113,-4.0146,-4.018,-4.018,-4.018,-4.018,-4.018,-4.0113,0.0,0.0,0.0,0.0,0.0,0.0,0.0,0.0,0.0,0.0,0.0,0.0,0.0,0.0,0.0,0.0,0.0,0.0,0.0,0.0,0.0,0.0,0.0,0.0,0.0,0.0,0.0,0.0,0.0,0.0,0.0,0.0,-4.6718,-4.563,-4.4919,-4.5635,-4.5196,-4.5258,-4.6786,-4.7022,0.0,0.0,0.0,0.0,0.0,0.0,0.0,0.0,0.0,0.0,0.0,0.0,0.0,-7.0229,-7.0128,-6.9417,-6.7963,-6.8571,-6.7861,-6.5628,-6.5561,-6.4478,-6.2381,-6.2279,-6.1467,-6.0114,-5.9979,-5.9573,0.0,0.0,0.0,0.0,-5.7814,-5.7814,-5.7814,-5.7746,-5.7712,-5.7746,-5.7707,-5.7051,-5.6305,0.0,0.0,0.0,0.0,0.0,0.0,0.0,0.0,0.0,0.0,-3.8159,-3.843,-3.9174,-3.9242,-3.9503,0.0,0.0,0.0,0.0,0.0,0.0,0.0,0.0,0.0,0.0,-4.0113,-4.0113,-4.0113,-4.0663,-4.0933,-4.0933,-4.0933,-4.0933,-4.0933,-4.035,-4.0113,0.0,0.0,0.0,0.0,0.0,0.0,0.0,0.0,0.0,0.0,-4.0113,-4.0113,0.0,0.0,0.0,0.0,0.0,0.0,0.0,0.0,-4.1847,-4.2388,-4.4181,0.0,-4.7695,-4.7526,-4.7086,0.0,0.0,0.0,0.0,0.0,0.0,0.0,0.0,-4.638,-4.6955,-4.8984,-4.9323,0.0,0.0,0.0,0.0,0.0,0.0,0.0,0.0,0.0,0.0,0.0,0.0,-7.0364,-7.0195,-6.9654,-6.891,-6.7929,-6.7557,-6.6542,-6.4884,-6.4309,-6.3463,-6.2381,-6.1197,-6.0452,-6.0047,-5.893,-5.8321,0.0,0.0,0.0,-5.7848,-5.7273,-5.707,-5.7002,-5.6461,-5.6224,-5.6185,-5.5854,-5.5796,-5.5895,0.0,0.0,0.0,0.0,0.0,0.0,0.0,0.0,0.0,0.0,0.0,0.0,0.0,0.0,0.0,0.0,0.0,0.0,0.0,0.0,0.0,0.0,0.0,0.0,-4.0113,-4.0113,-4.0113,-4.0113,-4.0519,-4.0696,-4.0696,-4.0696,-4.0696,-4.0663,-4.0282,-4.0113,0.0,0.0,0.0,0.0,-4.0113,0.0,0.0,0.0,0.0,0.0,-4.0113,-4.0113,0.0,-4.0493,-4.0899,-4.123,0.0,0.0,0.0,0.0,-4.0933,-4.1305,-4.1677,-4.3166,-4.4615,-4.4615,-4.4852,-4.5128,0.0,0.0,0.0,0.0,0.0,0.0,0.0,0.0,0.0,0.0,-4.9323,0.0,0.0,0.0,0.0,0.0,0.0,0.0,0.0,0.0,0.0,0.0,0.0,-7.0026,-6.9688,-6.8639,-6.7692,-6.6914,-6.5865,-6.5087,-6.4613,-6.3869,-6.2787,-6.1332,-6.0486,-5.9742,-5.9066,-5.8254,-5.7712,0.0,0.0,0.0,-5.6867,-5.6461,-5.6292,-5.6258,-5.5886,-5.5919,-5.6187,-5.5947,-5.5899,-5.604,0.0,0.0,0.0,0.0,0.0,0.0,0.0,0.0,0.0,0.0,0.0,0.0,0.0,0.0,0.0,0.0,0.0,0.0,0.0,0.0,0.0,0.0,0.0,-4.0113,-4.0113,-4.0113,-4.0113,-4.0113,-4.0316,-4.0451,-4.0451,-4.0451,-4.0316,-4.0113,-4.0113,-4.0113,0.0,0.0,0.0,0.0,-4.0113,0.0,0.0,0.0,0.0,0.0,0.0,0.0,0.0,-4.0832,-4.0696,-4.0383,-4.0865,0.0,0.0,0.0,0.0,0.0,-4.1305,-4.2929,-4.4581,-4.4445,-4.506,-4.55,-4.4784,0.0,0.0,0.0,0.0,0.0,0.0,0.0,0.0,0.0,0.0,0.0,0.0,0.0,0.0,0.0,0.0,0.0,0.0,0.0,0.0,0.0,0.0,-6.9519,-6.8808,-6.7421,-6.6237,-6.5392,-6.4038,-6.3599,-6.4106,-6.3497,-6.2144,-6.0114,-5.9979,-5.9268,-5.8051,-5.7814,-5.7374,-5.6799,0.0,0.0,-5.5716,-5.5581,-5.5547,-5.5547,-5.5547,-5.5919,-5.6494,-5.6731,-5.6489,-5.6254,0.0,0.0,0.0,0.0,0.0,0.0,0.0,0.0,0.0,0.0,0.0,0.0,0.0,0.0,0.0,0.0,0.0,0.0,0.0,0.0,0.0,0.0,-4.0113,-4.0113,-4.0113,-4.0113,-4.0113,-4.0113,-4.1365,-4.1948,-4.1948,-4.1948,-4.1297,-4.0113,-4.0113,-4.0113,-4.0113,-4.0113,-4.0113,-4.0113,-4.0113,0.0,0.0,0.0,0.0,0.0,0.0,0.0,0.0,-4.0248,-4.0595,-4.0933,-4.0451,0.0,0.0,0.0,0.0,0.0,-4.1779,-4.3362,-4.4445,-4.3775,-4.4654,-4.55,-4.4784,0.0,0.0,0.0,0.0,0.0,0.0,0.0,0.0,0.0,0.0,0.0,0.0,0.0,0.0,0.0,0.0,0.0,0.0,0.0,0.0,0.0,0.0,-6.7929,-6.7218,-6.6339,-6.5222,-6.3903,-6.3024,-6.2313,-6.1806,-6.1704,-6.1129,-6.008,-5.9471,-5.9066,-5.8795,-5.7543,-5.69,-5.6765,0.0,-5.5783,-5.5683,-5.504,-5.4769,-5.4769,-5.4769,-5.4837,-5.5074,-5.6325,-5.6354,-5.5909,0.0,0.0,0.0,0.0,0.0,0.0,0.0,0.0,0.0,0.0,0.0,0.0,0.0,0.0,0.0,0.0,0.0,0.0,0.0,0.0,0.0,0.0,-4.0113,-4.0113,-4.0113,-4.0113,-4.0113,-4.0113,-4.079,-4.1128,-4.1128,-4.1128,-4.0756,-4.0113,-4.0113,-4.0113,-4.0113,-4.0113,-4.0113,-4.0113,0.0,0.0,0.0,0.0,0.0,0.0,0.0,0.0,0.0,0.0,-4.035,-4.0553,-4.0214,0.0,0.0,0.0,0.0,0.0,-4.0925,-4.2489,-4.3876,-4.3477,-4.5133,-4.6583,-4.5432,0.0,0.0,0.0,0.0,0.0,0.0,0.0,0.0,0.0,0.0,0.0,0.0,0.0,0.0,0.0,0.0,0.0,0.0,0.0,0.0,0.0,0.0,0.0,-6.5662,-6.4512,-6.3429,-6.2347,-6.1569,-6.0791,-6.008,-6.008,-5.9877,-5.9505,-5.9167,-5.8795,-5.8355,-5.7306,-5.6596,-5.6156,0.0,-5.4871,-5.4499,-5.416,-5.4228,-5.46,-5.46,-5.5074,-5.5919,-5.7002,-5.6811,-5.6029,0.0,0.0,0.0,0.0,0.0,0.0,0.0,0.0,0.0,0.0,0.0,0.0,0.0,0.0,0.0,0.0,0.0,0.0,0.0,0.0,-4.0113,-4.0113,-4.0113,-4.0113,-4.0113,-4.0113,-4.0113,-4.0113,-4.0282,-4.0383,-4.0383,-4.0383,-4.0282,-4.0113,-4.0113,-4.0113,-4.0113,-4.0113,-4.0113,-4.0113,0.0,0.0,0.0,0.0,0.0,0.0,0.0,0.0,0.0,0.0,0.0,0.0,0.0,0.0,0.0,-4.0113,-4.0113,-4.018,-4.0519,-4.1847,-4.32,-4.3341,0.0,-4.7196,-4.6616,-4.6921,0.0,0.0,0.0,0.0,0.0,0.0,0.0,0.0,0.0,0.0,0.0,0.0,0.0,0.0,0.0,0.0,0.0,0.0,0.0,0.0,0.0,0.0,-6.414,-6.2854,-6.1704,-6.0791,-6.0013,-5.9235,-5.849,-5.8321,-5.8423,-5.8761,-5.8761,-5.8355,-5.7611,-5.6867,-5.6156,-5.5412,-5.4668,-5.4025,-5.3518,-5.3687,-5.4093,-5.4634,-5.4972,-5.5919,-5.7067,-5.7389,-5.6963,-5.6165,0.0,0.0,0.0,0.0,0.0,0.0,0.0,0.0,0.0,0.0,0.0,0.0,0.0,0.0,0.0,0.0,0.0,0.0,0.0,0.0,-4.0113,-4.0113,-4.0113,-4.0113,-4.0113,-4.0113,-4.0113,-4.0113,-4.0798,-4.1136,-4.1136,-4.1136,-4.0764,-4.0113,-4.0113,-4.0113,-4.0113,-4.0113,-4.0113,-4.0113,-4.0113,0.0,0.0,0.0,0.0,0.0,0.0,0.0,0.0,0.0,0.0,0.0,0.0,0.0,-4.0113,-4.0113,-4.0113,-4.0417,-4.1745,-4.2252,-4.2523,-4.3234,-4.4654,0.0,-4.8342,-4.8815,0.0,-5.0608,0.0,0.0,0.0,0.0,0.0,0.0,0.0,0.0,0.0,0.0,0.0,0.0,0.0,0.0,0.0,0.0,0.0,0.0,0.0,0.0,-6.2584,-6.1806,-6.0723,-5.9235,-5.8457,-5.7679,-5.6968,-5.6292,-5.663,-5.7983,-5.7983,-5.7577,-5.6867,-5.6122,-5.5378,-5.4634,-5.389,-5.3551,-5.3551,-5.4228,-5.4532,-5.4735,-5.6122,-5.7103,-5.7704,-5.6701,-5.6282,-5.6087,0.0,0.0,0.0,0.0,0.0,0.0,0.0,0.0,0.0,0.0,0.0,0.0,0.0,0.0,0.0,0.0,0.0,0.0,0.0,0.0,-4.0113,-4.0113,-4.0113,-4.0113,-4.0113,-4.0113,-4.0113,-4.0113,-4.0383,-4.0519,-4.0519,-4.0519,-4.0383,-4.0113,-4.0113,-4.0113,-4.0113,-4.0113,-4.0113,-4.0113,-4.0113,-4.0113,0.0,0.0,0.0,0.0,0.0,0.0,0.0,0.0,-4.0113,-4.0113,0.0,0.0,-4.0113,-4.0113,-4.0113,-4.0214,-4.079,-4.1948,-4.3064,-4.3308,-4.4215,0.0,0.0,-4.939,-5.0811,-5.2334,-5.3585,0.0,0.0,0.0,0.0,0.0,0.0,0.0,0.0,0.0,0.0,0.0,0.0,0.0,0.0,0.0,0.0,0.0,0.0,0.0,-6.0351,-5.9573,-5.893,-5.8321,-5.7171,-5.663,-5.6799,-5.6089,-5.5987,-5.6528,-5.6528,-5.6393,-5.6089,-5.5344,-5.4871,-5.4566,-5.3822,-5.3518,-5.3518,-5.3788,-5.4194,-5.4735,-5.6224,-5.7239,-5.7772,-5.6624,-5.5516,-5.4406,0.0,0.0,0.0,0.0,0.0,0.0,0.0,0.0,0.0,0.0,0.0,0.0,0.0,0.0,0.0,0.0,0.0,0.0,0.0,-4.0113,-4.0113,-4.0113,-4.0113,-4.0113,-4.0113,-4.0113,-4.0113,-4.0113,-4.0113,-4.0113,-4.0113,-4.0113,-4.0214,-4.0451,-4.0214,-4.0248,-4.0451,-4.0214,-4.0113,-4.0113,-4.0113,-4.0113,0.0,0.0,0.0,0.0,0.0,0.0,0.0,0.0,-4.0113,-4.0113,0.0,0.0,0.0,0.0,-4.0113,-4.0113,-4.0113,-4.1204,-4.2422,0.0,0.0,0.0,-4.8274,-5.0103,-5.1995,-5.4702,-5.548,0.0,0.0,0.0,0.0,0.0,0.0,0.0,0.0,0.0,0.0,0.0,0.0,0.0,0.0,0.0,0.0,0.0,0.0,0.0,0.0,-5.7611,-5.7205,-5.7205,-5.5987,-5.5615,-5.6089,-5.5378,-5.5006,-5.5006,-5.5006,-5.5141,-5.5344,-5.4837,-5.4465,-5.4228,-5.3721,-5.3518,-5.3518,-5.3754,-5.4431,-5.5378,-5.6427,-5.6889,-5.6925,-5.5797,-5.4478,-5.305,0.0,0.0,0.0,0.0,0.0,0.0,0.0,0.0,0.0,0.0,0.0,0.0,0.0,0.0,0.0,0.0,0.0,0.0,0.0,-4.0113,-4.0113,-4.0113,-4.0113,-4.0113,-4.0113,-4.0113,-4.0113,-4.0113,-4.0113,-4.0113,-4.0113,-4.0113,-4.0493,-4.117,-4.0451,-4.0493,-4.1136,-4.0417,-4.0113,-4.0113,-4.0113,-4.0113,-4.0113,0.0,0.0,0.0,0.0,0.0,0.0,0.0,-4.0113,-4.0113,0.0,0.0,0.0,0.0,-4.0113,-4.0113,-4.0113,-4.0113,-4.0316,0.0,0.0,0.0,0.0,0.0,0.0,0.0,0.0,-5.575,-5.5715,0.0,0.0,0.0,0.0,0.0,0.0,0.0,0.0,0.0,0.0,0.0,0.0,0.0,0.0,0.0,0.0,0.0,0.0,-5.6089,-5.5681,-5.5681,-5.4972,-5.4566,-5.46,-5.3856,-5.3518,-5.3518,-5.3518,-5.389,-5.4566,-5.4566,-5.4194,-5.3518,-5.3518,-5.3518,-5.3551,-5.4296,-5.5446,-5.6799,-5.6799,-5.6188,-5.5183,-5.4019,-5.3125,-5.2195,0.0,0.0,0.0,0.0,0.0,0.0,0.0,0.0,0.0,0.0,0.0,0.0,0.0,0.0,0.0,0.0,0.0,0.0,0.0,-4.0113,-4.0113,-4.0113,-4.0113,-4.0113,-4.0113,-4.0113,-4.0113,-4.0113,-4.0113,-4.0113,-4.0113,-4.0113,-4.0214,-4.0417,-4.0214,-4.0214,-4.0417,-4.018,-4.0113,-4.0146,-4.0663,-4.0561,-4.018,0.0,0.0,0.0,0.0,0.0,0.0,0.0,0.0,0.0,0.0,0.0,0.0,-4.0113,-4.0113,-4.0113,-4.0113,-4.0857,0.0,0.0,0.0,0.0,0.0,0.0,0.0,0.0,0.0,0.0,0.0,0.0,0.0,0.0,0.0,0.0,0.0,0.0,0.0,0.0,0.0,0.0,0.0,0.0,0.0,0.0,0.0,0.0,0.0,-5.5344,-5.5175,-5.5647,-5.4499,-5.4059,-5.4566,-5.3856,-5.3518,-5.3518,-5.3518,-5.3619,-5.3822,-5.3822,-5.3721,-5.3518,-5.3518,-5.3518,-5.3518,-5.3754,-5.4397,-5.5243,-5.5243,-5.5372,-5.5378,-5.3512,-5.2863,-5.2557,0.0,0.0,0.0,0.0,0.0,0.0,0.0,0.0,0.0,0.0,0.0,0.0,0.0,0.0,0.0,0.0,0.0,0.0,0.0,0.0,-4.0113,-4.0113,-4.0113,-4.0113,-4.0113,-4.0113,-4.0113,-4.0113,-4.0113,-4.0113,-4.0113,-4.0113,-4.0282,-4.0493,-4.0248,-4.0282,-4.0493,-4.0214,-4.0113,-4.018,-4.0899,-4.0764,-4.018,0.0,0.0,0.0,0.0,0.0,0.0,0.0,0.0,0.0,0.0,0.0,0.0,-4.0113,-4.0113,-4.0113,-4.0113,0.0,0.0,0.0,0.0,0.0,0.0,0.0,0.0,0.0,0.0,0.0,0.0,0.0,0.0,0.0,0.0,0.0,0.0,0.0,0.0,0.0,0.0,0.0,0.0,0.0,0.0,0.0,0.0,0.0,0.0,-5.4397,-5.4363,-5.4837,-5.3957,-5.3721,-5.416,-5.3721,-5.3518,-5.3518,-5.3518,-5.3518,-5.3518,-5.3518,-5.3518,-5.3518,-5.3518,-5.3518,-5.3518,-5.3518,-5.3923,-5.46,-5.46,-5.4628,-5.4467,-5.3182,-5.2617,-5.2327,0.0,0.0,0.0,0.0,0.0,0.0,0.0,0.0,0.0,0.0,0.0,0.0,0.0,0.0,0.0,0.0,0.0,0.0,0.0,0.0,0.0,-4.0113,-4.0113,-4.0113,-4.0113,-4.0113,-4.0113,-4.0113,-4.0113,-4.0113,-4.0113,0.0,-4.0485,-4.1068,0.0,-4.046,-4.1068,-4.0383,-4.0113,-4.018,-4.0899,-4.0764,-4.018,-4.0933,0.0,0.0,0.0,0.0,0.0,0.0,0.0,0.0,0.0,0.0,-4.0113,-4.0113,-4.0113,-4.0113,0.0,0.0,0.0,0.0,0.0,0.0,0.0,0.0,0.0,0.0,0.0,0.0,0.0,0.0,0.0,0.0,0.0,0.0,0.0,0.0,0.0,0.0,0.0,0.0,0.0,0.0,0.0,0.0,0.0,0.0,0.0,-5.3518,-5.3518,-5.3518,-5.3518,-5.3518,-5.3518,-5.3518,-5.3518,-5.3518,-5.3518,-5.3518,-5.3518,-5.3518,-5.3518,-5.3518,-5.3518,-5.3518,-5.3518,-5.3518,-5.389,-5.4499,-5.4499,-5.3911,-5.3023,-5.295,-5.2554,-5.1885,0.0,0.0,0.0,0.0,0.0,0.0,0.0,0.0,0.0,0.0,0.0,0.0,0.0,0.0,0.0,0.0,0.0,0.0,0.0,0.0,0.0,0.0,0.0,0.0,0.0,0.0,0.0,-4.0113,-4.0113,0.0,0.0,0.0,0.0,-4.035,0.0,-4.018,-4.035,-4.018,-4.0113,-4.018,-4.0899,-4.0764,-4.018,-4.0933,-4.073,0.0,0.0,0.0,0.0,0.0,0.0,0.0,-4.0113,-4.0113,-4.0113,-4.0113,-4.0113,-4.0248,0.0,0.0,0.0,0.0,0.0,0.0,0.0,0.0,0.0,0.0,0.0,0.0,0.0,0.0,0.0,0.0,0.0,0.0,0.0,0.0,0.0,0.0,0.0,0.0,0.0,0.0,0.0,0.0,0.0,0.0,-5.3518,-5.3518,-5.3518,-5.3518,-5.3518,-5.3518,-5.3518,-5.3518,-5.3518,0.0,-5.3518,-5.3518,-5.3518,-5.3518,-5.3518,-5.3518,-5.3518,-5.3518,-5.3518,-5.3518,-5.3585,-5.3754,-5.3754,-5.3585,-5.3311,-5.2473,-5.2551,-5.2973,0.0,0.0,0.0,0.0,0.0,0.0,0.0,0.0,0.0,0.0,0.0,0.0,0.0,0.0,0.0,0.0,0.0,0.0,0.0,0.0,0.0,0.0,0.0,0.0,0.0,0.0,0.0,0.0,0.0,0.0,0.0,0.0,0.0,-4.0629,0.0,-4.0629,-4.0595,-4.0248,-4.0113,-4.018,-4.0899,-4.0764,-4.018,-4.0933,-4.073,-4.0113,-4.0113,0.0,0.0,0.0,0.0,0.0,0.0,0.0,-4.0113,-4.0113,-4.0113,-4.018,0.0,0.0,0.0,0.0,0.0,0.0,0.0,0.0,0.0,0.0,0.0,0.0,0.0,0.0,0.0,0.0,0.0,0.0,0.0,0.0,0.0,0.0,0.0,0.0,0.0,0.0,0.0,0.0,0.0,-5.2773,-5.2435,-5.2401,-5.2401,-5.2401,-5.2401,-5.2401,-5.2401,-5.2401,-5.257,-5.2942,-5.2942,-5.3145,-5.3518,-5.3518,-5.3518,-5.3518,-5.3518,-5.3518,-5.3518,-5.3518,-5.3518,-5.3518,-5.3518,-5.3518,-5.3416,-5.287,-5.3041,-5.3416,0.0,0.0,0.0,0.0,0.0,0.0,0.0,0.0,0.0,0.0,0.0,0.0,0.0,0.0,0.0,0.0,0.0,0.0,0.0,0.0,0.0,0.0,0.0,0.0,0.0,0.0,0.0,0.0,0.0,0.0,0.0,0.0,0.0,-4.1204,0.0,-4.1339,-4.117,-4.0527,-4.0214,-4.0146,-4.0764,-4.0629,-4.018,-4.0764,-4.0629,-4.0113,-4.0113,-4.0113,-4.0113,-4.0113,0.0,0.0,0.0,0.0,-4.0113,-4.0113,-4.0113,-4.0146,0.0,0.0,0.0,0.0,0.0,0.0,0.0,0.0,0.0,0.0,0.0,0.0,0.0,0.0,0.0,0.0,0.0,0.0,0.0,0.0,0.0,0.0,0.0,0.0,0.0,0.0,0.0,0.0,0.0,-5.186,-5.1219,-5.1185,-5.1185,-5.1185,-5.1185,-5.1185,-5.1185,-5.1185,-5.1522,-5.2131,-5.2131,-5.2469,-5.3112,-5.3112,-5.3247,-5.3518,-5.3518,-5.3518,-5.3518,-5.3518,-5.3518,-5.3518,-5.3518,-5.3518,-5.3518,-5.3518,-5.3518,-5.3518,0.0,0.0,0.0,0.0,0.0,0.0,0.0,0.0,0.0,0.0,0.0,0.0,0.0,0.0,0.0,0.0,0.0,0.0,0.0,0.0,0.0,0.0,-4.0113,0.0,0.0,0.0,0.0,0.0,0.0,0.0,0.0,0.0,0.0,-4.1238,0.0,0.0,-4.1204,-4.1102,-4.0663,-4.0113,-4.0214,-4.018,-4.0113,-4.0214,-4.018,-4.0113,-4.0113,-4.0113,-4.0113,-4.0113,-4.0113,0.0,0.0,0.0,-4.0113,-4.0113,-4.0113,-4.0248,0.0,0.0,0.0,0.0,0.0,0.0,0.0,0.0,0.0,0.0,0.0,0.0,0.0,0.0,0.0,0.0,0.0,0.0,0.0,0.0,0.0,0.0,0.0,0.0,0.0,0.0,0.0,0.0,-5.1352,-5.1286,-5.1217,-5.1185,-5.1185,-5.1185,-5.1185,-5.1185,-5.1185,-5.1185,-5.1219,-5.1352,-5.1352,-5.142,-5.1522,-5.1522,-5.2266,-5.3518,-5.3518,-5.3518,-5.3518,-5.3518,-5.3518,-5.3518,-5.3518,-5.3518,-5.3518,-5.3518,-5.3518,-5.3518,0.0,0.0,0.0,0.0,0.0,0.0,0.0,0.0,0.0,0.0,0.0,0.0,0.0,0.0,0.0,-3.7212,0.0,0.0,0.0,0.0,0.0,-4.0113,-4.0113,-4.0113,-4.0113,0.0,0.0,0.0,0.0,0.0,0.0,-4.1441,-4.2286,0.0,0.0,0.0,0.0,-4.1576,-4.0764,-4.0113,-4.0113,-4.0113,-4.0113,-4.0113,-4.0113,-4.0113,-4.0113,-4.0113,-4.0113,-4.0113,-4.0113,-4.0113,-4.0113,0.0,0.0,0.0,-4.0113,0.0,0.0,0.0,0.0,0.0,0.0,0.0,0.0,0.0,0.0,0.0,0.0,0.0,0.0,0.0,0.0,0.0,0.0,0.0,0.0,0.0,0.0,0.0,0.0,0.0,0.0,0.0,0.0,0.0,-5.0574,-5.0405,-4.9999,-4.9965,-4.9965,-4.9965,-4.9965,-4.9965,-4.9965,-4.9965,-5.0168,-5.0574,-5.1014,-5.1185,-5.1185,-5.1185,-5.1589,-5.2232,-5.2672,-5.2841,-5.2875,-5.3315,-5.3518,-5.3518,-5.3518,-5.3518,-5.3518,-5.3518,-5.3518,-5.3518,0.0,0.0,0.0,0.0,0.0,0.0,0.0,0.0,0.0,0.0,0.0,0.0,0.0,0.0,0.0,0.0,-3.7483,0.0,0.0,0.0,0.0,-4.0113,-4.0113,-4.0113,-4.0113,0.0,0.0,0.0,0.0,0.0,-4.0417,-4.1677,-4.3098,0.0,-4.4818,0.0,0.0,0.0,0.0,0.0,-4.0248,-4.0113,-4.0113,-4.0113,-4.0113,-4.0113,-4.0113,-4.0113,-4.0113,-4.0113,-4.0113,-4.0113,-4.0113,-4.0113,0.0,0.0,0.0,0.0,0.0,0.0,0.0,0.0,0.0,0.0,0.0,0.0,0.0,0.0,0.0,0.0,0.0,0.0,0.0,0.0,0.0,0.0,0.0,0.0,0.0,0.0,0.0,0.0,0.0,0.0,0.0,0.0,-4.9255,-4.9086,-4.8748,-4.8545,-4.8545,-4.8714,-4.8545,-4.8443,-4.8443,-4.8443,-4.8815,-4.956,-5.0101,-5.0441,-5.0642,-5.0642,-5.0642,-5.071,-5.1623,-5.2029,-5.2097,-5.2875,-5.3213,-5.3213,-5.3416,-5.3518,-5.3518,-5.3518,-5.3518,-5.3518,0.0,0.0,0.0,0.0,0.0,0.0,0.0,0.0,0.0,0.0,0.0,0.0,-3.56,-3.5633,-3.596,-3.6728,-3.7483,-3.8497,-3.9943,-4.0079,0.0,-4.0113,-4.0113,0.0,-4.0113,0.0,0.0,0.0,0.0,0.0,-4.117,-4.1948,-4.3098,-4.4649,-4.5331,-4.4823,-4.3375,0.0,0.0,0.0,0.0,0.0,0.0,0.0,0.0,0.0,-4.0113,-4.0113,-4.0113,-4.0113,-4.0113,-4.0113,-4.0113,-4.0113,-4.0113,0.0,0.0,0.0,0.0,0.0,0.0,0.0,0.0,0.0,0.0,0.0,0.0,0.0,0.0,0.0,0.0,0.0,0.0,0.0,0.0,0.0,0.0,0.0,0.0,0.0,0.0,0.0,0.0,0.0,0.0,0.0,-4.6955,-4.7259,-4.7906,-4.7293,-4.7225,-4.7939,-4.7293,-4.6921,-4.6921,-4.6921,-4.7293,-4.8007,-4.8041,-4.8443,-4.912,-4.912,-4.912,-4.9187,-5.0642,-5.1285,-5.1319,-5.2063,-5.2367,-5.2435,-5.3213,-5.3518,-5.3518,-5.3518,-5.3518,-5.3518,0.0,0.0,0.0,0.0,0.0,0.0,0.0,0.0,0.0,0.0,0.0,0.0,0.0,-3.56,-3.5701,-3.5994,-3.7178,-3.8125,-3.8633,-3.9571,0.0,-4.0113,-4.0113,-4.0113,-4.0113,0.0,0.0,0.0,0.0,-4.0248,-4.0493,-4.1238,-4.1644,-4.1805,-4.4012,-4.4688,-4.4113,-4.3098,0.0,0.0,0.0,0.0,0.0,0.0,0.0,0.0,0.0,-4.0417,-4.0798,-4.0798,-4.0798,-4.0798,-4.0798,-4.0485,-4.0113,-4.0113,-4.0113,0.0,0.0,0.0,0.0,0.0,0.0,0.0,0.0,0.0,0.0,0.0,0.0,0.0,0.0,0.0,0.0,0.0,0.0,0.0,0.0,0.0,0.0,0.0,0.0,0.0,0.0,0.0,0.0,0.0,0.0,-4.6921,-4.7192,-4.6921,-4.6921,-4.7192,-4.6921,-4.6786,-4.6786,-4.6786,-4.6921,-4.7192,-4.7669,-4.8041,-4.8308,-4.8781,-4.9018,-4.9052,-4.956,-5.0067,-5.0541,-5.1285,-5.1589,-5.1623,-5.1928,-5.2334,-5.2739,-5.2739,-5.3078,-5.3518,0.0,0.0,0.0,0.0,0.0,0.0,0.0,0.0,0.0,0.0,0.0,0.0,0.0,0.0,-3.5802,-3.6309,-3.729,-3.8125,-3.8599,-3.9571,-4.0113,-4.0113,-4.0113,-4.0113,0.0,0.0,0.0,0.0,0.0,0.0,0.0,-4.0595,-4.0696,-4.0561,-4.2557,-4.3707,0.0,0.0,0.0,-4.2922,0.0,0.0,-4.2252,0.0,0.0,0.0,0.0,0.0,0.0,-4.1001,-4.0832,-4.0832,-4.0832,-4.0493,-4.0113,-4.0113,-4.0113,0.0,0.0,0.0,0.0,0.0,0.0,0.0,0.0,0.0,0.0,0.0,0.0,0.0,0.0,0.0,0.0,0.0,0.0,0.0,0.0,0.0,0.0,0.0,0.0,0.0,0.0,0.0,0.0,0.0,0.0,0.0,-4.6413,-4.6177,-4.6041,-4.6041,-4.6041,-4.6041,-4.6041,-4.6041,-4.6177,-4.6447,-4.6921,-4.7293,-4.7564,-4.8037,-4.8274,-4.8274,-4.8511,-4.9052,-4.9796,-5.0541,-5.0845,-5.0879,-5.1083,-5.1522,-5.1928,-5.1928,-5.2435,-5.3112,0.0,0.0,0.0,0.0,0.0,0.0,0.0,0.0,0.0,-3.3423,0.0,0.0,0.0,0.0,0.0,-3.7787,-3.7922,-3.8531,-3.9977,-4.0079,-4.0113,-4.0113,0.0,0.0,0.0,0.0,0.0,0.0,0.0,0.0,0.0,0.0,-4.0485,-4.117,-4.1204,-4.2016,-4.3341,0.0,-4.3809,-4.4344,0.0,-4.1907,-4.4513,0.0,0.0,0.0,-4.3916,-4.2963,0.0,-4.0688,0.0,0.0,0.0,-4.0113,-4.0113,-4.0113,-4.0113,0.0,0.0,0.0,0.0,0.0,0.0,0.0,0.0,0.0,0.0,0.0,0.0,0.0,0.0,0.0,0.0,0.0,0.0,0.0,0.0,0.0,0.0,0.0,0.0,0.0,0.0,0.0,0.0,0.0,-4.4547,-4.4823,-4.5568,-4.4925,-4.4547,-4.4547,-4.4547,-4.4547,-4.4581,-4.4581,-4.4925,-4.5669,-4.5703,-4.6075,-4.6752,-4.6786,-4.6786,-4.6819,-4.7564,-4.8274,-4.8984,-4.9729,-5.0067,-5.0135,-5.0879,-5.1151,-5.1183,-5.1217,-5.1691,-5.23,0.0,0.0,0.0,0.0,0.0,0.0,0.0,0.0,0.0,0.0,0.0,0.0,-3.56,-3.6129,-3.684,-3.7821,-3.8396,-3.887,-3.9276,-3.9808,-4.0113,-4.0113,-4.0113,0.0,0.0,0.0,0.0,0.0,0.0,0.0,0.0,0.0,0.0,0.0,-4.0967,-4.1441,-4.1813,-4.1813,0.0,-4.4344,-4.1297,-4.1907,0.0,0.0,0.0,0.0,0.0,-4.3274,-4.3031,0.0,-4.2489,-4.232,0.0,-4.0553,-4.0113,-4.0113,0.0,0.0,-4.0113,0.0,0.0,0.0,0.0,0.0,0.0,0.0,0.0,0.0,0.0,0.0,0.0,0.0,0.0,0.0,0.0,0.0,0.0,0.0,0.0,0.0,0.0,0.0,0.0,0.0,0.0,0.0,-4.2956,-4.3031,-4.3234,-4.3031,-4.2956,-4.2956,-4.2956,-4.32,-4.3741,-4.3741,-4.4147,-4.4891,-4.5466,-4.5805,-4.6007,-4.6549,-4.6786,-4.6819,-4.7022,-4.7225,-4.7496,-4.8781,-4.9289,-4.9323,-4.9526,-4.9932,-5.0473,-5.1014,-5.1691,-5.2367,0.0,0.0,0.0,0.0,0.0,0.0,0.0,0.0,0.0,0.0,0.0,0.0,-3.6062,-3.6772,-3.755,-3.8294,-3.8734,-3.9106,-3.9436,-3.9876,-4.0113,-4.0113,-4.0113,-4.0113,0.0,0.0,0.0,0.0,0.0,0.0,0.0,0.0,0.0,0.0,0.0,0.0,0.0,0.0,0.0,0.0,-4.106,0.0,0.0,-4.3234,-4.347,0.0,0.0,0.0,-4.4181,-4.2929,-4.2462,0.0,0.0,0.0,0.0,0.0,0.0,0.0,0.0,0.0,0.0,0.0,0.0,0.0,-3.9639,-3.9749,0.0,0.0,0.0,0.0,0.0,0.0,0.0,0.0,0.0,0.0,0.0,0.0,0.0,0.0,0.0,0.0,0.0,-4.2286,-4.2286,-4.2286,-4.2286,-4.2286,-4.2286,-4.2286,-4.2286,-4.2286,-4.2286,-4.2489,-4.2963,-4.3267,-4.3639,-4.4113,-4.4891,-4.5229,-4.5263,-4.5669,-4.5872,-4.5872,-4.621,-4.6346,-4.6447,-4.7936,-4.8545,-4.8578,-4.8883,-4.9255,-4.9695,-5.0135,-5.0744,-5.1454,0.0,0.0,0.0,0.0,0.0,0.0,0.0,0.0,0.0,0.0,0.0,-3.6062,-3.6829,-3.7584,-3.8328,-3.9039,-3.9106,-3.9377,-4.0079,-4.0113,-4.0113,-4.0113,-4.0113,-4.0113,-4.0113,0.0,0.0,0.0,0.0,0.0,0.0,0.0,0.0,0.0,0.0,0.0,0.0,0.0,0.0,-4.1914,-4.062,-4.2313,0.0,0.0,-4.5669,-4.7394,-4.6143,-4.5669,-4.5162,-4.2388,-4.1271,0.0,0.0,0.0,0.0,0.0,-4.0629,0.0,0.0,0.0,0.0,0.0,0.0,0.0,-3.9039,-3.8497,-3.799,0.0,0.0,0.0,0.0,0.0,0.0,0.0,0.0,0.0,0.0,0.0,0.0,0.0,0.0,0.0,-4.2049,-4.2049,-4.2049,-4.2049,-4.2049,-4.2049,-4.2049,-4.2049,-4.2049,-4.2049,-4.2049,-4.2083,-4.2185,-4.2828,-4.3172,-4.3274,-4.4079,-4.4479,-4.4479,-4.4581,-4.4615,-4.4649,-4.5297,-4.5568,-4.5703,-4.709,-4.7736,-4.7973,-4.8714,-4.9018,-4.9018,-4.9086,-4.9526,-5.0101,-3.2349,0.0,0.0,0.0,0.0,0.0,0.0,0.0,0.0,0.0,0.0,0.0,-3.7584,-3.8328,-3.9073,-3.9842,-3.991,-3.9943,-4.0079,-4.0113,-4.0113,-4.0113,-4.0113,-4.0113,-4.0113,-3.9977,0.0,0.0,0.0,0.0,0.0,0.0,0.0,0.0,0.0,0.0,0.0,0.0,0.0,-4.0519,-4.0214,0.0,-4.4682,-4.3267,-4.3802,-4.5263,-4.5602,-4.5331,-4.4621,-4.3403,-4.1779,-4.0519,0.0,0.0,0.0,-4.0899,0.0,0.0,0.0,0.0,0.0,0.0,0.0,0.0,-3.9276,-3.887,-3.8633,0.0,0.0,0.0,0.0,0.0,0.0,0.0,0.0,0.0,0.0,0.0,0.0,0.0,0.0,0.0,-4.0519,-4.0519,-4.0519,-4.0519,-4.0519,-4.0519,-4.0519,-4.0519,-4.0519,-4.0519,-4.0519,-4.0798,-4.1407,-4.1576,-4.1948,-4.2523,-4.3301,-4.3639,-4.3673,-4.4282,-4.4615,-4.4615,-4.475,-4.479,-4.4857,-4.5771,-4.6853,-4.7973,-4.8714,-4.9018,-4.9086,-4.9661,-4.9965,-5.0168,-3.2568,0.0,0.0,0.0,0.0,0.0,0.0,0.0,0.0,0.0,0.0,0.0,-3.8396,-3.9106,-3.9706,-4.0079,-4.0113,-4.0113,-4.0113,-4.0113,-4.0113,-4.0113,-4.0113,-4.0113,-4.0113,-4.0113,0.0,0.0,0.0,0.0,0.0,0.0,0.0,0.0,0.0,0.0,0.0,0.0,-4.0113,-4.0113,-4.0113,0.0,-4.2794,-4.2049,-4.2455,-4.3498,-4.3876,-4.3538,-4.2895,-4.2861,-4.188,0.0,-4.1094,-4.1196,-4.1128,0.0,-4.0629,-4.0561,0.0,0.0,0.0,-4.018,0.0,0.0,0.0,-3.843,-3.7889,0.0,0.0,0.0,0.0,0.0,0.0,0.0,0.0,0.0,0.0,0.0,0.0,0.0,0.0,0.0,-4.0079,-4.0113,-4.0113,-4.0113,-4.0113,-4.0113,-4.0113,-4.0113,-4.0113,-4.0113,-4.0113,-4.0282,-4.0629,-4.1035,-4.1407,-4.1745,-4.2895,-4.3375,-4.3409,-4.4215,-4.4615,-4.4615,-4.4615,-4.4615,-4.4682,-4.5399,-4.6143,-4.6921,-4.8037,-4.868,-4.9052,-4.9424,-4.956,-4.9593,-3.2695,0.0,0.0,0.0,0.0,0.0,0.0,0.0,0.0,0.0,0.0,0.0,0.0,-3.9673,-4.018,-4.0316,-4.018,-4.018,-4.0316,-4.018,-4.0113,-4.0113,-4.0113,-4.0113,-4.0113,-4.0113,-4.0113,0.0,0.0,0.0,0.0,0.0,0.0,0.0,0.0,0.0,0.0,0.0,0.0,-4.0113,0.0,-4.0527,-4.1204,-4.1204,-4.1644,-4.2286,-4.2286,-4.1813,-4.1305,-4.188,-4.161,-4.0899,-4.0426,-4.1001,0.0,0.0,0.0,0.0,0.0,0.0,0.0,0.0,0.0,-3.9343,0.0,0.0,0.0,0.0,0.0,0.0,0.0,0.0,0.0,0.0,0.0,0.0,0.0,0.0,0.0,0.0,0.0,0.0,0.0,-4.0011,-4.0113,-4.0113,-4.0113,-4.0113,-4.0113,-4.0113,-4.0113,-4.0113,-4.0113,-4.0113,-4.0113,-4.0696,-4.1001,-4.1001,-4.2354,-4.297,-4.3003,-4.3809,-4.4242,-4.4378,-4.4378,-4.4479,-4.4649,-4.5229,-4.5568,-4.5872,-4.7297,-4.8244,-4.8815,-4.8951,-4.9018,-4.9018,-3.3196,-3.2416,0.0,0.0,0.0,0.0,0.0,0.0,0.0,0.0,0.0,0.0,0.0,-3.9673,-4.0383,-4.1035,-4.0485,-4.0383,-4.1035,-4.0485,-4.0113,-4.0113,-4.0113,-4.0113,-4.0113,-4.0113,-4.0113,0.0,0.0,0.0,0.0,0.0,0.0,0.0,-4.0113,0.0,0.0,0.0,-4.0113,0.0,-4.0113,-4.0527,0.0,-4.1204,-4.1644,-4.2286,-4.2286,-4.1813,-4.1204,0.0,-4.0832,-4.0316,0.0,-4.073,-4.0451,-4.0933,0.0,0.0,0.0,0.0,0.0,0.0,-4.0527,0.0,0.0,0.0,-3.8599,-3.8024,0.0,0.0,0.0,0.0,0.0,0.0,0.0,0.0,0.0,0.0,0.0,0.0,0.0,0.0,0.0,-3.974,-4.0113,-4.0113,-4.0113,-4.0113,-4.0113,-4.0113,-4.0113,-4.0113,-4.0113,-4.0113,-4.0113,-4.018,-4.0214,-4.0248,-4.1068,-4.1474,-4.1474,-4.2219,-4.2929,-4.3511,-4.3511,-4.3944,-4.4615,-4.4716,-4.5094,-4.5872,-4.7297,-4.7939,-4.8075,-4.8781,-4.9018,-4.9018,-3.3211,-3.3263,0.0,0.0,0.0,0.0,0.0,0.0,0.0,0.0,0.0,0.0,0.0,0.0,-4.0815,-4.1018,-4.0857,-4.0696,-4.0561,-4.0282,-4.0113,-4.0113,-4.0113,-4.0113,-4.0113,-4.0113,-4.0113,-4.0113,-4.0113,0.0,0.0,0.0,0.0,0.0,-4.0113,0.0,-4.0138,0.0,-4.0392,0.0,0.0,0.0,0.0,-4.0561,-4.073,-4.1027,-4.1027,-4.0798,-4.0561,0.0,-4.0383,0.0,0.0,0.0,0.0,-4.046,0.0,0.0,0.0,0.0,0.0,0.0,0.0,0.0,-3.9774,0.0,-3.9039,0.0,0.0,0.0,0.0,0.0,0.0,0.0,-3.569,0.0,0.0,0.0,0.0,0.0,0.0,0.0,0.0,0.0,0.0,0.0,-3.9469,-3.9673,-4.0079,-4.0113,-4.0113,-4.0113,-4.0113,-4.0113,-4.0113,-4.0113,-4.0113,-4.0113,-4.0832,-4.1204,-4.1238,-4.1948,-4.2455,-4.276,-4.276,-4.32,-4.391,-4.391,-4.435,-4.5162,-4.621,-4.7158,-4.7939,-4.8274,-4.8646,-4.8951,-3.3706,0.0,0.0,0.0,0.0,0.0,0.0,0.0,0.0,0.0,0.0,0.0,-4.0937,-4.1285,0.0,-4.2091,-4.1862,-4.1596,0.0,-4.0656,-4.0392,-4.0563,-4.0392,-4.0353,-4.0353,-4.0353,-4.0294,0.0,0.0,0.0,0.0,0.0,0.0,0.0,0.0,-4.0254,-4.0163,0.0,0.0,-4.0129,-4.0662,-4.0696,-4.0294,-4.0154,-4.0113,-4.0113,-4.0113,-4.0113,-4.0113,-4.0113,-4.0113,0.0,-4.0113,0.0,-4.0113,0.0,0.0,0.0,-4.0113,0.0,0.0,0.0,0.0,0.0,0.0,0.0,0.0,0.0,0.0,0.0,0.0,0.0,0.0,0.0,0.0,0.0,0.0,0.0,0.0,0.0,0.0,0.0,0.0,0.0,0.0,-3.8667,-3.887,-3.9208,-3.9774,-4.0011,-4.0113,-4.0113,-4.0113,-4.0113,-4.0113,-4.0113,-4.0113,-4.0113,-4.0629,-4.0899,-4.0933,-4.1441,-4.1813,-4.2016,-4.2185,-4.2726,-4.3409,-4.3639,-4.4079,-4.4682,-4.5399,-4.638,-4.7297,-4.753,-4.8071,-4.8612,-3.494,-3.4011,0.0,0.0,0.0,0.0,0.0,0.0,0.0,0.0,0.0,0.0,0.0,0.0,0.0,0.0,0.0,-4.3367,-4.3928,0.0,-4.115,-4.1725,-4.1183,-4.0897,-4.0966,-4.0897,-4.0897,0.0,0.0,0.0,0.0,0.0,0.0,0.0,0.0,-4.0577,-4.0154,-4.1286,-4.1105,-4.0129,-4.0662,-4.0897,-4.0827,0.0,-4.0113,-4.0113,-4.0113,0.0,0.0,-4.0113,-4.0113,0.0,0.0,0.0,0.0,0.0,0.0,0.0,0.0,0.0,0.0,-4.0113,0.0,0.0,0.0,0.0,-4.0079,0.0,0.0,0.0,0.0,0.0,0.0,0.0,0.0,0.0,0.0,0.0,0.0,0.0,0.0,0.0,0.0,0.0,0.0,-3.7922,-3.8599,-3.9005,-3.9039,-3.9706,-4.0113,-4.0113,-4.0113,-4.0113,-4.0113,-4.0113,-4.0113,-4.0113,-4.0113,-4.0146,-4.0146,-4.018,-4.0561,-4.1271,-4.1982,-4.2726,-4.3443,-4.4215,-4.4581,-4.4682,-4.5399,-4.5737,-4.5872,-4.6583,-4.7293,-4.7906,0.0,0.0,0.0,0.0,0.0,0.0,0.0,-3.8365,0.0,0.0,-4.1202,0.0,0.0,-4.5235,-4.5555,0.0,0.0,-4.5023,-4.4227,-4.2988,0.0,-4.1789,-4.1582,-4.1508,-4.153,-4.1508,-4.1508,0.0,0.0,0.0,0.0,0.0,0.0,0.0,0.0,-4.0967,0.0,0.0,0.0,0.0,0.0,-4.1452,-4.2153,0.0,-4.0648,-4.0648,-4.0648,-4.0417,0.0,-4.0113,-4.0113,-4.0113,-4.0113,-4.0113,-4.0113,-4.0113,-4.0113,-4.0113,0.0,0.0,-4.0113,-4.0113,0.0,0.0,0.0,0.0,0.0,0.0,0.0,0.0,0.0,0.0,0.0,0.0,0.0,0.0,0.0,0.0,0.0,0.0,0.0,0.0,0.0,0.0,0.0,-3.711,-3.7405,-3.798,-3.8937,-3.9242,-3.9605,-4.0079,-4.0113,-4.0113,-4.0113,-4.0113,-4.0113,-4.0113,-4.0113,-4.0113,-4.0113,-4.0113,-4.0248,-4.0485,-4.0756,-4.1271,-4.2016,-4.276,-4.3369,-4.3876,-4.4654,-4.4959,-4.506,-4.5805,-4.6549,-4.7158,-3.7309,0.0,0.0,0.0,0.0,0.0,0.0,0.0,0.0,0.0,-4.3263,0.0,-4.7332,0.0,-4.7702,0.0,-4.7787,-4.6767,-4.5716,-4.4471,0.0,-4.2853,-4.2655,-4.2409,-4.2139,-4.2103,-4.2103,0.0,0.0,-4.2206,0.0,0.0,0.0,0.0,0.0,0.0,-4.0089,0.0,-4.2185,0.0,0.0,-4.1767,0.0,0.0,-4.1301,-4.1301,0.0,-4.0392,-4.0113,-4.0113,-4.0113,-4.0113,-4.0113,-4.0113,-4.0113,-4.0113,-4.0113,-4.0113,-4.0113,-4.0113,0.0,-4.0113,-4.0113,0.0,-4.0113,0.0,-4.0113,0.0,0.0,0.0,0.0,0.0,0.0,0.0,0.0,0.0,0.0,-3.56,0.0,0.0,0.0,0.0,0.0,0.0,-3.5802,-3.6332,-3.666,-3.7235,0.0,0.0,-3.9208,-3.9706,-3.9977,-4.0113,-4.0113,-4.0113,-4.0113,-4.0113,-4.0113,-4.0113,-4.0113,-4.0113,-4.0113,-4.0113,-4.0383,-4.0764,-4.1271,-4.2286,-4.2963,-4.3477,-4.4282,-4.4615,-4.4682,-4.5128,-4.5771,-4.6447,-3.7566,0.0,0.0,0.0,-3.935,0.0,0.0,0.0,-4.2682,0.0,-4.4509,-4.5862,-4.8605,-4.8778,-4.9278,-5.0778,-4.9516,-4.8539,-4.8378,-4.6379,0.0,0.0,-4.4195,-4.3546,-4.2768,-4.2732,-4.2732,-4.2732,0.0,0.0,0.0,0.0,0.0,0.0,-4.2315,0.0,-3.9971,-4.2465,-4.2544,-4.107,-4.1603,-4.1874,-4.1909,-4.1789,-4.1955,-4.2053,-4.065,-4.0138,-4.0113,-4.0113,-4.0113,-4.0113,-4.0113,-4.0113,-4.0113,-4.0113,-4.0113,-4.0113,-4.0113,-4.0113,-4.0113,-4.0113,-4.0113,0.0,0.0,0.0,-4.0113,0.0,0.0,0.0,0.0,0.0,0.0,0.0,0.0,0.0,0.0,0.0,0.0,0.0,0.0,0.0,0.0,-3.56,-3.56,-3.56,-3.6299,0.0,0.0,0.0,-3.8903,-3.9005,-3.9673,-4.0079,-4.0113,-4.0113,-4.0113,-4.0113,-4.0113,-4.0113,-4.0113,-4.0113,-4.0113,-4.0146,-4.0832,-4.117,-4.1271,-4.2726,-4.3274,-4.3375,-4.4215,-4.4581,-4.4615,-4.4615,-4.5026,-4.5737,-3.8395,-3.9019,-3.957,0.0,-3.9276,-3.9606,0.0,0.0,0.0,0.0,-4.6868,-4.8006,-5.1636,-5.152,-5.1547,-5.2501,-5.1135,0.0,0.0,0.0,0.0,-4.4764,-4.4583,-4.4126,-4.3322,-4.3286,-4.3286,-4.3286,0.0,0.0,-4.3461,0.0,0.0,0.0,0.0,0.0,-4.1378,-4.2868,-4.3231,-4.281,-4.256,-4.3057,-4.3738,0.0,-4.1831,-4.263,-4.1197,-4.0441,-4.0113,-4.0113,-4.0113,-4.0113,-4.0113,-4.0113,-4.0113,-4.0113,-4.0113,-4.0113,-4.0113,-4.0113,-4.0113,-4.0113,-4.0113,-4.0113,0.0,0.0,0.0,0.0,0.0,0.0,0.0,0.0,0.0,0.0,0.0,0.0,0.0,0.0,0.0,-3.64,0.0,0.0,0.0,-3.56,-3.56,-3.56,-3.5769,0.0,0.0,0.0,0.0,-3.8971,-3.9174,-3.9571,-4.0079,-4.0113,-4.0113,-4.0113,-4.0113,-4.0113,-4.0113,-4.0113,-4.0113,-4.0113,-4.0316,-4.0383,-4.0451,-4.1373,-4.1779,-4.1914,-4.32,-4.4079,-4.4615,-4.4615,-4.4716,-4.4919,-3.9166,0.0,0.0,-4.0891,0.0,0.0,-4.2543,-4.2727,0.0,-4.7333,-4.8068,0.0,-5.1862,-5.2412,-5.2601,-5.2669,-5.1536,0.0,-4.9647,0.0,0.0,-4.5296,-4.5223,-4.4672,-4.3551,-4.3515,0.0,-4.3515,0.0,0.0,-4.2947,0.0,0.0,0.0,0.0,-4.1869,0.0,-4.2594,-4.3286,-4.348,-4.3178,-4.3342,0.0,-4.224,-4.2015,-4.2355,-4.1582,-4.0791,-4.0113,-4.0113,-4.0113,-4.0113,-4.0113,-4.0113,-4.0113,-4.0113,-4.0113,-4.0113,-4.0113,-4.0113,-4.0113,-4.0113,-4.0113,-4.0113,-4.0113,-4.0113,-4.0113,0.0,-3.9842,-3.9402,0.0,0.0,0.0,0.0,0.0,0.0,0.0,0.0,0.0,0.0,-3.5893,0.0,0.0,-3.56,-3.56,-3.56,-3.56,0.0,0.0,0.0,0.0,-3.8497,-3.8836,-3.9368,-4.0079,-4.0113,-4.0113,-4.0113,-4.0113,-4.0113,-4.0113,-4.0113,-4.0113,-4.0113,-4.0113,-4.0113,-4.018,-4.0899,-4.1407,-4.1847,-4.3335,-4.4181,-4.4615,-4.4615,-4.4615,-4.4615,-3.9937,0.0,0.0,0.0,0.0,0.0,0.0,-4.4415,0.0,-4.7039,0.0,-4.9904,-5.0729,-5.205,-5.2601,-5.1903,0.0,-5.0288,-4.95,-4.8636,-4.7425,-4.581,-4.5736,-4.5039,-4.3551,-4.3515,-4.3441,0.0,0.0,0.0,0.0,0.0,0.0,0.0,0.0,0.0,0.0,-4.2011,-4.2978,-4.3515,-4.3515,-4.3214,-4.2789,-4.2713,-4.2362,-4.1916,-4.1832,-4.115,-4.0328,-4.0328,-4.0279,-4.0204,-4.0204,-4.0154,-4.0113,-4.0113,-4.0113,-4.0113,-4.0113,-4.0113,-4.0113,-4.0113,-4.0113,-4.0113,-4.0113,-4.0113,-4.0113,-4.0113,-3.9605,-3.887,-3.8058,0.0,0.0,0.0,0.0,0.0,0.0,0.0,0.0,0.0,0.0,0.0,0.0,0.0,0.0,0.0,0.0,0.0,0.0,0.0,0.0,-3.7889,-3.8531,-3.9276,-4.0248,-4.0146,-4.0146,-4.0248,-4.0146,-4.0113,-4.0113,-4.0113,-4.0113,-4.0113,-4.0113,-4.0113,-4.0146,-4.0798,-4.1542,-4.2422,-4.3802,-4.4412,-4.4615,-4.4615,-4.4615,-4.4615,-4.0985,0.0,0.0,0.0,0.0,-4.4562,-4.5369,-4.559,-4.6287,-4.7902,-4.8967,-4.9904,-5.0729,-5.1059,-5.1169,-5.1022,-5.0251,0.0,0.0,0.0,0.0,-4.4984,-4.4929,-4.4488,-4.3515,-4.3515,-4.3167,0.0,0.0,0.0,0.0,0.0,0.0,0.0,0.0,0.0,-4.1948,-4.2241,0.0,-4.3515,-4.3515,-4.3426,-4.3303,-4.2846,-4.2635,-4.2498,-4.1979,-4.1682,-4.1508,-4.1508,-4.1173,-4.0756,-4.0756,-4.0466,-4.0113,-4.0113,-4.0113,-4.0113,-4.0113,-4.0113,-4.0113,-4.0113,-4.0113,-4.0113,-4.0113,-4.0113,-4.0113,-4.0113,-4.0011,-3.9503,-3.8159,0.0,0.0,0.0,0.0,0.0,0.0,0.0,0.0,0.0,0.0,-3.5836,0.0,0.0,0.0,0.0,0.0,0.0,0.0,0.0,0.0,0.0,-3.8024,0.0,0.0,0.0,-4.0417,-4.1001,-4.0383,-4.0113,-4.0113,-4.0113,-4.0113,-4.0113,-4.0113,-4.0113,-4.0113,-4.0248,-4.1094,-4.232,-4.2591,-4.3498,-4.4615,-4.4615,-4.4615,-4.4615,0.0,0.0,0.0,0.0,0.0,0.0,0.0,-4.6874,-4.7278,-4.7626,-4.8416,-4.9077,-4.9481,-5.0288,-5.0618,-5.0215,-4.9831,-4.9224,-4.8379,-4.7553,-4.6562,-4.5369,-4.4929,-4.4305,-4.3515,-4.3515,-4.3314,-4.291,0.0,0.0,0.0,0.0,0.0,0.0,0.0,-4.1185,0.0,0.0,0.0,-4.3515,-4.3515,-4.3515,-4.348,-4.3214,-4.3124,-4.3087,-4.2772,-4.2696,-4.2524,-4.1625,-4.1138,-4.085,-4.0577,-4.0294,-4.0113,-4.0113,-4.0113,-4.0113,-4.0113,-4.0113,-4.0113,-4.0113,-4.0113,-4.0113,-4.0113,-4.0113,-4.0113,-4.0113,-3.9503,-3.8497,-3.7009,-3.6107,0.0,0.0,0.0,0.0,0.0,0.0,-3.5735,0.0,0.0,0.0,0.0,0.0,0.0,0.0,0.0,0.0,0.0,0.0,0.0,0.0,0.0,0.0,0.0,0.0,-4.0282,-4.0629,-4.0282,-4.0113,-4.0113,-4.0113,-4.0113,-4.0113,-4.0113,-4.0113,-4.0146,-4.0493,-4.1305,-4.232,-4.2726,-4.3572,-4.4615,-4.4615,-4.4615,-4.4615,0.0,-4.3314,0.0,0.0,-4.5626,0.0,-4.7003,-4.7773,-4.8086,-4.7443,-4.7883,-4.8306,-4.8306,-4.9481,-4.9994,-4.939,-4.917,-4.871,-4.7865,-4.7039,-4.6232,-4.5443,-4.4782,-4.4158,-4.3497,-4.3515,-4.3441,0.0,0.0,0.0,0.0,0.0,0.0,0.0,0.0,0.0,0.0,0.0,-4.3314,-4.3515,-4.3515,-4.3515,-4.3515,-4.3515,-4.3515,-4.3515,-4.3515,-4.3515,-4.3286,-4.1775,-4.1183,-4.1013,-4.0441,-4.0179,-4.0113,-4.0113,-4.0011,-3.9876,-3.9876,-3.9876,-3.9876,-3.9876,-3.9977,-4.0113,-4.0113,-4.0113,-4.0079,-3.991,-3.8667,-3.7313,-3.6096,-3.5701,0.0,0.0,0.0,0.0,0.0,0.0,0.0,0.0,0.0,0.0,-3.5633,0.0,0.0,0.0,0.0,0.0,-3.56,0.0,0.0,0.0,0.0,-3.8599,-4.0113,0.0,-4.018,-4.035,-4.018,-4.0113,-4.0113,-4.0113,-4.0113,-4.0113,-4.0113,-4.0113,-4.018,-4.0899,-4.1644,-4.2354,-4.3132,-4.391,-4.4615,-4.4615,-4.4615,-4.4615,0.0,0.0,0.0,0.0,0.0,0.0,-4.7076,-4.7773,-4.8269,-4.8196,-4.8269,-4.8306,-4.8306,-4.8453,-4.8489,-4.8416,-4.7736,-4.6966,-4.6177,-4.5369,-4.4562,-4.3772,-4.3662,-4.3588,-4.3515,-4.3515,-4.313,0.0,0.0,-4.0744,0.0,0.0,0.0,0.0,0.0,0.0,0.0,-4.2396,-4.2837,-4.3515,-4.3515,-4.3515,-4.3515,-4.3515,-4.3515,-4.3515,-4.3515,-4.3515,-4.3391,-4.2751,-4.218,-4.1617,-4.1036,-4.048,-4.0113,-4.0113,-3.9639,-3.9106,-3.9106,-3.9106,-3.9106,-3.9106,-3.9605,-4.0113,-4.0113,-4.0113,-3.991,-3.9242,-3.7946,-3.6863,-3.6728,-3.6096,-3.56,0.0,0.0,0.0,0.0,0.0,-3.64,-3.5667,0.0,0.0,0.0,-3.56,0.0,0.0,-3.56,0.0,0.0,0.0,0.0,-3.6897,0.0,-3.8608,-4.0096,-4.0087,-4.0451,-4.1102,-4.0417,-4.0113,-4.0113,-4.0113,-4.0113,-4.0113,-4.0113,-4.0113,-4.018,-4.0899,-4.1644,-4.2354,-4.3132,-4.391,-4.4615,-4.4615,-4.4615,-4.4615,0.0,0.0,0.0,0.0,0.0,0.0,0.0,-4.8086,-4.8306,-4.8306,-4.8306,-4.8122,-4.7626,-4.759,-4.7369,-4.6911,-4.6581,-4.625,-4.592,-4.5149,-4.4562,-4.4232,-4.3754,-4.3515,-4.3515,-4.3515,-4.3314,0.0,0.0,0.0,0.0,0.0,0.0,0.0,0.0,-4.1699,-4.2323,-4.28,-4.3221,-4.3515,-4.3515,-4.3515,-4.3515,-4.3515,-4.3515,-4.3515,-4.3515,-4.3515,-4.3445,-4.2865,-4.2557,-4.2241,-4.1639,-4.1308,-4.0966,-4.0145,-3.9718,-3.9408,-3.9093,-3.8667,-3.8565,-3.9436,-3.9571,-3.9571,-4.0011,-3.9774,-3.9368,-3.9039,-3.7845,-3.666,-3.6163,-3.5802,-3.56,-3.56,0.0,0.0,0.0,0.0,0.0,-3.5633,0.0,-3.596,0.0,0.0,0.0,0.0,0.0,0.0,0.0,0.0,0.0,-3.6761,0.0,-3.8396,-3.9445,-3.9876,-4.0248,-4.0527,-4.0248,-4.0113,-4.0113,-4.0113,-4.0113,-4.0113,-4.0113,-4.035,-4.0764,-4.1068,-4.1914,-4.2997,-4.3274,-4.391,-4.4615,-4.4615,-4.4615,-4.4615,-4.6214,0.0,-4.6507,0.0,-4.7443,-4.7626,-4.8233,-4.8306,-4.8306,-4.8306,-4.8306,-4.8067,-4.7516,-4.7223,-4.6856,-4.6324,-4.581,-4.5553,-4.5553,-4.4782,-4.4342,-4.4342,-4.3791,0.0,-4.3515,-4.3515,-4.3515,-4.3515,-4.269,0.0,0.0,0.0,0.0,0.0,-4.2066,-4.2433,-4.269,-4.324,-4.3515,-4.3515,-4.3515,-4.3515,-4.3478,-4.3258,-4.313,-4.313,-4.313,-4.313,-4.3079,-4.2705,-4.2576,-4.2464,-4.17,-4.1329,-4.0994,-3.9785,-3.9214,-3.8849,-3.8472,-3.7956,-3.7821,-3.886,-3.9063,-3.9073,-3.9377,-3.9208,-3.887,-3.843,-3.7337,-3.6265,-3.5701,-3.56,-3.56,-3.56,0.0,0.0,0.0,-3.5802,0.0,-3.5633,-3.5825,-3.5836,-3.5633,-3.5148,0.0,0.0,0.0,0.0,0.0,0.0,0.0,0.0,0.0,0.0,-3.8971,-3.974,-4.0113,-4.0113,-4.0113,-4.0113,-4.0113,-4.0113,-4.0113,-4.0113,-4.0113,-4.0493,-4.1238,-4.1441,-4.2252,-4.3409,-4.3673,-4.4079,-4.4615,-4.4615,-4.4615,-4.4615,-4.6929,-4.7076,-4.7333,-4.8159,-4.8306,-4.8306,-4.8306,-4.8306,-4.8306,-4.8306,-4.8306,-4.8306,-4.8306,-4.759,-4.7113,-4.7076,-4.5608,-4.4709,-4.4709,-4.3975,-4.3497,0.0,0.0,-4.3515,-4.3515,-4.3515,-4.3515,-4.3515,0.0,0.0,-4.2286,0.0,-4.1499,-4.2286,-4.2286,-4.2727,-4.3515,-4.3515,-4.3515,-4.3515,-4.3515,-4.3515,-4.3404,-4.2616,-4.2323,-4.2323,-4.2323,-4.2323,-4.2323,-4.2323,-4.2306,-4.2116,-4.0962,-4.0254,-3.9638,-3.8854,-3.7763,-3.6829,-3.6829,-3.6829,-3.6829,-3.6829,-3.7946,-3.8802,-3.8091,-3.8497,-3.8565,-3.7134,-3.6197,-3.56,-3.56,-3.56,-3.56,-3.56,0.0,0.0,0.0,-3.6265,0.0,-3.5701,-3.6299,-3.6468,-3.5667,-3.56,0.0,0.0,0.0,0.0,0.0,0.0,0.0,-3.6761,-3.7516,0.0,-3.8971,-3.974,-4.0113,-4.0113,-4.0113,-4.0113,-4.0113,-4.0113,-4.0113,-4.0113,-4.0113,-4.0493,-4.1271,-4.1982,-4.2726,-4.3477,-4.4282,-4.4615,-4.4615,-4.4615,-4.4615,-4.4615,-4.7865,-4.7939,-4.8012,-4.8269,-4.8306,-4.8306,-4.8306,-4.8306,-4.8306,-4.8306,-4.8306,-4.8086,-4.7553,-4.6746,-4.5847,0.0,-4.4195,-4.3864,0.0,-4.3644,-4.3515,-4.3515,-4.3515,-4.3515,-4.3515,-4.3515,-4.3515,-4.3515,0.0,0.0,0.0,-4.2873,-4.2873,-4.313,-4.313,-4.324,-4.3515,-4.3515,-4.3515,-4.3515,-4.3515,-4.3167,-4.2653,-4.2396,-4.1956,-4.1462,-4.1462,-4.1462,-4.1462,-4.1462,-4.1462,-4.1302,-4.043,-4.0365,-4.0437,-3.9294,-3.8657,-3.8286,-3.7901,-3.7469,-3.7295,-3.8321,-3.8545,-3.8614,-3.8837,-3.8416,-3.7591,-3.6288,-3.5769,-3.56,-3.56,-3.56,-3.56,-3.56,-3.56,0.0,-3.56,0.0,-3.5893,-3.5633,-3.5825,-3.5893,-3.5633,-3.5148,0.0,0.0,0.0,0.0,0.0,0.0,0.0,0.0,-3.7516,0.0,-3.8971,-3.974,-4.0113,-4.0113,-4.0113,-4.0113,-4.0113,-4.0595,-4.0832,-4.0865,-4.1373,-4.2016,-4.2699,-4.2963,-4.3504,-4.4215,-4.4513,-4.4615,-4.4615,-4.4615,-4.4615,-4.4513,-4.8306,-4.8306,-4.8306,-4.8306,-4.8306,-4.8306,-4.8306,-4.8306,-4.8196,-4.7902,-4.8122,-4.7755,-4.6342,-4.603,0.0,-4.4048,-4.3644,-4.3515,-4.3515,-4.3515,-4.3515,-4.3515,-4.3515,-4.3515,-4.3515,-4.3515,0.0,-4.3515,-4.3515,-4.3515,-4.3515,-4.3515,-4.3515,-4.3515,-4.3515,-4.3515,-4.3515,-4.3515,-4.3331,-4.3057,-4.3057,-4.258,-4.1809,-4.1515,-4.1075,-4.0671,-4.0671,-4.0671,-4.0671,-4.0671,-4.0671,-4.0524,-3.9717,-3.979,-3.9987,-3.8952,-3.851,-3.8312,-3.7993,-3.7562,-3.7421,-3.8337,-3.8285,-3.8082,-3.8363,-3.7577,-3.6554,-3.5757,-3.56,-3.56,-3.56,-3.56,-3.56,-3.56,-3.56,-3.56,-3.56,0.0,-3.56,0.0,0.0,0.0,0.0,-3.5182,-3.5318,0.0,0.0,0.0,0.0,0.0,-3.64,-3.7178,-3.7922,-3.8667,-3.9436,-3.9876,-4.0113,-4.0113,-4.0113,-4.0248,-4.0553,-4.1001,-4.1339,-4.1644,-4.2083,-4.2726,-4.3375,-4.3375,-4.3876,-4.4615,-4.4615,-4.4615,-4.4615,-4.4615,-4.4412,-4.4079,-4.8306,-4.8306,-4.8306,0.0,-4.8269,0.0,-4.8233,-4.8159,-4.7846,-4.7113,-4.7663,-4.7278,-4.4948,-4.5369,-4.548,-4.4709,0.0,0.0,0.0,-4.3515,-4.3515,-4.3515,-4.3515,-4.3515,-4.3515,-4.3515,-4.3515,-4.3515,-4.3515,-4.3515,-4.3515,-4.3515,-4.3515,-4.3515,-4.3515,-4.3478,-4.3441,-4.3441,-4.2947,-4.2213,-4.2213,-4.1735,-4.0912,-4.0194,-3.9863,-3.9827,-3.9827,-3.9827,-3.9827,-3.9827,-3.9827,-3.968,-3.8946,-3.8689,-3.8611,-3.8099,-3.7632,-3.7285,-3.7285,-3.7285,-3.7285,-3.7285,-3.7431,-3.7455,-3.6945,-3.6243,-3.5711,-3.5622,-3.56,-3.56,-3.56,-3.56,-3.56,-3.56,-3.56,-3.56,-3.56,-3.56,-3.56,0.0,0.0,0.0,-3.56,-3.5633,-3.5667,0.0,0.0,0.0,0.0,0.0,-3.7246,-3.7889,-3.8633,-3.9368,-4.0079,-4.0113,-4.0113,-4.0113,-4.0113,-4.0493,-4.1204,-4.1271,-4.1677,-4.2388,-4.2422,-4.2861,-4.3477,-4.3477,-4.391,-4.4513,-4.4581,-4.4581,-4.4513,-4.4581,-4.4079,-4.3375,0.0,0.0,-4.8306,-4.8306,-4.7773,-4.7369,-4.7369,-4.6874,-4.6397,-4.6214,-4.6361,-4.603,-4.4856,-4.4874,-4.4672,-4.3864,-4.3608,-4.3515,-4.3515,-4.3515,-4.3515,-4.3515,-4.3515,-4.3515,-4.3515,-4.3515,-4.3515,-4.3515,-4.3515,-4.3515,-4.3515,-4.3515,-4.3515,-4.3515,-4.3515,-4.3167,-4.258,-4.258,-4.2139,-4.1389,-4.1389,-4.0891,-4.0157,-3.9974,-3.9533,-3.8982,-3.8982,-3.8982,-3.8982,-3.8982,-3.8982,-3.8946,-3.8762,-3.8689,-3.8673,-3.8528,-3.8433,-3.8352,-3.8352,-3.8352,-3.8352,-3.8352,-3.838,-3.8184,-3.7302,-3.6965,-3.6586,-3.5766,-3.56,-3.56,-3.56,-3.56,-3.56,-3.56,-3.56,-3.56,-3.56,-3.56,-3.56,0.0,-3.6129,-3.6265,-3.5667,-3.6163,-3.6502,0.0,0.0,0.0,-3.7347,-3.8058,-3.8294,-3.7922,-3.8633,-3.9368,-4.0079,-4.0113,-4.0113,-4.0113,-4.0113,-4.0493,-4.1238,-4.1779,-4.2455,-4.3166,-4.3775,-4.4147,-4.4316,-4.4316,-4.4079,-4.3741,-4.435,-4.4215,-4.3775,-4.435,-4.4079,-4.3308,-4.781,-4.803,-4.8196,-4.781,-4.7369,-4.7113,-4.7113,-4.6434,-4.5773,-4.5406,-4.5663,-4.5443,-4.4268,-4.4488,-4.4378,-4.3588,-4.3515,-4.3515,-4.3515,-4.3515,-4.3515,-4.3515,-4.3515,-4.3515,-4.3515,-4.3515,-4.3331,-4.2947,-4.2947,-4.2947,-4.2947,-4.3331,-4.3294,-4.2947,-4.2947,-4.2506,-4.1772,-4.1772,-4.1295,-4.0561,-4.0561,-4.0084,-3.935,-3.935,-3.9093,-3.8689,-3.8689,-3.8689,-3.8689,-3.8689,-3.8689,-3.8689,-3.8689,-3.8689,-3.8689,-3.8689,-3.8689,-3.8689,-3.8689,-3.8689,-3.8643,-3.8417,-3.8332,-3.8152,-3.736,-3.7192,-3.702,-3.6443,-3.6122,-3.6049,-3.6291,-3.5941,-3.5689,-3.592,-3.5744,-3.56,-3.56,-3.56,-3.5735,-3.6096,-3.6535,-3.6738,-3.6671,-3.7043,-3.728,-3.728,-3.7642,0.0,-3.7922,-3.8903,-3.914,-3.843,-3.9106,-3.9706,-4.0113,-4.0113,-4.0113,-4.0113,-4.0113,-4.0493,-4.1238,-4.1948,-4.2692,-4.3443,-4.4248,-4.4615,-4.4581,-4.4181,-4.3809,-4.3443,-4.3876,-4.3775,-4.3477,-4.4282,-4.4079,-4.3341,-4.7039,-4.748,-4.7719,-4.7039,-4.6819,-4.6746,-4.6746,-4.6067,-4.5296,-4.4599,-4.5112,-4.5002,-4.3662,-4.4121,-4.4232,-4.3551,-4.3515,-4.3515,-4.3515,-4.3515,-4.3515,-4.3515,-4.3515,-4.3515,-4.3515,-4.3515,-4.3167,-4.247,-4.247,-4.2433,-4.2323,-4.313,-4.302,-4.2139,-4.2249,-4.1809,-4.0912,-4.0912,-4.0451,-3.9717,-3.9717,-3.9313,-3.8689,-3.8689,-3.8689,-3.8689,-3.8689,-3.8689,-3.8689,-3.8689,-3.8689,-3.8689,-3.8689,-3.8689,-3.8689,-3.8689,-3.8689,-3.8689,-3.8689,-3.8689,-3.8596,-3.8132,-3.8032,-3.7912,-3.7415,-3.7304,-3.7285,-3.721,-3.6825,-3.6681,-3.7116,-3.6478,-3.5963,-3.6333,-3.6028,-3.5711,-3.5622,0.0,-3.5926,-3.6694,-3.6897,-3.7212,-3.7855,-3.799,-3.8058,-3.8058,-3.8633,-3.8768,-3.8261,-3.9436,-3.9808,-3.9174,-3.9774,-4.0113,-4.0113,-4.0113,-4.0113,-4.0113,-4.0113,-4.0493,-4.1238,-4.1948,-4.2692,-4.3443,-4.4113,-4.4445,-4.435,-4.3572,-4.3172,-4.3071,-4.3172,-4.3234,-4.3335,-4.3978,-4.3809,-4.3206,-4.6104,-4.6177,-4.6214,-4.6104,-4.5516,-4.5058,-4.5058,-4.4378,-4.3845,-4.3681,-4.3808,-4.3772,-4.3551,-4.3608,-4.3644,-4.3515,-4.3515,-4.3515,-4.3515,-4.3515,-4.3515,-4.3515,-4.3515,-4.3515,-4.3515,-4.3515,-4.3441,-4.3314,-4.3314,-4.2947,-4.2323,-4.313,-4.2727,-4.1315,-4.1992,-4.1479,-4.0084,-4.0084,-3.9606,-3.8909,-3.8909,-3.8799,-3.8689,-3.8689,-3.8689,-3.8689,-3.8689,-3.8689,-3.8689,-3.8689,-3.8689,-3.8689,-3.8689,-3.8689,-3.8689,-3.8689,-3.8689,-3.8689,-3.8689,-3.8689,-3.8673,-3.8611,-3.8596,-3.8449,-3.7893,-3.779,-3.7685,-3.7285,-3.7116,-3.7097,-3.7173,-3.7058,-3.6825,-3.6457,-3.6312,-3.6135,-3.5667,0.0,-3.5926,-3.6694,-3.7347,-3.7787,-3.7889,-3.8464,-3.8836,-3.8836,-3.8937,-3.9208,-3.974,-3.9977,-4.0045,-3.9943,-4.0045,-4.0113,-4.0113,-4.0113,-4.0113,-4.0113,-4.0113,-4.0493,-4.1238,-4.1948,-4.2692,-4.3409,-4.3511,-4.3606,-4.3538,-4.2794,-4.2117,-4.161,-4.2219,-4.2455,-4.2489,-4.2591,-4.2557,-4.2388,-4.5993,-4.5883,-4.5773,-4.5333,-4.4966,-4.4691,-4.4691,-4.4011,-4.3515,-4.3515,-4.3515,-4.3515,-4.3515,-4.3515,-4.3515,-4.3515,-4.3515,-4.3515,-4.3515,-4.3515,-4.3515,-4.3515,-4.3515,-4.3515,-4.3515,-4.3057,-4.2653,-4.2213,-4.2213,-4.2029,-4.1662,-4.247,-4.2249,-4.1132,-4.1499,-4.0781,-3.9239,-3.9239,-3.9056,-3.8689,-3.8689,-3.8689,-3.8689,-3.8689,-3.8689,-3.8689,-3.8689,-3.8689,-3.8689,-3.8689,-3.8689,-3.8689,-3.8689,-3.8689,-3.8689,-3.8689,-3.8689,-3.8689,-3.8689,-3.8689,-3.8689,-3.8689,-3.8689,-3.8643,-3.8401,-3.8316,-3.8267,-3.8068,-3.7791,-3.7649,-3.7947,-3.7578,-3.7238,-3.7386,-3.6858,-3.6379,-3.6254,-3.6231,-3.6535,-3.728,-3.8024,-3.8633,-3.9039,-3.9402,-3.9605,-3.9605,-3.9605,-3.974,-4.0079,-4.0113,-4.0113,-4.0113,-4.0113,-4.0113,-4.0113,-4.0113,-4.0113,-4.0113,-4.0113,-4.0282,-4.0629,-4.1373,-4.188,-4.2252,-4.2658,-4.2828,-4.276,-4.2016,-4.1508,-4.1238,-4.1576,-4.1711,-4.1745,-4.2151,-4.2286,-4.2252,-4.5981,-4.5722,-4.5389,-4.4798,-4.4687,-4.4687,-4.4687,-4.4149,-4.3742,-4.3742,-4.3742,-4.3742,-4.3742,-4.3742,-4.3742,-4.3742,-4.3742,-4.373,-4.3631,-4.3631,-4.358,-4.3515,-4.3515,-4.3515,-4.3515,-4.2873,-4.2286,-4.1645,-4.1462,-4.1279,-4.1095,-4.1735,-4.1479,-4.0545,-4.0728,-4.0047,-3.8689,-3.8689,-3.8689,-3.8689,-3.8689,-3.8689,-3.8689,-3.8689,-3.8689,-3.8689,-3.8689,-3.8689,-3.8689,-3.8689,-3.8689,-3.8689,-3.8689,-3.8689,-3.8689,-3.8689,-3.8689,-3.8689,-3.8689,-3.8689,-3.8689,-3.8689,-3.8836,-3.8946,-3.8726,-3.8836,-3.8946,-3.8726,-3.8364,-3.8218,-3.8627,-3.8229,-3.7916,-3.8176,0.0,-3.7074,-3.6967,-3.7,-3.7313,-3.8058,-3.8667,-3.9276,-4.0045,-4.0113,-4.0113,-4.0113,-4.0113,-4.0113,-4.0113,-4.0113,-4.0113,-4.0113,-4.0113,-4.0113,-4.0113,-4.0113,-4.0113,-4.0113,-4.0113,-4.0113,-4.0146,-4.0865,-4.1204,-4.1238,-4.1813,-4.2049,-4.1982,-4.1238,-4.0933,-4.0933,-4.0933,-4.1035,-4.1238,-4.1644,-4.188,-4.2016,-4.5814,-4.5211,-4.4683,-4.4608,-4.4608,-4.4608,-4.4608,-4.457,-4.4533,-4.4533,-4.4533,-4.4533,-4.4533,-4.4533,-4.4533,-4.4533,-4.4533,-4.4346,-4.3967,-4.3952,-4.3818,-4.3532,-4.3515,-4.3515,-4.3515,-4.3441,-4.3404,-4.3331,-4.258,-4.1846,-4.1095,-4.1168,-4.0361,-3.8909,-3.9643,-3.9496,-3.8689,-3.8689,-3.8689,-3.8689,-3.8689,-3.8689,-3.8689,-3.8689,-3.8689,-3.8689,-3.8689,-3.8689,-3.8689,-3.8689,-3.8689,-3.8689,-3.8689,-3.8689,-3.8689,-3.8689,-3.8689,-3.8689,-3.8689,-3.8689,-3.8689,-3.8689,-3.9276,-3.9606,-3.8872,-3.9276,-3.9606,-3.8836,-3.8658,-3.8643,-3.8673,-3.9266,-3.9325,-3.8127,0.0,0.0,-3.7629,-3.7661,-3.8091,-3.8836,-3.8971,-3.9276,-4.0045,-4.0113,-4.0113,-4.0113,-4.0113,-4.0113,-4.0113,-4.0113,-4.0113,-4.0113,-4.0113,-4.0113,-4.0113,-4.0113,-4.0113,-4.0113,-4.0113,-4.0113,-4.0146,-4.0865,-4.1204,-4.1204,-4.1271,-4.1271,-4.1238,-4.0485,-4.018,-4.018,-4.018,-4.0595,-4.1136,-4.0493,-4.0696,-4.117,-4.7212,-4.5889,-4.4755,-4.499,-4.457,-4.4219,-4.4219,-4.4428,-4.4612,-4.4612,-4.4612,-4.4482,-4.4247,-4.4219,-4.4219,-4.4219,-4.4219,-4.4161,-4.3998,-4.4233,-4.4125,-4.3532,-4.3515,-4.3515,-4.3515,-4.302,-4.2506,-4.2029,-4.1222,-4.0671,-4.0377,-4.0377,-4.0047,-3.946,-3.9753,-3.946,-3.8689,-3.8689,-3.8689,-3.8689,-3.8689,-3.8689,-3.8689,-3.8689,-3.8689,-3.8689,-3.8689,-3.8689,-3.8689,-3.8689,-3.8689,-3.8689,-3.8689,-3.8689,-3.8689,-3.8689,-3.8689,-3.8689,-3.8689,-3.8689,-3.8836,-3.9313,-3.968,-3.9937,-4.0157,-4.0398,-4.0561,-4.0251,-4.0178,-4.0178,-4.0178,-4.0451,-4.0524,-4.0131,0.0,-3.988,-3.9538,-3.9581,-3.9611,-3.9514,-3.9914,-4.0182,-4.0129,-4.0113,-4.0113,-4.0113,-4.0113,-4.0113,-4.0113,-4.0113,-4.0113,-4.0113,-4.0113,-4.0113,-4.0113,-4.0113,-4.0113,-4.0113,-4.0113,-4.0113,-4.0113,-4.0383,-4.0493,-4.0493,-4.0493,-4.0493,-4.0519,-4.0214,-4.0113,-4.0113,-4.0113,-4.0282,-4.0485,-4.0214,-4.0282,-4.0485,-4.7682,-4.6317,-4.5057,-4.5337,-4.4912,-4.4497,-4.4497,-4.4738,-4.4919,-4.4919,-4.4919,-4.4799,-4.4523,-4.4497,-4.4497,-4.4497,-4.4497,-4.439,-4.4204,-4.4219,-4.408,-4.366,-4.3326,-4.313,-4.313,-4.2323,-4.1662,-4.1095,-4.0304,-3.99,-3.99,-3.9643,-3.9533,-3.9533,-3.9533,-3.9203,-3.8689,-3.8689,-3.8689,-3.8689,-3.8689,-3.8689,-3.8689,-3.8689,-3.8689,-3.8689,-3.8689,-3.8689,-3.8689,-3.8689,-3.8689,-3.8689,-3.8689,-3.8689,-3.8689,-3.8689,-3.8689,-3.8762,-3.9019,-3.9093,-3.9203,-3.9753,-4.0267,-4.0744,-4.1022,-4.1279,-4.1389,-4.1132,-4.1095,-4.1095,-4.1095,-4.1315,-4.1435,-4.1324,-4.118,-4.1012,-4.0915,-4.0963,-4.0891,-4.046,-4.0688,-4.0756,-4.0392,-4.0204,-4.0113,-4.0113,-4.0113,-4.0113,-4.0113,-4.0113,-4.0113,-4.0113,-4.0113,-4.0113,-4.0113,-4.035,-4.0553,-4.079,-4.0553,-4.0587,-4.079,-4.0316,-4.0248,-4.0451,-4.0214,-4.0113,-4.0113,-4.0113,-4.0113,-4.0113,-4.0113,-4.0113,-4.0113,-4.0113,-4.0113,-4.0113,-4.6923,-4.6201,-4.5586,-4.5624,-4.5586,-4.5586,-4.5586,-4.5594,-4.5594,-4.5594,-4.5594,-4.5594,-4.5586,-4.5586,-4.5586,-4.5586,-4.5586,-4.5303,-4.4663,-4.3934,-4.3681,-4.3982,-4.2922,-4.2323,-4.2323,-4.1499,-4.1095,-4.1095,-4.0304,-3.99,-3.9863,-3.9056,-3.8689,-3.8689,-3.8689,-3.8689,-3.8689,-3.8689,-3.8689,-3.8689,-3.8689,-3.8689,-3.8689,-3.8689,-3.8689,-3.8689,-3.8689,-3.8689,-3.8689,-3.8689,-3.8689,-3.8689,-3.8689,-3.8689,-3.8689,-3.8689,-3.8689,-3.8872,-3.968,-3.9916,-3.99,-3.99,-4.1111,-4.2103,-4.1279,-4.1735,-4.2103,-4.1279,-4.1132,-4.1132,-4.1132,-4.1772,-4.2066,-4.1242,-4.2032,-4.2405,-4.152,-4.1665,-4.181,-4.181,-4.1251,-4.092,-4.092,-4.0417,-4.0113,-4.0113,-4.0113,-4.0113,-4.0113,-4.0113,-4.0113,-4.0113,-4.0113,-4.0113,-4.0113,-4.0832,-4.1542,-4.2252,-4.1542,-4.1576,-4.2219,-4.079,-4.0519,-4.117,-4.0417,-4.0113,-4.0113,-4.0113,-4.0113,-4.0113,-4.0113,-4.0113,-4.0113,-4.0113,-4.0113,-4.0113,-4.7587,-4.6664,-4.5829,-4.6052,-4.5625,-4.5243,-4.5243,-4.5438,-4.5594,-4.5594,-4.5594,-4.5523,-4.5263,-4.5243,-4.5243,-4.5243,-4.5243,-4.5263,-4.5293,-4.4651,-4.4341,-4.4401,-4.3616,-4.313,-4.313,-4.1809,-4.1095,-4.1095,-3.9753,-3.9056,-3.9056,-3.8799,-3.8689,-3.8689,-3.8689,-3.8689,-3.8689,-3.8689,-3.8689,-3.8689,-3.8689,-3.8689,-3.8689,-3.8689,-3.8689,-3.8689,-3.8689,-3.8689,-3.8689,-3.8689,-3.8689,-3.8689,-3.8689,-3.8689,-3.8689,-3.8689,-3.9093,-3.957,-3.9827,-4.0708,-4.1589,-4.1589,-4.1956,-4.2396,-4.2727,-4.2947,-4.3057,-4.2837,-4.2763,-4.2763,-4.2763,-4.2983,-4.3057,-4.28,-4.3063,-4.3177,-4.2902,-4.296,-4.2829,-4.2462,-4.1895,-4.1362,-4.0932,-4.0417,-4.0113,-4.0113,-4.0113,-4.0113,-4.0113,-4.0113,-4.0113,-4.0113,-4.0113,-4.035,-4.0865,-4.0561,-4.0553,-4.0756,-4.0553,-4.0553,-4.0756,-4.0316,-4.0214,-4.0417,-4.0214,-4.0113,-4.0113,-4.0113,-4.0113,-4.0113,-4.0113,-4.0113,-4.0113,-4.0113,-4.0113,-4.0113,-4.6982,-4.6362,-4.5795,-4.599,-4.5628,-4.5283,-4.5283,-4.5457,-4.5594,-4.5594,-4.5594,-4.5532,-4.5303,-4.5283,-4.5283,-4.5283,-4.518,-4.5191,-4.54,-4.4908,-4.4612,-4.4612,-4.4184,-4.3495,-4.258,-4.0965,-4.0141,-4.0141,-3.9203,-3.8689,-3.8689,-3.8689,-3.8689,-3.8689,-3.8689,-3.8689,-3.8689,-3.8689,-3.8689,-3.8689,-3.8689,-3.8689,-3.8689,-3.8689,-3.8689,-3.8689,-3.8689,-3.8689,-3.8689,-3.8689,-3.8689,-3.8689,-3.8689,-3.8909,-3.9166,-3.9166,-3.9753,-4.0451,-4.0744,-4.1552,-4.2396,-4.269,-4.2763,-4.291,-4.3404,-4.3515,-4.3515,-4.3515,-4.3515,-4.3515,-4.3515,-4.3515,-4.3515,-4.3515,-4.3515,-4.3515,-4.3515,-4.3515,-4.3356,-4.3069,-4.2501,-4.2,-4.166,-4.1082,-4.0767,-4.0767,-4.0767,-4.0767,-4.0767,-4.0563,-4.0417,-4.0417,-4.0204,-4.0316,-4.0764,-4.0316,-4.0383,-4.0993,-4.0688,-4.0688,-4.0959,-4.0383,-4.0282,-4.0493,-4.0248,-4.0113,-4.0113,-4.0113,-4.0113,-4.0113,-4.0113,-4.0113,-4.0113,-4.0113,-4.0113,-4.0113,-4.5594,-4.5594,-4.5594,-4.5594,-4.5594,-4.5594,-4.5594,-4.5594,-4.5594,-4.5594,-4.5594,-4.5594,-4.5594,-4.5594,-4.5594,-4.5594,-4.5303,-4.5159,-4.5159,-4.4861,-4.4688,-4.4663,-4.4587,-4.3478,-4.1225,-3.9721,-3.8903,-3.8799,-3.8726,-3.8689,-3.8689,-3.8689,-3.8689,-3.8689,-3.8689,-3.8689,-3.8689,-3.8689,-3.8689,-3.8689,-3.8689,-3.8689,-3.8689,-3.8689,-3.8689,-3.8689,-3.8689,-3.8689,-3.8689,-3.8689,-3.8689,-3.8689,-3.8689,-3.9239,-3.99,-3.99,-4.0524,-4.1352,-4.2103,-4.2359,-4.258,-4.3331,-4.3515,-4.3515,-4.3515,-4.3515,-4.3515,-4.3515,-4.3515,-4.3515,-4.3515,-4.3515,-4.3515,-4.3515,-4.3515,-4.3515,-4.3515,-4.3515,-4.3515,-4.3515,-4.305,-4.2693,-4.2693,-4.2144,-4.1789,-4.1725,-4.1725,-4.1703,-4.166,-4.115,-4.0827,-4.0827,-4.0343,-4.0113,-4.0113,-4.0113,-4.079,-4.2083,-4.1407,-4.1441,-4.2049,-4.0722,-4.0485,-4.1068,-4.0392,-4.0113,-4.0113,-4.0113,-4.0113,-4.0113,-4.0113,-4.0113,-4.0113,-4.0113,-4.0113,-4.0113,-4.5594,-4.5594,-4.5594,-4.5594,-4.5594,-4.5594,-4.5594,-4.5594,-4.5594,-4.5594,-4.5594,-4.5594,-4.5594,-4.5594,-4.5594,-4.5594,-4.5541,-4.5475,-4.5475,-4.5429,-4.5263,-4.4988,-4.4402,-4.3357,-4.1929,-4.1283,-4.0548,-3.9643,-3.9019,-3.8689,-3.8689,-3.8689,-3.8689,-3.8689,-3.8689,-3.8689,-3.8689,-3.8689,-3.8689,-3.8689,-3.8689,-3.8689,-3.8689,-3.8689,-3.8689,-3.8689,-3.8689,-3.8689,-3.8689,-3.8689,-3.8689,-3.8689,-3.8689,-3.9239,-3.99,-3.99,-4.0928,-4.2103,-4.2249,-4.2763,-4.3277,-4.3478,-4.3515,-4.3515,-4.3515,-4.3515,-4.3515,-4.3515,-4.3515,-4.3515,-4.3515,-4.3515,-4.3515,-4.3515,-4.3515,-4.3515,-4.3515,-4.3515,-4.3515,-4.3515,-4.305,-4.2693,-4.2693,-4.2144,-4.1582,-4.1115,-4.1127,-4.092,-4.049,-4.0319,-4.0279,-4.0279,-4.0154,-4.0113,-4.0113,-4.0113,-4.0248,-4.0587,-4.0417,-4.0417,-4.0587,-4.0248,-4.018,-4.035,-4.018,-4.0113,-4.0113,-4.0113,-4.0113,-4.0113,-4.0113,-4.0113,-4.0113,-4.0113,-4.0113,-4.0113,-4.5594,-4.5594,-4.5594,-4.5594,-4.5594,-4.5594,-4.5594,-4.5594,-4.5594,-4.5594,-4.5594,-4.5594,-4.5594,-4.5594,-4.5594,-4.5594,-4.5594,-4.5594,-4.5594,-4.5594,-4.5532,-4.5361,-4.495,-4.4152,-4.2974,-4.2394,-4.1228,-3.9527,-3.9083,-3.8833,-3.8689,-3.8689,-3.8689,-3.8689,-3.8689,-3.8689,-3.8689,-3.8689,-3.8689,-3.8689,-3.8689,-3.8689,-3.8689,-3.8689,-3.8689,-3.8689,-3.8689,-3.8946,-3.9276,-3.9276,-3.9533,-3.979,-3.9386,-4.0084,-4.0965,-4.0598,-4.1625,-4.2873,-4.2873,-4.3167,-4.3515,-4.3515,-4.3515,-4.3515,-4.3515,-4.3515,-4.3515,-4.3515,-4.3515,-4.3515,-4.3515,-4.3515,-4.3515,-4.3515,-4.3515,-4.3515,-4.3515,-4.3515,-4.3515,-4.3515,-4.325,-4.3087,-4.3087,-4.2791,-4.2485,-4.217,-4.2129,-4.2026,-4.1732,-4.1486,-4.1366,-4.1366,-4.1071,-4.0767,-4.0456,-4.0456,-4.0343,-4.0113,-4.0113,-4.0113,-4.0113,-4.0113,-4.0113,-4.0113,-4.0113,-4.0113,-4.0113,-4.0113,-4.0113,-4.0113,-4.0113,-4.0113,-4.0113,-4.0113,-4.0113,-4.0113,-4.5594,-4.5594,-4.5594,-4.5594,-4.5594,-4.5594,-4.5594,-4.5594,-4.5594,-4.5594,-4.5594,-4.5594,-4.5594,-4.5594,-4.5594,-4.5594,-4.5594,-4.5556,-4.5402,-4.5518,-4.5479,-4.521,-4.5287,-4.4813,-4.3588,-4.2842,-4.1467,-3.941,-3.9261,-3.9022,-3.8758,-3.8758,-3.875,-3.8689,-3.8689,-3.8689,-3.8689,-3.8689,-3.8689,-3.8689,-3.8689,-3.8689,-3.8689,-3.8689,-3.8689,-3.8689,-3.8689,-3.9129,-3.9717,-3.9827,-4.0267,-4.0581,-4.0084,-4.0891,-4.1992,-4.1462,-4.2359,-4.3515,-4.3515,-4.3515,-4.3515,-4.3515,-4.3515,-4.3515,-4.3515,-4.3515,-4.3515,-4.3515,-4.3515,-4.3515,-4.3515,-4.3515,-4.3515,-4.3515,-4.3515,-4.3515,-4.3515,-4.3515,-4.3515,-4.3515,-4.3515,-4.3515,-4.3515,-4.3515,-4.348,-4.3356,-4.3356,-4.3321,-4.3195,-4.2789,-4.2557,-4.2557,-4.2041,-4.1538,-4.1047,-4.0932,-4.0696,-4.0254,-4.0129,-4.0113,-4.0113,-4.0113,-4.0113,-4.0113,-4.0113,-4.0113,-4.0113,-4.0113,-4.0113,-4.0113,-4.0113,-4.0113,-4.0113,-4.0113,-4.0113,-4.0113,-4.5594,-4.5594,-4.5594,-4.5594,-4.5594,-4.5594,-4.5594,-4.5594,-4.5594,-4.5594,-4.5594,-4.5594,-4.5594,-4.5594,-4.5594,-4.5594,-4.5594,-4.5287,-4.4509,-4.5171,-4.494,-4.3508,-4.4085,-4.3731,-4.2121,-4.1959,-4.1504,-4.0651,-3.991,-3.9352,-3.9049,-3.9049,-3.8905,-3.8689,-3.8689,-3.8689,-3.8689,-3.8689,-3.8689,-3.8689,-3.8689,-3.8689,-3.8689,-3.8689,-3.8689,-3.8689,-3.8689,-3.8762,-3.8982,-3.968,-3.9496,-3.9129,-3.9717,-4.0524,-4.1389,-4.1992,-4.2763,-4.3515,-4.3515,-4.3515,-4.3515,-4.3515,-4.3515,-4.3515,-4.3515,-4.3515,-4.3515,-4.3515,-4.3515,-4.3515,-4.3515,-4.3515,-4.3515,-4.3515,-4.3515,-4.3515,-4.3515,-4.3515,-4.3515,-4.3515,-4.3515,-4.3515,-4.3515,-4.3515,-4.3303,-4.2827,-4.2789,-4.256,-4.2062,-4.1958,-4.1916,-4.1916,-4.1853,-4.1768,-4.1703,-4.1138,-4.0874,-4.078,-4.0319,-4.0113,-4.0113,-4.0113,-4.0113,-4.0113,-4.0113,-4.0113,-4.0113,-4.0113,-4.0113,-4.0113,-4.0113,-4.0113,-4.0113,-4.0113,-4.0113,-4.0113,-4.5594,-4.5594,-4.5594,-4.5594,-4.5594,-4.5594,-4.5594,-4.5594,-4.5594,-4.5594,-4.5594,-4.5594,-4.5594,-4.5594,-4.5402,-4.494,-4.5325,-4.5248,-4.4355,-4.5133,-4.5287,-4.4509,-4.4825,-4.4432,-4.3239,-4.2777,-4.2147,-4.1399,-4.0363,-3.972,-3.9377,-3.9377,-3.9223,-3.8919,-3.8919,-3.8826,-3.8689,-3.8689,-3.8689,-3.8689,-3.8689,-3.8689,-3.8762,-3.9203,-3.935,-3.935,-3.935,-3.935,-3.9423,-3.979,-4.0267,-4.0708,-4.0598,-4.1442,-4.2433,-4.2323,-4.2873,-4.3515,-4.3515,-4.3515,-4.3515,-4.3515,-4.3515,-4.3515,-4.3515,-4.3515,-4.3515,-4.3515,-4.3515,-4.3515,-4.3515,-4.3515,-4.3515,-4.3515,-4.3515,-4.3515,-4.3515,-4.3515,-4.3515,-4.3515,-4.3515,-4.3515,-4.3515,-4.3515,-4.3391,-4.316,-4.316,-4.3014,-4.2772,-4.2753,-4.2753,-4.2753,-4.2753,-4.2619,-4.2302,-4.2041,-4.1746,-4.1385,-4.1173,-4.0696,-4.0113,-4.0113,-4.0113,-4.0113,-4.0113,-4.0113,-4.0113,-4.0113,-4.0113,-4.0113,-4.0113,-4.0113,-4.0113,-4.0113,-4.0113,-4.0113]},{"header":{"parameterUnit":"m.s-1","parameterCategory":1,"la1":30.6,"la2":28.766,"lo1":-90.7593,"lo2":-88.6598,"dy":0.0162,"dx":0.0183,"nx":116,"ny":114,"refTime":"2023-08-04T06:00:00:Z","depth":0,"parameterNumber":3,"parameterNumberName":"V-component_of_WINDS"},"data":[0.0,0.0,0.0,0.0,0.0,0.0,0.0,0.0,0.0,0.0,0.0,0.0,0.0,0.0,0.0,0.0,0.0,0.0,0.0,0.0,0.0,0.0,0.0,0.0,0.0,0.0,0.0,0.0,0.0,0.0,0.0,0.0,0.0,0.0,0.0,0.0,0.0,0.0,0.0,0.0,0.0,0.0,0.0,0.0,0.0,0.0,0.0,0.0,0.0,0.0,0.0,0.0,0.0,0.0,0.0,0.0,0.0,0.0,0.0,0.0,0.0,0.0,0.0,0.0,0.0,0.0,0.0,0.0,0.0,0.0,0.0,0.0,0.0,0.0,0.0,0.0,0.0,0.0,0.0,0.0,0.0,0.0,0.0,0.0,0.0,0.0,0.0,0.0,0.0,0.0,0.0,0.0,0.0,0.0,0.0,0.0,0.0,0.0,0.0,0.0,0.0,0.0,0.0,0.0,0.0,0.0,0.0,0.0,0.0,0.0,0.0,0.0,0.0,0.0,0.0,0.0,0.0,0.0,0.0,0.0,0.0,0.0,0.0,0.0,0.0,0.0,0.0,0.0,0.0,0.0,0.0,0.0,0.0,0.0,0.0,0.0,0.0,0.0,0.0,0.0,0.0,0.0,0.0,0.0,0.0,0.0,0.0,0.0,0.0,0.0,0.0,0.0,0.0,0.0,0.0,0.0,0.0,0.0,0.0,0.0,0.0,0.0,0.0,0.0,0.0,0.0,0.0,0.0,0.0,0.0,0.0,0.0,0.0,0.0,0.0,0.0,0.0,0.0,0.0,0.0,0.0,0.0,0.0,0.0,0.0,0.0,0.0,0.0,0.0,0.0,0.0,0.0,0.0,0.0,0.0,0.0,0.0,0.0,0.0,0.0,0.0,0.0,0.0,0.0,0.0,0.0,0.0,0.0,0.0,0.0,0.0,0.0,0.0,0.0,0.0,0.0,0.0,0.0,0.0,0.0,0.0,0.0,0.0,0.0,0.0,0.0,0.0,0.0,0.0,0.0,0.0,0.0,0.0,0.0,0.0,0.0,0.0,0.0,0.0,0.0,0.0,0.0,0.0,0.0,0.0,0.0,0.0,0.0,0.0,0.0,0.0,0.0,0.0,0.0,0.0,0.0,0.0,0.0,0.0,0.0,0.0,0.0,0.0,0.0,0.0,0.0,0.0,0.0,0.0,0.0,0.0,0.0,0.0,0.0,0.0,0.0,0.0,0.0,0.0,0.0,0.0,0.0,0.0,0.0,0.0,0.0,0.0,0.0,0.0,0.0,0.0,0.0,0.0,0.0,0.0,0.0,0.0,0.0,0.0,0.0,0.0,0.0,0.0,0.0,0.0,0.0,0.0,0.0,0.0,0.0,0.0,0.0,0.0,0.0,0.0,0.0,0.0,0.0,0.0,0.0,0.0,0.0,0.0,0.0,0.0,0.0,0.0,0.0,0.0,0.0,0.0,0.0,0.0,0.0,0.0,0.0,0.0,0.0,0.0,0.0,0.0,0.0,0.0,0.0,0.0,0.0,0.0,0.0,0.0,0.0,0.0,0.0,0.0,0.0,0.0,0.0,0.0,0.0,0.0,0.0,0.0,0.0,0.0,0.0,0.0,0.0,0.0,0.0,0.0,0.0,0.0,0.0,0.0,0.0,0.0,0.0,0.0,0.0,0.0,0.0,0.0,0.0,0.0,0.0,0.0,0.0,0.0,0.0,0.0,0.0,0.0,0.0,0.0,0.0,0.0,0.0,0.0,0.0,0.0,0.0,0.0,0.0,0.0,0.0,0.0,0.0,0.0,0.0,0.0,0.0,0.0,0.0,0.0,0.0,0.0,0.0,0.0,0.0,0.0,0.0,0.0,0.0,0.0,0.0,0.0,0.0,0.0,0.0,0.0,0.0,0.0,0.0,0.0,0.0,0.0,0.0,0.0,0.0,0.0,0.0,0.0,0.0,0.0,0.0,0.0,0.0,0.0,0.0,0.0,0.0,0.0,0.0,0.0,0.0,0.0,0.0,0.0,0.0,0.0,0.0,0.0,0.0,0.0,0.0,0.0,0.0,0.0,0.0,0.0,0.0,0.0,0.0,0.0,0.0,0.0,0.0,0.0,0.0,0.0,0.0,0.0,0.0,0.0,0.0,0.0,0.0,0.0,0.0,0.0,0.0,0.0,0.0,0.0,0.0,0.0,0.0,0.0,0.0,0.0,0.0,0.0,0.0,0.0,0.0,0.0,0.0,0.0,0.0,0.0,0.0,0.0,0.0,0.0,0.0,0.0,0.0,0.0,0.0,0.0,0.0,0.0,0.0,0.0,0.0,0.0,0.0,0.0,0.0,0.0,0.0,0.0,0.0,0.0,0.0,0.0,0.0,0.0,0.0,0.0,0.0,0.0,0.0,0.0,0.0,0.0,0.0,0.0,0.0,0.0,0.0,0.0,0.0,0.0,0.0,0.0,0.0,0.0,0.0,0.0,0.0,0.0,0.0,0.0,0.0,0.0,0.0,0.0,0.0,0.0,0.0,0.0,0.0,0.0,0.0,0.0,0.0,0.0,0.0,0.0,0.0,0.0,0.0,0.0,0.0,0.0,0.0,0.0,0.0,0.0,0.0,0.0,0.0,0.0,0.0,0.0,0.0,0.0,0.0,0.0,0.0,0.0,0.0,0.0,0.0,0.0,0.0,0.0,0.0,0.0,0.0,0.0,0.0,0.0,0.0,0.0,0.0,0.0,0.0,0.0,0.0,0.0,0.0,0.0,0.0,0.0,0.0,0.0,0.0,0.0,0.0,0.0,0.0,0.0,0.0,0.0,0.0,0.0,0.0,0.0,0.0,0.0,0.0,0.0,0.0,0.0,0.0,0.0,0.0,0.0,0.0,0.0,0.0,0.0,0.0,0.0,0.0,0.0,0.0,0.0,0.0,0.0,0.0,0.0,0.0,0.0,0.0,0.0,0.0,0.0,0.0,0.0,0.0,0.0,0.0,0.0,0.0,0.0,0.0,0.0,0.0,0.0,0.0,0.0,0.0,0.0,0.0,0.0,0.0,0.0,0.0,0.0,0.0,0.0,0.0,0.0,0.0,0.0,0.0,0.0,0.0,0.0,0.0,0.0,0.0,0.0,0.0,0.0,0.0,0.0,0.0,0.0,0.0,0.0,0.0,0.0,0.0,0.0,0.0,0.0,0.0,0.0,0.0,0.0,0.0,0.0,0.0,0.0,0.0,0.0,0.0,0.0,0.0,0.0,0.0,0.0,0.0,0.0,0.0,0.0,0.0,0.0,0.0,0.0,0.0,0.0,0.0,0.0,0.0,0.0,0.0,0.0,0.0,0.0,0.0,0.0,0.0,0.0,0.0,0.0,0.0,0.0,0.0,0.0,0.0,0.0,0.0,0.0,0.0,0.0,0.0,0.0,0.0,0.0,0.0,0.0,0.0,0.0,0.0,0.0,0.0,0.0,0.0,0.0,0.0,0.0,0.0,0.0,0.0,0.0,0.0,0.0,0.0,0.0,0.0,0.0,0.0,0.0,0.0,0.0,0.0,0.0,0.0,0.0,0.0,0.0,0.0,0.0,0.0,0.0,0.0,0.0,0.0,0.0,0.0,0.0,0.0,0.0,0.0,0.0,0.0,0.0,0.0,0.0,0.0,0.0,0.0,0.0,0.0,0.0,0.0,0.0,0.0,0.0,0.0,0.0,0.0,0.0,0.0,0.0,0.0,0.0,0.0,0.0,0.0,0.0,0.0,0.0,0.0,0.0,0.0,0.0,0.0,0.0,0.0,0.0,0.0,0.0,0.0,0.0,0.0,0.0,0.0,0.0,0.0,0.0,0.0,0.0,0.0,0.0,0.0,0.0,0.0,0.0,0.0,0.0,0.0,0.0,0.0,0.0,0.0,0.0,0.0,0.0,0.0,0.0,0.0,0.0,0.0,0.0,0.0,0.0,0.0,0.0,0.0,0.0,0.0,0.0,0.0,0.0,0.0,0.0,0.0,0.0,0.0,0.0,0.0,0.0,0.0,0.0,0.0,0.0,0.0,0.0,0.0,0.0,0.0,0.0,0.0,0.0,0.0,0.0,0.0,0.0,0.0,0.0,0.0,0.0,0.0,0.0,0.0,0.0,0.0,0.0,0.0,0.0,0.0,0.0,0.0,0.0,0.0,0.0,0.0,0.0,0.0,0.0,0.0,0.0,0.0,0.0,0.0,0.0,0.0,0.0,0.0,0.0,0.0,0.0,0.0,0.0,0.0,0.0,0.0,0.0,0.0,0.0,0.0,0.0,0.0,0.0,0.0,0.0,0.0,0.0,0.0,0.0,0.0,0.0,0.0,0.0,0.0,0.0,0.0,0.0,0.0,0.0,0.0,0.0,0.0,0.0,0.0,0.0,0.0,0.0,0.0,0.0,0.0,0.0,0.0,0.0,0.0,0.0,0.0,0.0,0.0,0.0,0.0,0.0,0.0,0.0,0.0,0.0,0.0,0.0,0.0,0.0,0.0,0.0,0.0,0.0,0.0,0.0,0.0,0.0,0.0,0.0,0.0,0.0,0.0,0.0,0.0,0.0,0.0,0.0,0.0,0.0,0.0,0.0,0.0,0.0,0.0,0.0,0.0,0.0,0.0,0.0,0.0,0.0,0.0,0.0,0.0,0.0,0.0,0.0,0.0,0.0,0.0,0.0,0.0,0.0,0.0,0.0,0.0,0.0,0.0,0.0,0.0,0.0,0.0,0.0,0.0,0.0,0.0,0.0,0.0,0.0,0.0,0.0,0.0,0.0,0.0,0.0,0.0,0.0,0.0,0.0,0.0,0.0,0.0,0.0,0.0,0.0,0.0,0.0,0.0,0.0,0.0,0.0,0.0,0.0,0.0,0.0,0.0,0.0,0.0,0.0,0.0,0.0,0.0,0.0,0.0,0.0,0.0,0.0,0.0,0.0,0.0,0.0,0.0,0.0,0.0,0.0,0.0,0.0,0.0,0.0,0.0,0.0,0.0,0.0,0.0,0.0,0.0,0.0,0.0,0.0,0.0,0.0,0.0,0.0,0.0,0.0,0.0,0.0,0.0,0.0,0.0,0.0,0.0,0.0,0.0,0.0,0.0,0.0,0.0,0.0,0.0,0.0,0.0,0.0,0.0,0.0,0.0,0.0,0.0,0.0,0.0,0.0,0.0,0.0,0.0,0.0,0.0,0.0,0.0,0.0,0.0,0.0,0.0,0.0,0.0,0.0,0.0,0.0,0.0,0.0,0.0,0.0,0.0,0.0,0.0,0.0,0.0,0.0,0.0,0.0,0.0,0.0,0.0,0.0,0.0,0.0,0.0,0.0,0.0,0.0,0.0,0.0,0.0,0.0,0.0,0.0,0.0,0.0,0.0,0.0,0.0,0.0,0.0,0.0,0.0,0.0,0.0,0.0,0.0,0.0,0.0,0.0,0.0,0.0,0.0,0.0,0.0,0.0,0.0,0.0,0.0,0.0,0.0,0.0,0.0,0.0,0.0,0.0,0.0,0.0,0.0,0.0,0.0,0.0,0.0,0.0,0.0,0.0,0.0,0.0,0.0,0.0,0.0,0.0,0.0,0.0,0.0,0.0,0.0,0.0,0.0,0.0,0.0,0.0,0.0,0.0,0.0,0.0,0.0,0.0,0.0,0.0,0.0,0.0,0.0,0.0,0.0,0.0,0.0,0.0,0.0,0.0,0.0,0.0,0.0,0.0,0.0,0.0,0.0,0.0,0.0,0.0,0.0,0.0,0.0,0.0,0.0,0.0,0.0,0.0,0.0,0.0,0.0,0.0,0.0,0.0,0.0,0.0,0.0,0.0,0.0,0.0,0.0,0.0,0.0,0.0,0.0,0.0,0.0,0.0,0.0,0.0,0.0,0.0,0.0,0.0,0.0,0.0,0.0,0.0,0.0,0.0,0.0,0.0,0.0,0.0,0.0,0.0,0.0,0.0,0.0,0.0,0.0,0.0,0.0,0.0,0.0,0.0,0.0,0.0,0.0,0.0,0.0,0.0,0.0,0.0,0.0,0.0,0.0,0.0,0.0,0.0,0.0,0.0,0.0,0.0,0.0,0.0,0.0,0.0,0.0,0.0,0.0,0.0,0.0,-1.8286,0.0,0.0,0.0,0.0,0.0,0.0,0.0,0.0,0.0,0.0,0.0,0.0,0.0,0.0,0.0,0.0,0.0,0.0,0.0,0.0,0.0,0.0,0.0,0.0,0.0,0.0,0.0,0.0,0.0,0.0,0.0,0.0,0.0,0.0,0.0,0.0,0.0,0.0,0.0,0.0,0.0,0.0,0.0,0.0,0.0,0.0,0.0,0.0,0.0,0.0,0.0,0.0,0.0,0.0,0.0,0.0,0.0,0.0,0.0,0.0,0.0,0.0,0.0,0.0,0.0,0.0,0.0,0.0,0.0,0.0,0.0,0.0,0.0,0.0,0.0,0.0,0.0,0.0,0.0,0.0,0.0,0.0,0.0,0.0,0.0,0.0,0.0,0.0,0.0,0.0,0.0,0.0,0.0,0.0,0.0,0.0,0.0,0.0,0.0,0.0,0.0,0.0,0.0,0.0,0.0,0.0,0.0,0.0,0.0,0.0,0.0,0.0,0.0,0.0,0.0,0.0,-2.0989,0.0,0.0,0.0,0.0,0.0,0.0,0.0,0.0,0.0,0.0,0.0,0.0,0.0,0.0,0.0,0.0,0.0,0.0,0.0,0.0,0.0,0.0,0.0,0.0,0.0,0.0,0.0,0.0,0.0,0.0,0.0,0.0,0.0,0.0,0.0,0.0,0.0,0.0,0.0,0.0,0.0,0.0,0.0,0.0,0.0,0.0,0.0,0.0,0.0,0.0,0.0,0.0,0.0,0.0,0.0,0.0,0.0,0.0,0.0,0.0,0.0,0.0,0.0,0.0,0.0,0.0,0.0,0.0,0.0,0.0,0.0,0.0,0.0,0.0,0.0,0.0,0.0,0.0,0.0,0.0,0.0,0.0,0.0,0.0,0.0,0.0,0.0,0.0,0.0,0.0,0.0,0.0,0.0,0.0,0.0,0.0,0.0,0.0,0.0,0.0,0.0,0.0,0.0,0.0,0.0,0.0,0.0,0.0,-2.4889,-2.5224,-2.5328,-2.5747,-2.6473,-2.7289,-2.5422,-2.4171,-2.3452,-2.419,0.0,0.0,0.0,0.0,0.0,0.0,0.0,0.0,0.0,0.0,0.0,0.0,0.0,0.0,0.0,0.0,0.0,0.0,0.0,0.0,0.0,0.0,0.0,0.0,0.0,0.0,0.0,0.0,0.0,0.0,0.0,0.0,0.0,0.0,0.0,0.0,0.0,0.0,-2.8165,-2.7496,-2.6034,-2.3821,0.0,0.0,0.0,0.0,0.0,0.0,0.0,0.0,0.0,0.0,0.0,0.0,0.0,0.0,0.0,0.0,0.0,0.0,0.0,0.0,0.0,0.0,0.0,0.0,0.0,0.0,0.0,0.0,0.0,0.0,0.0,0.0,0.0,0.0,0.0,0.0,0.0,0.0,0.0,0.0,0.0,0.0,0.0,0.0,-1.5719,-1.5719,0.0,0.0,0.0,0.0,0.0,0.0,0.0,0.0,0.0,0.0,0.0,0.0,0.0,-2.3311,-2.4306,-2.5292,-2.5649,-2.5503,-2.8371,-2.924,-2.8296,-3.0319,-3.1069,-3.082,-3.0161,0.0,-2.633,-2.5401,0.0,0.0,0.0,0.0,0.0,0.0,0.0,0.0,0.0,0.0,0.0,0.0,0.0,0.0,0.0,0.0,0.0,0.0,0.0,0.0,0.0,0.0,0.0,0.0,0.0,0.0,0.0,0.0,0.0,0.0,0.0,0.0,0.0,0.0,0.0,0.0,-2.8973,-3.013,-3.1645,-3.0446,-2.917,-2.7757,-2.4839,-2.2462,-2.0681,-2.0,0.0,0.0,0.0,0.0,0.0,0.0,0.0,0.0,0.0,0.0,0.0,0.0,0.0,0.0,0.0,0.0,0.0,0.0,0.0,0.0,0.0,0.0,0.0,0.0,0.0,0.0,0.0,0.0,0.0,0.0,0.0,0.0,0.0,0.0,0.0,0.0,0.0,0.0,0.0,-1.6009,-1.6697,-1.6362,-1.6714,-1.6874,0.0,0.0,0.0,0.0,0.0,0.0,0.0,0.0,0.0,-2.6048,-2.6644,-2.7803,-2.9554,-3.0272,-3.0791,-3.115,-3.2596,-3.3138,-3.2899,-3.3882,-3.4219,-3.4004,-3.332,-3.2246,-3.0781,-2.8262,-2.668,-2.5781,0.0,0.0,0.0,0.0,-2.4719,-2.4582,0.0,0.0,0.0,0.0,0.0,0.0,0.0,0.0,0.0,0.0,0.0,0.0,0.0,0.0,0.0,-2.7187,0.0,0.0,0.0,0.0,0.0,0.0,0.0,0.0,0.0,0.0,0.0,0.0,-3.1172,-3.2754,-3.4746,-3.3709,-3.2672,-3.1557,-2.9313,-2.5904,-2.1964,-2.1216,-2.0401,0.0,0.0,0.0,0.0,0.0,0.0,0.0,0.0,0.0,0.0,0.0,0.0,0.0,0.0,0.0,0.0,0.0,0.0,0.0,0.0,0.0,0.0,0.0,0.0,0.0,0.0,0.0,0.0,0.0,0.0,0.0,0.0,0.0,0.0,0.0,0.0,0.0,0.0,-1.7328,-1.7867,-1.6773,-1.8324,-1.9045,0.0,0.0,0.0,0.0,0.0,0.0,-2.519,-2.5965,-2.7534,-3.0209,-3.0953,-3.2302,-3.4394,-3.4844,-3.5391,-3.6035,-3.6152,-3.6309,-3.6504,-3.6387,-3.6348,-3.6289,-3.541,-3.4805,-3.416,-3.0801,-2.8691,-2.75,-2.7168,-2.6562,-2.5937,-2.6269,-2.62,-2.6064,0.0,0.0,0.0,0.0,0.0,0.0,0.0,0.0,0.0,0.0,0.0,0.0,0.0,0.0,-2.8535,-2.9391,-2.9082,-2.9043,0.0,0.0,0.0,0.0,0.0,0.0,0.0,0.0,0.0,-3.1426,-3.3086,-3.4805,-3.6562,-3.7273,-3.6796,-3.535,-3.3187,-2.9302,-2.4329,-2.2352,-2.1534,-2.132,0.0,0.0,0.0,0.0,0.0,0.0,0.0,0.0,0.0,0.0,0.0,0.0,0.0,0.0,0.0,0.0,0.0,0.0,0.0,0.0,0.0,0.0,0.0,0.0,0.0,0.0,0.0,0.0,0.0,0.0,0.0,0.0,0.0,0.0,0.0,0.0,0.0,0.0,0.0,-1.7845,-2.1783,0.0,0.0,0.0,0.0,-2.4772,-2.5558,-2.6957,-2.9106,-3.038,-3.2067,-3.4342,-3.5198,-3.6142,-3.709,-3.7519,-3.7754,-3.7812,-3.8223,-3.8203,-3.7812,-3.7422,-3.7226,-3.7187,-3.6328,-3.5723,-3.5098,-3.2051,-3.0742,-3.0547,-2.9277,-2.8516,-2.8125,-2.8144,-2.7656,-2.6953,0.0,0.0,0.0,0.0,0.0,0.0,0.0,0.0,0.0,0.0,0.0,0.0,0.0,-2.8848,-2.9863,-3.0742,-3.0937,-3.084,-3.0449,0.0,0.0,0.0,0.0,0.0,0.0,0.0,0.0,-3.4004,-3.5449,-3.7031,-3.875,-3.9043,-3.8462,-3.7048,-3.4586,-3.1559,-2.8187,-2.5176,-2.306,-2.1724,-2.0414,-1.9386,0.0,0.0,0.0,0.0,0.0,0.0,0.0,0.0,0.0,0.0,0.0,0.0,0.0,0.0,0.0,0.0,0.0,0.0,0.0,0.0,0.0,0.0,0.0,0.0,0.0,0.0,0.0,0.0,0.0,0.0,0.0,0.0,0.0,0.0,0.0,0.0,0.0,-2.3294,-2.5824,0.0,-2.5874,-2.7322,-2.857,-2.909,-3.074,-3.2294,-3.362,-3.4681,-3.5808,-3.7168,-3.7754,-3.8359,-3.8965,-3.9121,-3.9199,-3.9199,-3.9355,-3.918,-3.875,-3.8594,-3.8379,-3.8086,-3.75,-3.7012,-3.6504,-3.4863,-3.3379,-3.2051,-3.1309,-3.0586,-2.9922,-2.9629,-2.9316,-2.9062,0.0,0.0,0.0,0.0,0.0,0.0,0.0,0.0,0.0,0.0,0.0,-2.7441,-2.8594,-3.0,-3.1387,-3.2715,-3.2559,-3.2207,-3.1777,0.0,0.0,0.0,0.0,0.0,0.0,0.0,0.0,0.0,-3.7168,-3.8555,-4.0098,-4.0098,-3.9278,-3.7798,-3.5366,-3.2889,-3.0445,-2.7291,-2.4823,-2.2926,-2.1737,-2.0855,-2.0067,0.0,0.0,0.0,0.0,0.0,0.0,0.0,0.0,0.0,0.0,0.0,0.0,0.0,0.0,0.0,0.0,0.0,0.0,0.0,0.0,0.0,0.0,0.0,0.0,0.0,0.0,0.0,0.0,0.0,0.0,0.0,0.0,0.0,0.0,0.0,-2.7219,-2.7356,-2.9972,-3.1341,-3.0148,-3.1579,-3.2786,-3.3331,-3.4902,-3.6172,-3.7051,-3.791,-3.8652,-3.9219,-3.9648,-4.0019,-4.0332,-4.0332,-4.0332,-4.0332,-4.0176,-3.9863,-3.9434,-3.9121,-3.8828,-3.8555,-3.8105,-3.7773,-3.7461,-3.6738,-3.5527,-3.4023,-3.3301,-3.25,-3.1699,-3.1406,-3.1016,-3.0625,0.0,0.0,0.0,0.0,0.0,0.0,0.0,0.0,0.0,0.0,-2.6473,-2.7715,-2.9434,-3.125,-3.3105,-3.5234,-3.3828,-3.2969,-3.3359,-2.9805,0.0,0.0,0.0,0.0,0.0,0.0,0.0,0.0,0.0,0.0,-4.0547,-4.0547,-3.9641,-3.7896,-3.5719,-3.3337,-3.0929,-2.8675,-2.6734,-2.5024,-2.322,-2.2645,-2.2579,0.0,0.0,0.0,0.0,0.0,0.0,0.0,0.0,0.0,0.0,0.0,0.0,0.0,0.0,0.0,0.0,0.0,0.0,0.0,0.0,0.0,0.0,0.0,0.0,0.0,0.0,0.0,0.0,0.0,0.0,0.0,0.0,0.0,-2.5196,-2.8563,-3.0738,-2.9626,-3.4128,-3.6213,-3.3267,-3.4882,-3.6504,-3.7344,-3.7793,-3.8379,-3.9219,-4.0078,-4.0547,-4.0547,-4.0957,-4.1172,-4.1172,-4.1172,-4.1172,-4.1172,-4.0742,-4.0332,-3.9883,-3.9023,-3.8613,-3.8574,-3.8144,-3.7949,-3.7891,-3.748,-3.707,-3.6543,-3.5234,-3.4199,-3.3457,-3.3418,-3.2598,-3.1445,0.0,0.0,0.0,0.0,0.0,0.0,0.0,0.0,0.0,0.0,-2.7234,-2.8945,-3.0371,-3.2598,-3.4492,-3.5742,-3.4258,-3.3047,-3.2539,0.0,0.0,0.0,0.0,0.0,0.0,0.0,0.0,0.0,0.0,0.0,0.0,-4.0996,-4.0725,-4.0099,-3.6362,-3.4359,-3.3466,-2.9646,-2.7819,-2.7108,-2.4903,-2.3554,-2.2727,0.0,0.0,0.0,0.0,0.0,0.0,0.0,0.0,0.0,0.0,0.0,0.0,0.0,0.0,0.0,0.0,0.0,0.0,0.0,0.0,0.0,0.0,0.0,0.0,0.0,0.0,0.0,0.0,0.0,0.0,0.0,0.0,-2.9446,-2.8865,-3.2166,-3.4931,-3.5901,-3.7904,-3.8954,-3.841,-3.8918,-3.9375,-3.9609,-4.0039,-4.0391,-4.0625,-4.0859,-4.0996,-4.0996,-4.1113,-4.1172,-4.1172,-4.1172,-4.1172,-4.1172,-4.1055,-4.0762,-4.0332,-4.0098,-3.9629,-3.9023,-3.8906,-3.8496,-3.791,-3.7793,-3.7324,-3.6582,-3.5586,-3.4844,-3.4238,-3.3301,-3.2168,-3.1055,0.0,0.0,0.0,0.0,0.0,0.0,0.0,0.0,0.0,0.0,-2.7441,-2.916,-3.0449,-3.2578,-3.4258,-3.5137,-3.3613,-3.2266,-3.1406,0.0,0.0,0.0,0.0,0.0,0.0,0.0,0.0,0.0,0.0,0.0,0.0,0.0,0.0,-4.0216,-3.6667,-3.4522,-3.3325,-2.9944,-2.8377,-2.81,-2.6653,-2.5611,-2.4676,-2.2712,-2.183,-2.1523,-2.0548,-2.0294,-2.0321,-1.9639,0.0,0.0,0.0,0.0,0.0,0.0,0.0,0.0,0.0,0.0,0.0,0.0,0.0,0.0,0.0,0.0,0.0,0.0,0.0,0.0,0.0,0.0,0.0,0.0,-3.1047,-3.3227,-3.3965,-3.5819,-3.7656,-3.9199,-4.0156,-4.0781,-4.1035,-4.1211,-4.1328,-4.1328,-4.1387,-4.1426,-4.1426,-4.1269,-4.1172,-4.1172,-4.1172,-4.1172,-4.1172,-4.1172,-4.1172,-4.1172,-4.1172,-4.0937,-4.0527,-4.0527,-4.0137,-3.9492,-3.9492,-3.9101,-3.8437,-3.8262,-3.7695,0.0,0.0,0.0,0.0,0.0,-3.207,-3.1367,0.0,0.0,0.0,0.0,0.0,0.0,0.0,0.0,0.0,0.0,0.0,-2.873,-2.9863,-3.1582,-3.2969,-3.3789,-3.2285,-3.0918,0.0,0.0,0.0,0.0,0.0,0.0,0.0,0.0,0.0,0.0,0.0,0.0,0.0,0.0,0.0,0.0,-3.689,-3.4474,-3.2342,-3.0063,-2.8778,-2.8382,-2.8382,-2.8016,-2.7335,-2.493,-2.4142,-2.4115,-2.2699,-2.175,-2.1149,-2.0975,0.0,0.0,0.0,0.0,0.0,0.0,0.0,0.0,0.0,0.0,0.0,0.0,0.0,0.0,0.0,0.0,0.0,0.0,0.0,0.0,0.0,0.0,0.0,0.0,-3.4727,-3.7187,-3.9277,-3.9238,-3.9414,-4.0527,-4.1426,-4.1933,-4.1875,-4.2246,-4.2461,-4.2363,-4.2012,-4.1777,-4.1738,0.0,0.0,0.0,0.0,-4.1172,-4.1172,-4.1172,-4.1172,-4.1172,-4.1172,-4.0976,-4.0586,-4.0586,-4.0332,-3.9902,-3.9902,-3.9609,-3.9101,-3.873,-3.8066,-3.7246,-3.6719,-3.5742,-3.4434,-3.2832,-3.2187,-3.1973,0.0,0.0,0.0,0.0,0.0,0.0,0.0,0.0,0.0,-2.5577,-2.7226,-2.8379,-2.8633,-3.0508,-3.1973,-3.25,-3.0957,-2.959,0.0,0.0,0.0,0.0,0.0,0.0,0.0,0.0,0.0,0.0,0.0,0.0,0.0,0.0,0.0,0.0,0.0,0.0,-3.5124,-3.1149,-2.9325,-2.9219,-2.9219,-2.8323,-2.6881,-2.5905,-2.5277,-2.4783,-2.3781,-2.3768,-2.4048,-2.2914,-2.2727,-2.2699,-2.1443,0.0,0.0,0.0,0.0,0.0,0.0,0.0,0.0,0.0,0.0,0.0,0.0,0.0,0.0,0.0,0.0,0.0,0.0,0.0,0.0,-3.5166,-3.7528,-3.9766,-4.1543,-4.1738,-4.166,-4.1562,-4.2305,-4.2695,-4.2344,-4.2695,-4.2656,-4.1973,-4.1836,-4.166,-4.1308,-4.1211,-4.1172,-4.1172,-4.1172,-4.1172,-4.1172,-4.1172,-4.1172,-4.1172,0.0,0.0,-4.1055,-4.1055,-4.0625,-3.9902,-3.9902,-3.9434,-3.8691,-3.8613,-3.8066,-3.7187,-3.6074,-3.5059,-3.4062,-3.3047,-3.2226,-3.1562,0.0,0.0,0.0,0.0,0.0,0.0,0.0,0.0,0.0,0.0,-2.6719,-2.7734,-2.7949,-2.9121,-3.0,-3.0215,0.0,0.0,0.0,0.0,0.0,0.0,0.0,0.0,0.0,0.0,0.0,0.0,0.0,0.0,0.0,0.0,0.0,0.0,0.0,0.0,0.0,-3.313,-3.0868,-2.9472,-2.9325,-2.8644,-2.7669,-2.7215,-2.676,-2.6092,-2.5504,-2.5291,-2.5184,-2.4436,-2.4102,-2.3861,-2.3113,-2.2271,-2.1403,0.0,0.0,0.0,0.0,0.0,0.0,0.0,0.0,0.0,0.0,0.0,0.0,0.0,0.0,-3.1702,0.0,0.0,-3.7268,-3.9052,-4.0395,-4.1543,-4.2598,-4.2754,-4.2676,-4.2461,-4.2812,-4.3164,-4.3398,-4.3398,-4.3301,-4.3125,-4.248,-4.2031,-4.1816,-4.1406,-4.1172,-4.1172,-4.1172,-4.1172,-4.1172,-4.1172,-4.1172,-4.1172,-4.1172,-4.1172,-4.1172,-4.0957,-4.0605,-4.0195,-3.998,-3.9512,-3.8828,-3.8203,-3.7559,-3.6894,-3.6035,-3.5176,-3.4348,-3.3838,-3.2834,-3.1858,0.0,0.0,0.0,0.0,0.0,0.0,0.0,0.0,0.0,0.0,0.0,-2.6894,-2.7246,-2.7676,-2.7891,0.0,0.0,0.0,0.0,0.0,0.0,0.0,0.0,0.0,0.0,0.0,0.0,0.0,0.0,0.0,0.0,0.0,0.0,0.0,0.0,0.0,0.0,0.0,0.0,-2.9713,-2.9419,-2.9058,-2.8671,-2.8417,-2.7909,-2.7308,-2.6947,-2.6226,-2.5438,-2.5491,-2.501,-2.4382,-2.4436,-2.3915,-2.31,-2.2164,-2.1686,0.0,0.0,0.0,0.0,0.0,0.0,0.0,0.0,0.0,-3.2422,-3.3457,-3.4551,-3.6016,-3.8262,-3.9316,-4.0488,-4.248,-4.2734,-4.2832,-4.3281,-4.3262,-4.3203,-4.3203,-4.3281,-4.3555,-4.4082,-4.3887,-4.3789,-4.4004,-4.2949,-4.2305,-4.2305,-4.1582,-4.1172,-4.1172,-4.1172,-4.1172,-4.1172,-4.1172,-4.1172,-4.1172,-4.1172,-4.1172,-4.1152,-4.0723,-4.0469,-4.0371,-3.9863,-3.9434,-3.8984,-3.7793,-3.709,-3.6719,-3.6035,-3.5332,-3.4642,-3.4411,-3.3478,-3.2391,0.0,0.0,0.0,0.0,0.0,0.0,0.0,0.0,0.0,0.0,0.0,0.0,0.0,0.0,0.0,0.0,0.0,0.0,0.0,0.0,0.0,0.0,0.0,0.0,0.0,0.0,0.0,0.0,0.0,0.0,0.0,0.0,0.0,0.0,0.0,0.0,0.0,0.0,0.0,0.0,-3.0327,-2.9726,-2.8991,-2.8951,-2.8404,-2.7575,-2.7028,-2.6092,-2.517,-2.5424,-2.5277,-2.5024,-2.5291,-2.5117,-2.4556,-2.3196,0.0,-2.2671,-2.2735,-2.4854,-2.7909,-3.0992,-3.1935,-3.2988,0.0,0.0,-3.7051,-3.8691,-3.9453,-4.0117,-4.1172,-4.1758,-4.2519,-4.3945,-4.3828,-4.373,-4.418,-4.3906,-4.3633,-4.3633,-4.4004,-4.3984,-4.3281,-4.3516,-4.3418,-4.2695,-4.2168,-4.1875,-4.1875,-4.1426,-4.1172,-4.1172,-4.1172,-4.1172,-4.1172,-4.1172,-4.1172,-4.1172,-4.1172,-4.1172,-4.1152,-4.0723,-4.0312,-3.9922,-3.9082,-3.8691,-3.8574,-3.7676,-3.7266,-3.707,-3.5469,-3.4785,-3.4629,-3.4255,-3.3568,-3.2844,0.0,0.0,0.0,0.0,0.0,0.0,0.0,0.0,0.0,0.0,0.0,0.0,0.0,0.0,0.0,0.0,0.0,0.0,0.0,0.0,0.0,0.0,0.0,0.0,0.0,0.0,0.0,0.0,0.0,0.0,0.0,0.0,0.0,0.0,0.0,0.0,0.0,0.0,0.0,0.0,0.0,0.0,-2.8751,-2.839,-2.7602,-2.6613,-2.6012,-2.5277,0.0,0.0,-2.4275,-2.4422,-2.5064,-2.4823,-2.4305,-2.4022,-2.405,0.0,-2.6265,-2.9169,0.0,0.0,-3.4785,-3.666,-3.8223,-3.8887,-3.9531,-4.0742,-4.1738,-4.2637,-4.3516,-4.3828,-4.4277,0.0,-4.4922,-4.4551,-4.4726,-4.416,-4.3516,-4.3027,-4.3125,-4.3301,-4.3437,-4.3144,-4.291,-4.2812,-4.2187,-4.1797,-4.1797,-4.1406,-4.1172,-4.1172,-4.1172,-4.1172,-4.1172,-4.1172,-4.1172,-4.1172,-4.1172,-4.1035,-4.0781,-4.0351,-3.9648,-3.875,-3.8633,-3.8144,-3.7461,-3.7344,-3.6992,-3.6465,-3.5488,-3.4941,-3.4831,-3.5666,-3.506,-3.4017,0.0,0.0,0.0,0.0,0.0,0.0,0.0,0.0,0.0,0.0,0.0,0.0,0.0,0.0,0.0,0.0,0.0,0.0,0.0,0.0,0.0,0.0,0.0,0.0,0.0,0.0,0.0,0.0,0.0,0.0,0.0,0.0,0.0,0.0,0.0,0.0,0.0,0.0,0.0,0.0,0.0,0.0,-2.8404,-2.7722,-2.6627,-2.5411,-2.4903,-2.4075,0.0,0.0,-2.3283,-2.3625,-2.4959,-2.5017,-2.462,-2.5182,-2.5866,-2.6955,-2.9564,0.0,0.0,-3.5391,-3.7715,-4.0,-4.0293,-4.1172,-4.2148,-4.2891,-4.3594,-4.4258,-4.4902,-4.4824,-4.4941,-4.5801,-4.5332,-4.4902,-4.5,-4.416,-4.3223,-4.2363,-4.1933,-4.1973,-4.2598,-4.2422,-4.2383,-4.2695,-4.2051,-4.168,-4.1797,-4.1406,-4.1172,-4.1172,-4.1172,-4.1172,-4.1172,-4.1172,-4.1172,-4.1172,-4.1172,-4.1016,-4.0684,-4.0137,-3.918,-3.7949,-3.8379,-3.791,-3.6875,-3.7168,-3.6855,-3.6133,-3.5469,-3.5244,-3.557,-3.704,-3.6404,-3.5092,0.0,0.0,0.0,0.0,0.0,0.0,0.0,0.0,0.0,0.0,0.0,0.0,0.0,0.0,0.0,0.0,0.0,0.0,0.0,0.0,0.0,0.0,0.0,0.0,0.0,0.0,0.0,0.0,0.0,0.0,0.0,0.0,0.0,0.0,0.0,0.0,0.0,0.0,0.0,0.0,0.0,0.0,-2.814,-2.7175,-2.5772,-2.4222,-2.3915,0.0,0.0,0.0,-2.2537,-2.2795,-2.5281,-2.6245,0.0,-2.6922,-2.8201,-2.9927,0.0,0.0,-3.5957,-3.8437,-4.0391,-4.2266,-4.4355,-4.5195,-4.5644,-4.6074,-4.5527,-4.5,-4.5019,-4.4316,-4.4023,-4.4922,-4.4707,-4.4551,-4.4961,-4.3906,-4.2773,-4.1914,-4.0723,-3.998,0.0,-4.1113,-4.1816,-4.1836,-4.1426,-4.1367,-4.1777,-4.1406,-4.1172,-4.1172,-4.1172,-4.1172,-4.1172,-4.1172,-4.1172,-4.1172,-4.1172,-4.1172,-4.1133,-4.0273,-3.918,-3.7949,-3.8379,-3.8086,-3.7285,-3.7285,-3.7031,-3.6523,-3.5234,-3.5666,-3.7107,-3.7896,-3.7161,-3.5821,0.0,0.0,0.0,0.0,0.0,0.0,0.0,0.0,0.0,0.0,0.0,0.0,0.0,0.0,0.0,0.0,0.0,0.0,0.0,0.0,0.0,0.0,0.0,0.0,0.0,0.0,0.0,0.0,0.0,0.0,0.0,0.0,0.0,0.0,0.0,0.0,0.0,0.0,0.0,0.0,0.0,0.0,-2.7121,-2.5852,-2.4893,-2.4099,0.0,0.0,0.0,0.0,0.0,0.0,-2.4151,-2.4762,-2.5256,-2.7142,-2.9416,-3.1822,-3.4128,0.0,-3.9277,-4.1269,-4.3301,-4.5039,-4.6055,-4.6406,-4.6387,-4.5976,-4.4512,-4.3125,-4.2578,-4.1758,-4.1543,-4.2695,-4.3476,-4.3984,-4.4121,-4.4277,-4.3418,-4.084,-4.0898,0.0,0.0,0.0,0.0,-4.0898,-4.082,-4.1055,-4.1758,-4.1406,-4.1308,-4.1582,-4.1328,-4.1172,-4.1172,-4.1172,-4.1172,-4.1172,-4.0605,-4.0156,-3.9844,-3.9277,-3.8476,-3.7539,-3.7949,-3.75,-3.6465,-3.6758,-3.6465,-3.5742,-3.5,-3.5529,-3.6666,-3.621,-3.7081,-3.8573,0.0,0.0,0.0,0.0,0.0,0.0,0.0,0.0,0.0,0.0,0.0,0.0,0.0,0.0,0.0,0.0,0.0,0.0,0.0,0.0,0.0,0.0,0.0,0.0,0.0,0.0,0.0,0.0,0.0,0.0,0.0,0.0,0.0,0.0,0.0,0.0,0.0,0.0,0.0,0.0,0.0,0.0,-2.5313,-2.4252,-2.3609,0.0,0.0,0.0,0.0,0.0,0.0,0.0,-2.4127,-2.5482,-2.6721,-2.8858,-3.1398,-3.4141,-3.6894,-3.9609,-4.2109,-4.3984,-4.5723,-4.7051,-4.7324,-4.7031,-4.6367,-4.5215,-4.3125,-4.1211,-4.0195,-3.9199,-3.8926,-4.0215,-4.123,-4.2187,-4.3125,-4.334,-4.2773,-4.1016,-4.084,-4.0391,0.0,0.0,0.0,-4.0449,-4.0664,-4.0996,-4.1543,-4.1328,-4.1308,-4.1562,-4.1308,-4.1172,-4.1172,-4.1172,-4.1172,-4.1172,-4.0449,-3.9883,-3.9434,-3.8848,-3.8105,-3.7305,-3.7578,-3.7051,-3.6055,-3.6484,-3.6172,-3.5351,-3.4883,-3.5814,-3.7243,-3.6449,-3.7937,-4.0335,0.0,0.0,0.0,0.0,0.0,0.0,0.0,0.0,0.0,0.0,0.0,0.0,0.0,0.0,0.0,0.0,0.0,0.0,0.0,0.0,0.0,0.0,0.0,0.0,-3.1348,-3.1836,-3.2461,-3.3281,0.0,0.0,0.0,0.0,0.0,0.0,0.0,0.0,0.0,0.0,0.0,0.0,0.0,0.0,-2.2849,-2.2591,0.0,0.0,0.0,0.0,0.0,0.0,0.0,0.0,0.0,-2.832,-3.0566,-3.1992,-3.4199,-3.6836,-3.9863,-4.2246,-4.4375,-4.6504,-4.7617,-4.8203,-4.8144,-4.7109,-4.5664,-4.3906,-4.1465,-3.9219,0.0,0.0,-3.6348,-3.7656,-3.8379,-3.9648,-4.2148,-4.1504,-4.1191,0.0,0.0,0.0,0.0,0.0,0.0,-4.0469,0.0,-4.1152,-4.1211,-4.1191,-4.1191,-4.1211,-4.1191,-4.1172,-4.1172,-4.1172,-4.1172,-4.1133,-4.0703,-4.0273,-3.9824,-3.8945,-3.8086,-3.7305,-3.7266,-3.6797,-3.6055,-3.6445,-3.6113,-3.5312,-3.4844,-3.6327,-3.8691,-3.8276,-3.9423,-4.0906,0.0,0.0,0.0,0.0,0.0,0.0,0.0,0.0,0.0,0.0,0.0,0.0,0.0,0.0,0.0,0.0,0.0,0.0,0.0,0.0,0.0,0.0,0.0,0.0,0.0,-3.0312,0.0,0.0,0.0,0.0,0.0,0.0,0.0,0.0,0.0,0.0,0.0,0.0,0.0,0.0,0.0,0.0,-2.2611,0.0,0.0,0.0,0.0,0.0,0.0,0.0,0.0,0.0,0.0,-3.0625,-3.2168,-3.4766,-3.6894,-3.9043,-4.207,-4.4473,-4.6465,-4.7988,-4.8281,-4.8047,-4.7402,-4.5762,-4.3789,-4.1758,-3.8496,-3.5625,0.0,0.0,0.0,-3.6719,-3.9492,0.0,-4.3203,-4.3945,0.0,-4.2148,0.0,-4.1152,-4.0,-4.0078,0.0,0.0,-4.0625,-4.0957,-4.1601,-4.1348,-4.1308,-4.1621,-4.1348,-4.1172,-4.1172,-4.1172,-4.1016,-4.0684,-4.0254,-3.9824,-3.9355,-3.8476,-3.7793,-3.7285,-3.6973,-3.6523,-3.5996,-3.5801,-3.5391,-3.4824,-3.4394,-3.5179,-3.6603,-3.6912,-3.8055,-3.9509,0.0,0.0,0.0,0.0,0.0,0.0,0.0,0.0,0.0,0.0,0.0,0.0,0.0,0.0,0.0,0.0,0.0,0.0,0.0,0.0,0.0,0.0,0.0,0.0,0.0,0.0,0.0,0.0,0.0,0.0,0.0,0.0,0.0,0.0,0.0,0.0,0.0,0.0,0.0,0.0,0.0,0.0,0.0,0.0,0.0,0.0,0.0,0.0,0.0,0.0,0.0,-3.0098,-3.1973,-3.3281,-3.4766,-3.7988,0.0,-4.1523,-4.4355,-4.6426,-4.7949,-4.8672,-4.8398,-4.75,-4.5879,-4.4004,-4.1719,-3.8613,-3.5781,0.0,-3.1934,0.0,0.0,0.0,0.0,0.0,-4.2344,-4.3398,-4.3633,0.0,-4.2676,0.0,-4.1113,-4.1055,-4.1094,0.0,-4.0918,-4.1016,-4.1504,-4.1308,-4.1289,-4.1523,-4.1308,-4.1172,-4.1172,-4.1172,-4.0957,-4.0527,-4.0098,-3.9551,-3.8906,-3.8047,-3.7422,-3.6992,0.0,-3.6074,-3.5976,-3.5351,-3.4941,-3.4668,-3.4238,-3.4765,-3.5884,-3.6648,-3.7782,-3.9014,0.0,0.0,0.0,0.0,0.0,0.0,0.0,0.0,0.0,0.0,0.0,0.0,0.0,0.0,0.0,0.0,0.0,0.0,0.0,0.0,0.0,0.0,0.0,0.0,0.0,0.0,0.0,0.0,0.0,0.0,0.0,0.0,0.0,0.0,0.0,0.0,0.0,0.0,0.0,0.0,0.0,0.0,0.0,0.0,0.0,0.0,0.0,0.0,0.0,0.0,-3.0215,-3.1855,-3.4473,-3.6211,-3.793,-4.1328,-4.2851,-4.3965,-4.6426,-4.7949,-4.8867,-4.8867,-4.8086,-4.666,-4.4121,-4.1953,-3.9316,-3.5215,0.0,-3.1797,-3.0234,-3.0762,-3.1934,-3.3437,0.0,-3.7988,-4.1074,-4.1816,-4.248,-4.3652,-4.3418,-4.2988,-4.2558,-4.2187,-4.1914,-4.1816,-4.1465,-4.123,-4.1172,-4.1172,-4.1172,-4.1172,-4.1172,-4.1172,-4.1172,-4.1172,-4.0957,-4.0527,-4.0098,-3.9434,-3.8555,-3.7695,-3.707,-3.6621,-3.5762,-3.5605,-3.5859,-3.498,-3.4609,-3.457,-3.416,-3.4725,-3.5926,-3.7015,-3.8034,-3.9038,0.0,0.0,0.0,0.0,0.0,0.0,0.0,0.0,0.0,0.0,-2.3101,-2.3101,0.0,0.0,0.0,0.0,0.0,0.0,0.0,0.0,0.0,0.0,0.0,0.0,0.0,0.0,0.0,0.0,0.0,0.0,0.0,0.0,0.0,0.0,0.0,0.0,0.0,0.0,0.0,0.0,0.0,0.0,0.0,0.0,0.0,0.0,0.0,0.0,0.0,0.0,-3.2383,-3.4551,-3.75,-3.9336,-4.0996,-4.4101,-4.5117,-4.5625,-4.748,-4.8418,-4.8867,-4.8867,-4.7422,-4.541,-4.3164,-3.9668,0.0,0.0,-3.0996,-2.9394,-2.875,-2.9922,-3.1894,-3.4609,0.0,0.0,0.0,0.0,-4.3594,0.0,0.0,0.0,0.0,0.0,0.0,0.0,0.0,-4.1543,-4.1191,-4.1172,-4.1172,-4.1172,-4.1172,-4.1172,-4.1172,-4.1172,-4.0957,-4.0527,-4.0098,-3.9434,-3.8555,-3.7695,-3.707,-3.6621,-3.5762,0.0,-3.543,-3.4551,-3.418,-3.4141,-3.3711,-3.4443,-3.5926,-3.7015,-3.8034,-3.9038,0.0,0.0,0.0,0.0,0.0,0.0,0.0,0.0,-2.3101,-2.3101,-2.3296,-2.3354,-2.312,-2.3101,0.0,0.0,0.0,0.0,0.0,0.0,0.0,0.0,0.0,0.0,0.0,0.0,0.0,0.0,0.0,0.0,0.0,0.0,0.0,0.0,0.0,0.0,0.0,0.0,0.0,0.0,0.0,0.0,0.0,0.0,0.0,0.0,0.0,0.0,0.0,0.0,-3.1523,-3.4766,-3.8926,-4.082,-4.209,-4.5117,-4.584,-4.6094,-4.8027,-4.8691,-4.8808,-4.8574,-4.6562,-4.3906,-4.1074,0.0,0.0,0.0,-2.9316,-2.8457,-2.8047,0.0,0.0,0.0,0.0,0.0,0.0,0.0,0.0,0.0,0.0,0.0,0.0,0.0,0.0,0.0,0.0,-4.1387,-4.1191,-4.1172,-4.1172,-4.1172,-4.1172,-4.1074,-4.084,-4.084,-4.0508,-3.9824,-3.9629,-3.8965,-3.7891,-3.748,-3.6953,-3.6289,-3.541,0.0,-3.5312,-3.4199,-3.3867,-3.4023,-3.3594,-3.4363,-3.5926,-3.7015,-3.8034,-3.9038,0.0,0.0,0.0,0.0,0.0,0.0,0.0,-2.3101,-2.3101,-2.3101,-2.3437,-2.3516,-2.314,-2.3179,-2.3198,0.0,0.0,0.0,0.0,0.0,0.0,0.0,0.0,0.0,0.0,0.0,0.0,0.0,0.0,0.0,0.0,0.0,0.0,0.0,0.0,0.0,0.0,0.0,0.0,0.0,0.0,0.0,0.0,0.0,0.0,0.0,0.0,0.0,0.0,0.0,-2.9883,-3.3164,-3.7988,-4.0508,-4.2148,-4.4609,-4.5566,-4.6211,-4.8086,-4.8711,-4.873,-4.8203,-4.5723,-4.2558,-3.9199,-3.5547,0.0,0.0,-2.8066,-2.7832,-2.7748,0.0,-3.0059,0.0,0.0,0.0,0.0,0.0,0.0,0.0,0.0,0.0,0.0,0.0,0.0,0.0,0.0,0.0,-4.1172,-4.1172,-4.1172,-4.1172,-4.1172,-4.0957,-4.0527,-4.0527,-4.0078,-3.9199,-3.9101,-3.8437,-3.7285,-3.7207,-3.6738,-3.5976,-3.5078,0.0,0.0,-3.3926,-3.3633,-3.3906,-3.3555,-3.4363,-3.5886,-3.6768,-3.7906,-3.9229,0.0,0.0,0.0,0.0,0.0,0.0,0.0,-2.3101,-2.3101,-2.3101,-2.314,-2.314,-2.3101,-2.3496,-2.3574,0.0,0.0,0.0,0.0,0.0,0.0,0.0,0.0,0.0,0.0,0.0,0.0,0.0,0.0,0.0,0.0,0.0,0.0,0.0,0.0,0.0,0.0,0.0,0.0,0.0,0.0,0.0,0.0,0.0,0.0,0.0,0.0,0.0,0.0,0.0,0.0,-2.9394,-3.3008,-3.7402,-4.1367,-4.2031,0.0,0.0,-4.7441,-4.8262,-4.8652,-4.7832,-4.5078,-4.1738,-3.8672,0.0,0.0,-2.8691,-2.7363,-2.6797,-2.7591,-2.7845,-2.8691,0.0,0.0,0.0,0.0,0.0,0.0,0.0,0.0,0.0,0.0,0.0,0.0,0.0,0.0,0.0,-4.1172,-4.1172,-4.1172,-4.1172,-4.1172,-4.0957,-4.0527,-4.0527,-4.0078,-3.9199,-3.8809,-3.8164,-3.7285,-3.6894,-3.6465,-3.5976,-3.5078,0.0,0.0,-3.3789,-3.3437,-3.3476,-3.3437,-3.4363,-3.5806,-3.5926,-3.7525,-3.9736,0.0,0.0,0.0,0.0,0.0,0.0,0.0,-2.2925,-2.3101,-2.3101,-2.3379,-2.3437,-2.312,-2.3535,-2.3613,0.0,0.0,0.0,0.0,0.0,0.0,0.0,0.0,0.0,0.0,0.0,0.0,0.0,0.0,0.0,0.0,0.0,0.0,0.0,0.0,0.0,0.0,0.0,0.0,0.0,0.0,0.0,0.0,0.0,0.0,0.0,0.0,0.0,0.0,0.0,0.0,0.0,-2.8125,-3.1426,0.0,0.0,-4.166,-4.3789,-4.6465,-4.7637,-4.7891,-4.7031,-4.3828,-4.0176,-3.7402,0.0,0.0,-2.8164,-2.7305,-2.6875,-2.7207,-2.748,-2.8008,0.0,0.0,0.0,0.0,0.0,0.0,0.0,0.0,0.0,0.0,0.0,0.0,0.0,0.0,0.0,-4.1191,-4.1172,-4.1055,-4.0781,-4.0781,-4.0449,-3.9726,-3.9726,-3.9414,-3.8828,-3.8379,-3.7871,-3.7285,-3.6855,-3.6289,-3.5605,-3.498,0.0,0.0,-3.3672,-3.3418,-3.3418,-3.3418,-3.4363,-3.5806,-3.5806,-3.7274,-3.9276,0.0,0.0,0.0,0.0,0.0,-2.2363,-2.25,-2.2711,-2.2964,-2.3081,-2.3398,-2.3477,-2.314,-2.3418,-2.3477,-2.312,0.0,0.0,0.0,0.0,0.0,0.0,0.0,0.0,0.0,0.0,0.0,-2.3101,-2.3101,0.0,0.0,0.0,0.0,0.0,0.0,0.0,0.0,0.0,0.0,0.0,0.0,0.0,0.0,0.0,0.0,0.0,0.0,0.0,0.0,0.0,0.0,0.0,0.0,0.0,0.0,0.0,-3.8672,-4.123,-4.4219,-4.5918,-4.6582,-4.5586,-4.2402,-3.8828,0.0,0.0,-2.8711,-2.7988,-2.7207,-2.6758,-2.7129,-2.7246,-2.7415,0.0,0.0,0.0,0.0,0.0,0.0,0.0,0.0,0.0,0.0,0.0,0.0,0.0,0.0,0.0,-4.1191,-4.1172,-4.0976,-4.0527,-4.0527,-4.0098,-3.9219,-3.9199,-3.8926,-3.8379,-3.7949,-3.7519,-3.709,-3.668,-3.6074,-3.5371,-3.4902,0.0,0.0,-3.3594,-3.3418,-3.3418,-3.3418,-3.407,-3.5088,-3.5088,-3.6329,-3.7954,0.0,0.0,0.0,0.0,0.0,0.0,0.0,-2.2519,-2.2676,-2.3042,-2.3101,-2.3101,-2.3101,-2.3101,-2.3101,-2.3101,0.0,0.0,0.0,0.0,0.0,0.0,0.0,0.0,0.0,0.0,-2.3101,-2.3101,-2.3101,-2.3101,-2.3101,0.0,0.0,0.0,0.0,0.0,0.0,0.0,0.0,0.0,0.0,0.0,0.0,0.0,0.0,0.0,0.0,0.0,0.0,0.0,0.0,0.0,0.0,0.0,0.0,0.0,-3.5215,-3.9414,-4.0332,-4.2773,-4.4746,-4.3437,-4.084,-3.791,0.0,0.0,-2.8789,-2.8379,-2.6934,-2.6133,-2.7474,-2.6973,-2.668,-2.7571,0.0,0.0,0.0,0.0,0.0,0.0,0.0,0.0,0.0,0.0,0.0,0.0,0.0,0.0,-4.1172,-4.1172,-4.0976,-4.0527,-4.0527,-4.0098,-3.9219,-3.9199,-3.8769,-3.793,-3.75,-3.709,-3.666,-3.623,-3.5801,-3.5371,0.0,0.0,0.0,-3.3594,-3.3418,-3.3418,-3.3418,-3.3418,-3.3418,-3.3418,-3.4425,-3.5846,0.0,0.0,0.0,0.0,0.0,0.0,0.0,-2.2324,-2.2656,-2.3042,-2.3101,-2.3101,-2.3101,-2.3101,-2.3101,-2.3101,0.0,0.0,0.0,0.0,0.0,0.0,0.0,0.0,0.0,0.0,-2.3101,-2.3101,-2.3101,-2.3101,-2.3101,-2.3101,-2.3101,0.0,0.0,0.0,0.0,0.0,0.0,0.0,0.0,0.0,0.0,0.0,0.0,0.0,0.0,0.0,0.0,0.0,0.0,0.0,0.0,0.0,0.0,0.0,0.0,0.0,-3.6894,-3.8359,-3.9082,-3.8066,-3.6211,-3.418,-3.248,0.0,-2.8027,-2.7891,-2.7187,-2.6641,-2.6777,-2.6816,-2.7012,-2.763,-2.7826,0.0,0.0,0.0,0.0,0.0,0.0,0.0,0.0,0.0,0.0,0.0,0.0,0.0,-4.1191,-4.1172,-4.084,-4.0117,-4.0098,-3.9531,-3.834,-3.832,-3.8047,-3.748,-3.6777,-3.6348,-3.6191,-3.5449,-3.4883,0.0,0.0,0.0,0.0,-3.3476,-3.3418,-3.3418,-3.3418,-3.3418,-3.3544,-3.4612,-3.5148,-3.5426,0.0,0.0,0.0,0.0,0.0,0.0,0.0,-2.1855,-2.2246,-2.2789,-2.2847,-2.2925,-2.3081,-2.3101,-2.3101,-2.3101,0.0,0.0,0.0,0.0,0.0,0.0,0.0,0.0,0.0,-2.3101,-2.3101,-2.3101,-2.3101,-2.3101,-2.3101,-2.3101,-2.3101,-2.3101,-2.3101,0.0,0.0,0.0,0.0,0.0,0.0,0.0,-2.3101,0.0,0.0,0.0,0.0,0.0,0.0,0.0,0.0,0.0,0.0,0.0,0.0,0.0,-2.75,0.0,0.0,-3.4609,-3.5273,-3.459,-3.3242,0.0,0.0,0.0,-2.7422,-2.7422,-2.6953,-2.6504,-2.6406,-2.6465,-2.6719,-2.7324,-2.7422,0.0,0.0,0.0,0.0,0.0,0.0,0.0,0.0,0.0,0.0,0.0,0.0,0.0,-4.0957,-4.0918,-4.0527,-3.9668,-3.9805,-3.9258,-3.793,-3.793,-3.7559,-3.6816,-3.6269,-3.584,-3.5508,-3.4961,-3.4473,0.0,0.0,0.0,0.0,-3.3418,-3.3418,-3.3418,-3.3418,-3.3418,-3.3544,-3.455,-3.5046,-3.5346,0.0,0.0,0.0,0.0,0.0,0.0,0.0,0.0,0.0,-2.2363,-2.2461,-2.2617,-2.3003,-2.3042,-2.3062,0.0,0.0,0.0,0.0,0.0,0.0,0.0,0.0,0.0,0.0,-2.3101,-2.3101,-2.3101,-2.312,-2.314,-2.314,-2.314,-2.314,-2.314,-2.3101,0.0,0.0,0.0,0.0,0.0,0.0,0.0,0.0,0.0,0.0,0.0,0.0,0.0,0.0,0.0,0.0,0.0,0.0,0.0,0.0,0.0,0.0,0.0,0.0,0.0,0.0,0.0,0.0,0.0,0.0,0.0,0.0,-2.6973,-2.6278,-2.5869,-2.6348,-2.6094,-2.6064,-2.7012,-2.7148,0.0,0.0,0.0,0.0,0.0,0.0,0.0,0.0,0.0,0.0,0.0,0.0,0.0,-4.0547,-4.0488,-4.0078,-3.9238,-3.959,-3.918,-3.7891,-3.7851,-3.7226,-3.6016,-3.5957,-3.5488,-3.4707,-3.4629,-3.4394,0.0,0.0,0.0,0.0,-3.3379,-3.3379,-3.3379,-3.334,-3.332,-3.334,-3.3485,-3.4365,-3.5354,0.0,0.0,0.0,0.0,0.0,0.0,0.0,0.0,0.0,0.0,-2.2031,-2.2187,-2.2617,-2.2656,-2.275,0.0,0.0,0.0,0.0,0.0,0.0,0.0,0.0,0.0,0.0,-2.3101,-2.3101,-2.3101,-2.3477,-2.3633,-2.3633,-2.3633,-2.3633,-2.3633,-2.3237,-2.3101,0.0,0.0,0.0,0.0,0.0,0.0,0.0,0.0,0.0,0.0,-2.3101,-2.3101,0.0,0.0,0.0,0.0,0.0,0.0,0.0,0.0,-2.416,-2.4473,-2.5508,0.0,-2.7467,-2.737,-2.7117,0.0,0.0,0.0,0.0,0.0,0.0,0.0,0.0,-2.6777,-2.7109,-2.8281,-2.8476,0.0,0.0,0.0,0.0,0.0,0.0,0.0,0.0,0.0,0.0,0.0,0.0,-4.0625,-4.0527,-4.0215,-3.9785,-3.9219,-3.9004,-3.8418,-3.7461,-3.7129,-3.6641,-3.6016,-3.5332,-3.4902,-3.4668,-3.4023,-3.3672,0.0,0.0,0.0,-3.3398,-3.3066,-3.2949,-3.291,-3.2598,-3.2461,-3.2684,-3.4228,-3.4024,-3.3254,0.0,0.0,0.0,0.0,0.0,0.0,0.0,0.0,0.0,0.0,0.0,0.0,0.0,0.0,0.0,0.0,0.0,0.0,0.0,0.0,0.0,0.0,0.0,0.0,-2.3101,-2.3101,-2.3101,-2.3101,-2.3335,-2.3496,-2.3496,-2.3496,-2.3496,-2.3477,-2.3198,-2.3101,0.0,0.0,0.0,0.0,-2.3101,0.0,0.0,0.0,0.0,0.0,-2.3101,-2.3101,0.0,-2.3379,-2.3613,-2.3744,0.0,0.0,0.0,0.0,-2.3633,-2.3848,-2.4062,-2.4922,-2.5693,-2.5693,-2.583,-2.6055,0.0,0.0,0.0,0.0,0.0,0.0,0.0,0.0,0.0,0.0,-2.8476,0.0,0.0,0.0,0.0,0.0,0.0,0.0,0.0,0.0,0.0,0.0,0.0,-4.043,-4.0234,-3.9629,-3.9082,-3.8633,-3.8027,-3.7578,-3.7305,-3.6875,-3.625,-3.541,-3.4922,-3.4492,-3.4101,-3.3633,-3.332,0.0,0.0,0.0,-3.2832,-3.2598,-3.25,-3.248,-3.2266,-3.2285,-3.2603,-3.3699,-3.4004,-3.3923,0.0,0.0,0.0,0.0,0.0,0.0,0.0,0.0,0.0,0.0,0.0,0.0,0.0,0.0,0.0,0.0,0.0,0.0,0.0,0.0,0.0,0.0,0.0,-2.3101,-2.3101,-2.3101,-2.3101,-2.3101,-2.3218,-2.3296,-2.3296,-2.3296,-2.3218,-2.3101,-2.3101,-2.3101,0.0,0.0,0.0,0.0,-2.3101,0.0,0.0,0.0,0.0,0.0,0.0,0.0,0.0,-2.3574,-2.3496,-2.3257,-2.3594,0.0,0.0,0.0,0.0,0.0,-2.3848,-2.4785,-2.5674,-2.5596,-2.6016,-2.6269,-2.5791,0.0,0.0,0.0,0.0,0.0,0.0,0.0,0.0,0.0,0.0,0.0,0.0,0.0,0.0,0.0,0.0,0.0,0.0,0.0,0.0,0.0,0.0,-4.0137,-3.9726,-3.8926,-3.8242,-3.7754,-3.6973,-3.6719,-3.7012,-3.666,-3.5879,-3.4707,-3.4629,-3.4219,-3.3516,-3.3379,-3.3125,-3.2793,0.0,0.0,-3.2168,-3.209,-3.207,-3.207,-3.207,-3.2285,-3.2617,-3.2754,-3.3858,-3.5066,0.0,0.0,0.0,0.0,0.0,0.0,0.0,0.0,0.0,0.0,0.0,0.0,0.0,0.0,0.0,0.0,0.0,0.0,0.0,0.0,0.0,0.0,-2.3101,-2.3101,-2.3101,-2.3101,-2.3101,-2.3101,-2.3822,-2.4219,-2.4219,-2.4219,-2.3783,-2.3101,-2.3101,-2.3101,-2.3101,-2.3101,-2.3101,-2.3101,-2.3101,0.0,0.0,0.0,0.0,0.0,0.0,0.0,0.0,-2.3179,-2.3437,-2.3633,-2.3296,0.0,0.0,0.0,0.0,0.0,-2.4121,-2.4972,-2.5596,-2.5273,-2.5781,-2.6269,-2.5791,0.0,0.0,0.0,0.0,0.0,0.0,0.0,0.0,0.0,0.0,0.0,0.0,0.0,0.0,0.0,0.0,0.0,0.0,0.0,0.0,0.0,0.0,-3.9219,-3.8809,-3.8301,-3.7656,-3.6894,-3.6387,-3.5976,-3.5684,-3.5625,-3.5293,-3.4687,-3.4336,-3.4101,-3.3945,-3.3223,-3.2851,-3.2773,0.0,-3.2287,-3.2148,-3.1777,-3.1621,-3.1621,-3.1621,-3.166,-3.1797,-3.2519,-3.2782,-3.2769,0.0,0.0,0.0,0.0,0.0,0.0,0.0,0.0,0.0,0.0,0.0,0.0,0.0,0.0,0.0,0.0,0.0,0.0,0.0,0.0,0.0,0.0,-2.3101,-2.3101,-2.3101,-2.3101,-2.3101,-2.3101,-2.3491,-2.3686,-2.3686,-2.3686,-2.3471,-2.3101,-2.3101,-2.3101,-2.3101,-2.3101,-2.3101,-2.3101,0.0,0.0,0.0,0.0,0.0,0.0,0.0,0.0,0.0,0.0,-2.3237,-2.3354,-2.3159,0.0,0.0,0.0,0.0,0.0,-2.3569,-2.4531,-2.5332,-2.5165,-2.6123,-2.6894,-2.623,0.0,0.0,0.0,0.0,0.0,0.0,0.0,0.0,0.0,0.0,0.0,0.0,0.0,0.0,0.0,0.0,0.0,0.0,0.0,0.0,0.0,0.0,0.0,-3.791,-3.7246,-3.6621,-3.5996,-3.5547,-3.5098,-3.4687,-3.4687,-3.457,-3.4355,-3.416,-3.3945,-3.3691,-3.3086,-3.2676,-3.2422,0.0,-3.168,-3.1465,-3.1269,-3.1309,-3.1523,-3.1523,-3.1797,-3.2285,-3.291,-3.3548,-3.4167,0.0,0.0,0.0,0.0,0.0,0.0,0.0,0.0,0.0,0.0,0.0,0.0,0.0,0.0,0.0,0.0,0.0,0.0,0.0,0.0,-2.3101,-2.3101,-2.3101,-2.3101,-2.3101,-2.3101,-2.3101,-2.3101,-2.3198,-2.3257,-2.3257,-2.3257,-2.3198,-2.3101,-2.3101,-2.3101,-2.3101,-2.3101,-2.3101,-2.3101,0.0,0.0,0.0,0.0,0.0,0.0,0.0,0.0,0.0,0.0,0.0,0.0,0.0,0.0,0.0,-2.3101,-2.3101,-2.314,-2.3335,-2.416,-2.4941,-2.5086,0.0,-2.7317,-2.6914,-2.709,0.0,0.0,0.0,0.0,0.0,0.0,0.0,0.0,0.0,0.0,0.0,0.0,0.0,0.0,0.0,0.0,0.0,0.0,0.0,0.0,0.0,0.0,-3.7031,-3.6289,-3.5625,-3.5098,-3.4648,-3.4199,-3.3769,-3.3672,-3.373,-3.3926,-3.3926,-3.3691,-3.3262,-3.2832,-3.2422,-3.1992,-3.1562,-3.1191,-3.0898,-3.0996,-3.123,-3.1543,-3.1738,-3.2285,-3.3031,-3.372,-3.4736,-3.5867,0.0,0.0,0.0,0.0,0.0,0.0,0.0,0.0,0.0,0.0,0.0,0.0,0.0,0.0,0.0,0.0,0.0,0.0,0.0,0.0,-2.3101,-2.3101,-2.3101,-2.3101,-2.3101,-2.3101,-2.3101,-2.3101,-2.3555,-2.375,-2.375,-2.375,-2.3535,-2.3101,-2.3101,-2.3101,-2.3101,-2.3101,-2.3101,-2.3101,-2.3101,0.0,0.0,0.0,0.0,0.0,0.0,0.0,0.0,0.0,0.0,0.0,0.0,0.0,-2.3101,-2.3101,-2.3101,-2.3276,-2.4102,-2.4394,-2.4551,-2.4961,-2.5781,0.0,-2.791,-2.8184,0.0,-2.9219,0.0,0.0,0.0,0.0,0.0,0.0,0.0,0.0,0.0,0.0,0.0,0.0,0.0,0.0,0.0,0.0,0.0,0.0,0.0,0.0,-3.6133,-3.5684,-3.5059,-3.4199,-3.375,-3.3301,-3.2891,-3.25,-3.2695,-3.3476,-3.3476,-3.3242,-3.2832,-3.2402,-3.1973,-3.1543,-3.1113,-3.0918,-3.0918,-3.1309,-3.1484,-3.1601,-3.2402,-3.2969,-3.3568,-3.5088,-3.5683,-3.599,0.0,0.0,0.0,0.0,0.0,0.0,0.0,0.0,0.0,0.0,0.0,0.0,0.0,0.0,0.0,0.0,0.0,0.0,0.0,0.0,-2.3101,-2.3101,-2.3101,-2.3101,-2.3101,-2.3101,-2.3101,-2.3101,-2.3257,-2.3335,-2.3335,-2.3335,-2.3257,-2.3101,-2.3101,-2.3101,-2.3101,-2.3101,-2.3101,-2.3101,-2.3101,-2.3101,0.0,0.0,0.0,0.0,0.0,0.0,0.0,0.0,-2.3101,-2.3101,0.0,0.0,-2.3101,-2.3101,-2.3101,-2.3159,-2.3491,-2.4219,-2.4863,-2.5067,-2.5527,0.0,0.0,-2.8516,-2.9336,-3.0215,-3.0937,0.0,0.0,0.0,0.0,0.0,0.0,0.0,0.0,0.0,0.0,0.0,0.0,0.0,0.0,0.0,0.0,0.0,0.0,0.0,-3.4844,-3.4394,-3.4023,-3.3672,-3.3008,-3.2695,-3.2793,-3.2383,-3.2324,-3.2637,-3.2637,-3.2559,-3.2383,-3.1953,-3.168,-3.1504,-3.1074,-3.0898,-3.0898,-3.1055,-3.1289,-3.1601,-3.2461,-3.3047,-3.3607,-3.5211,-3.6225,-3.7044,0.0,0.0,0.0,0.0,0.0,0.0,0.0,0.0,0.0,0.0,0.0,0.0,0.0,0.0,0.0,0.0,0.0,0.0,0.0,-2.3101,-2.3101,-2.3101,-2.3101,-2.3101,-2.3101,-2.3101,-2.3101,-2.3101,-2.3101,-2.3101,-2.3101,-2.3101,-2.3159,-2.3296,-2.3159,-2.3179,-2.3296,-2.3159,-2.3101,-2.3101,-2.3101,-2.3101,0.0,0.0,0.0,0.0,0.0,0.0,0.0,0.0,-2.3101,-2.3101,0.0,0.0,0.0,0.0,-2.3101,-2.3101,-2.3101,-2.3789,-2.4492,0.0,0.0,0.0,-2.7871,-2.9,-3.0019,-3.1582,-3.2031,0.0,0.0,0.0,0.0,0.0,0.0,0.0,0.0,0.0,0.0,0.0,0.0,0.0,0.0,0.0,0.0,0.0,0.0,0.0,0.0,-3.3262,-3.3027,-3.3027,-3.2324,-3.2109,-3.2383,-3.1973,-3.1758,-3.1758,-3.1758,-3.1836,-3.1953,-3.166,-3.1445,-3.1309,-3.1016,-3.0898,-3.0898,-3.1035,-3.1426,-3.1973,-3.2578,-3.326,-3.4119,-3.5718,-3.6659,-3.7492,0.0,0.0,0.0,0.0,0.0,0.0,0.0,0.0,0.0,0.0,0.0,0.0,0.0,0.0,0.0,0.0,0.0,0.0,0.0,-2.3101,-2.3101,-2.3101,-2.3101,-2.3101,-2.3101,-2.3101,-2.3101,-2.3101,-2.3101,-2.3101,-2.3101,-2.3101,-2.3379,-2.3769,-2.3296,-2.3379,-2.375,-2.3276,-2.3101,-2.3101,-2.3101,-2.3101,-2.3101,0.0,0.0,0.0,0.0,0.0,0.0,0.0,-2.3101,-2.3101,0.0,0.0,0.0,0.0,-2.3101,-2.3101,-2.3101,-2.3101,-2.3218,0.0,0.0,0.0,0.0,0.0,0.0,0.0,0.0,-3.2187,-3.2248,0.0,0.0,0.0,0.0,0.0,0.0,0.0,0.0,0.0,0.0,0.0,0.0,0.0,0.0,0.0,0.0,0.0,0.0,-3.2383,-3.2229,-3.2229,-3.1738,-3.1504,-3.1523,-3.1094,-3.0898,-3.0898,-3.0898,-3.1113,-3.1504,-3.1504,-3.1289,-3.0898,-3.0898,-3.0898,-3.0918,-3.1348,-3.2012,-3.2793,-3.2793,-3.3678,-3.5155,-3.678,-3.7112,-3.7144,0.0,0.0,0.0,0.0,0.0,0.0,0.0,0.0,0.0,0.0,0.0,0.0,0.0,0.0,0.0,0.0,0.0,0.0,0.0,-2.3101,-2.3101,-2.3101,-2.3101,-2.3101,-2.3101,-2.3101,-2.3101,-2.3101,-2.3101,-2.3101,-2.3101,-2.3101,-2.3159,-2.3276,-2.3159,-2.3159,-2.3276,-2.314,-2.3101,-2.312,-2.3477,-2.3418,-2.314,0.0,0.0,0.0,0.0,0.0,0.0,0.0,0.0,0.0,0.0,0.0,0.0,-2.3101,-2.3101,-2.3101,-2.3101,-2.353,0.0,0.0,0.0,0.0,0.0,0.0,0.0,0.0,0.0,0.0,0.0,0.0,0.0,0.0,0.0,0.0,0.0,0.0,0.0,0.0,0.0,0.0,0.0,0.0,0.0,0.0,0.0,0.0,0.0,-3.1953,-3.1855,-3.2209,-3.1465,-3.1211,-3.1504,-3.1094,-3.0898,-3.0898,-3.0898,-3.0957,-3.1074,-3.1074,-3.1016,-3.0898,-3.0898,-3.0898,-3.0898,-3.1035,-3.1406,-3.1894,-3.1894,-3.2373,-3.3357,-3.5925,-3.5909,-3.5035,0.0,0.0,0.0,0.0,0.0,0.0,0.0,0.0,0.0,0.0,0.0,0.0,0.0,0.0,0.0,0.0,0.0,0.0,0.0,0.0,-2.3101,-2.3101,-2.3101,-2.3101,-2.3101,-2.3101,-2.3101,-2.3101,-2.3101,-2.3101,-2.3101,-2.3101,-2.3198,-2.3379,-2.3179,-2.3198,-2.3379,-2.3159,-2.3101,-2.314,-2.3613,-2.3535,-2.314,0.0,0.0,0.0,0.0,0.0,0.0,0.0,0.0,0.0,0.0,0.0,0.0,-2.3101,-2.3101,-2.3101,-2.3101,0.0,0.0,0.0,0.0,0.0,0.0,0.0,0.0,0.0,0.0,0.0,0.0,0.0,0.0,0.0,0.0,0.0,0.0,0.0,0.0,0.0,0.0,0.0,0.0,0.0,0.0,0.0,0.0,0.0,0.0,-3.1406,-3.1387,-3.166,-3.1152,-3.1016,-3.1269,-3.1016,-3.0898,-3.0898,-3.0898,-3.0898,-3.0898,-3.0898,-3.0898,-3.0898,-3.0898,-3.0898,-3.0898,-3.0898,-3.1133,-3.1523,-3.1523,-3.2018,-3.3051,-3.4868,-3.4662,-3.3819,0.0,0.0,0.0,0.0,0.0,0.0,0.0,0.0,0.0,0.0,0.0,0.0,0.0,0.0,0.0,0.0,0.0,0.0,0.0,0.0,0.0,-2.3101,-2.3101,-2.3101,-2.3101,-2.3101,-2.3101,-2.3101,-2.3101,-2.3101,-2.3101,0.0,-2.3315,-2.3711,0.0,-2.3359,-2.3711,-2.3257,-2.3101,-2.314,-2.3613,-2.3535,-2.314,-2.3633,0.0,0.0,0.0,0.0,0.0,0.0,0.0,0.0,0.0,0.0,-2.3101,-2.3101,-2.3101,-2.3101,0.0,0.0,0.0,0.0,0.0,0.0,0.0,0.0,0.0,0.0,0.0,0.0,0.0,0.0,0.0,0.0,0.0,0.0,0.0,0.0,0.0,0.0,0.0,0.0,0.0,0.0,0.0,0.0,0.0,0.0,0.0,-3.0898,-3.0898,-3.0898,-3.0898,-3.0898,-3.0898,-3.0898,-3.0898,-3.0898,-3.0898,-3.0898,-3.0898,-3.0898,-3.0898,-3.0898,-3.0898,-3.0898,-3.0898,-3.0898,-3.1113,-3.1465,-3.1465,-3.2233,-3.3455,-3.3571,-3.332,-3.3134,0.0,0.0,0.0,0.0,0.0,0.0,0.0,0.0,0.0,0.0,0.0,0.0,0.0,0.0,0.0,0.0,0.0,0.0,0.0,0.0,0.0,0.0,0.0,0.0,0.0,0.0,0.0,-2.3101,-2.3101,0.0,0.0,0.0,0.0,-2.3237,0.0,-2.314,-2.3237,-2.314,-2.3101,-2.314,-2.3613,-2.3535,-2.314,-2.3633,-2.3516,0.0,0.0,0.0,0.0,0.0,0.0,0.0,-2.3101,-2.3101,-2.3101,-2.3101,-2.3101,-2.3179,0.0,0.0,0.0,0.0,0.0,0.0,0.0,0.0,0.0,0.0,0.0,0.0,0.0,0.0,0.0,0.0,0.0,0.0,0.0,0.0,0.0,0.0,0.0,0.0,0.0,0.0,0.0,0.0,0.0,0.0,-3.0898,-3.0898,-3.0898,-3.0898,-3.0898,-3.0898,-3.0898,-3.0898,-3.0898,0.0,-3.0898,-3.0898,-3.0898,-3.0898,-3.0898,-3.0898,-3.0898,-3.0898,-3.0898,-3.0898,-3.0937,-3.1035,-3.1035,-3.125,-3.1638,-3.2789,-3.244,-3.1594,0.0,0.0,0.0,0.0,0.0,0.0,0.0,0.0,0.0,0.0,0.0,0.0,0.0,0.0,0.0,0.0,0.0,0.0,0.0,0.0,0.0,0.0,0.0,0.0,0.0,0.0,0.0,0.0,0.0,0.0,0.0,0.0,0.0,-2.3457,0.0,-2.3457,-2.3437,-2.3179,-2.3101,-2.314,-2.3613,-2.3535,-2.314,-2.3633,-2.3516,-2.3101,-2.3101,0.0,0.0,0.0,0.0,0.0,0.0,0.0,-2.3101,-2.3101,-2.3101,-2.314,0.0,0.0,0.0,0.0,0.0,0.0,0.0,0.0,0.0,0.0,0.0,0.0,0.0,0.0,0.0,0.0,0.0,0.0,0.0,0.0,0.0,0.0,0.0,0.0,0.0,0.0,0.0,0.0,0.0,-3.0469,-3.0273,-3.0254,-3.0254,-3.0254,-3.0254,-3.0254,-3.0254,-3.0254,-3.0351,-3.0566,-3.0566,-3.0684,-3.0898,-3.0898,-3.0898,-3.0898,-3.0898,-3.0898,-3.0898,-3.0898,-3.0898,-3.0898,-3.0898,-3.0898,-3.0995,-3.1767,-3.1556,-3.0995,0.0,0.0,0.0,0.0,0.0,0.0,0.0,0.0,0.0,0.0,0.0,0.0,0.0,0.0,0.0,0.0,0.0,0.0,0.0,0.0,0.0,0.0,0.0,0.0,0.0,0.0,0.0,0.0,0.0,0.0,0.0,0.0,0.0,-2.3789,0.0,-2.3867,-2.3769,-2.3398,-2.3159,-2.312,-2.3535,-2.3457,-2.314,-2.3535,-2.3457,-2.3101,-2.3101,-2.3101,-2.3101,-2.3101,0.0,0.0,0.0,0.0,-2.3101,-2.3101,-2.3101,-2.312,0.0,0.0,0.0,0.0,0.0,0.0,0.0,0.0,0.0,0.0,0.0,0.0,0.0,0.0,0.0,0.0,0.0,0.0,0.0,0.0,0.0,0.0,0.0,0.0,0.0,0.0,0.0,0.0,0.0,-2.9941,-2.9646,-2.9626,-2.9626,-2.9626,-2.9626,-2.9626,-2.9626,-2.9626,-2.9746,-3.0098,-3.0098,-3.0293,-3.0664,-3.0664,-3.0742,-3.0898,-3.0898,-3.0898,-3.0898,-3.0898,-3.0898,-3.0898,-3.0898,-3.0898,-3.0898,-3.0898,-3.0898,-3.0898,0.0,0.0,0.0,0.0,0.0,0.0,0.0,0.0,0.0,0.0,0.0,0.0,0.0,0.0,0.0,0.0,0.0,0.0,0.0,0.0,0.0,0.0,-2.3101,0.0,0.0,0.0,0.0,0.0,0.0,0.0,0.0,0.0,0.0,-2.3809,0.0,0.0,-2.3789,-2.373,-2.3477,-2.3101,-2.3159,-2.314,-2.3101,-2.3159,-2.314,-2.3101,-2.3101,-2.3101,-2.3101,-2.3101,-2.3101,0.0,0.0,0.0,-2.3101,-2.3101,-2.3101,-2.3179,0.0,0.0,0.0,0.0,0.0,0.0,0.0,0.0,0.0,0.0,0.0,0.0,0.0,0.0,0.0,0.0,0.0,0.0,0.0,0.0,0.0,0.0,0.0,0.0,0.0,0.0,0.0,0.0,-2.9648,-2.9685,-2.957,-2.9626,-2.9626,-2.9626,-2.9626,-2.9626,-2.9626,-2.9626,-2.9646,-2.9648,-2.9648,-2.9687,-2.9746,-2.9746,-3.0176,-3.0898,-3.0898,-3.0898,-3.0898,-3.0898,-3.0898,-3.0898,-3.0898,-3.0898,-3.0898,-3.0898,-3.0898,-3.0898,0.0,0.0,0.0,0.0,0.0,0.0,0.0,0.0,0.0,0.0,0.0,0.0,0.0,0.0,0.0,-2.1484,0.0,0.0,0.0,0.0,0.0,-2.3101,-2.3101,-2.3101,-2.3101,0.0,0.0,0.0,0.0,0.0,0.0,-2.3926,-2.4414,0.0,0.0,0.0,0.0,-2.4004,-2.3535,-2.3101,-2.3101,-2.3101,-2.3101,-2.3101,-2.3101,-2.3101,-2.3101,-2.3101,-2.3101,-2.3101,-2.3101,-2.3101,-2.3101,0.0,0.0,0.0,-2.3101,0.0,0.0,0.0,0.0,0.0,0.0,0.0,0.0,0.0,0.0,0.0,0.0,0.0,0.0,0.0,0.0,0.0,0.0,0.0,0.0,0.0,0.0,0.0,0.0,0.0,0.0,0.0,0.0,0.0,-2.9199,-2.9101,-2.8867,-2.8848,-2.8848,-2.8848,-2.8848,-2.8848,-2.8848,-2.8848,-2.8965,-2.9199,-2.9453,-2.9626,-2.9626,-2.9626,-2.9785,-3.0156,-3.041,-3.0508,-3.0527,-3.0781,-3.0898,-3.0898,-3.0898,-3.0898,-3.0898,-3.0898,-3.0898,-3.0898,0.0,0.0,0.0,0.0,0.0,0.0,0.0,0.0,0.0,0.0,0.0,0.0,0.0,0.0,0.0,0.0,-2.1641,0.0,0.0,0.0,0.0,-2.3101,-2.3101,-2.3101,-2.3101,0.0,0.0,0.0,0.0,0.0,-2.3276,-2.4062,-2.4883,0.0,-2.581,0.0,0.0,0.0,0.0,0.0,-2.3179,-2.3101,-2.3101,-2.3101,-2.3101,-2.3101,-2.3101,-2.3101,-2.3101,-2.3101,-2.3101,-2.3101,-2.3101,-2.3101,0.0,0.0,0.0,0.0,0.0,0.0,0.0,0.0,0.0,0.0,0.0,0.0,0.0,0.0,0.0,0.0,0.0,0.0,0.0,0.0,0.0,0.0,0.0,0.0,0.0,0.0,0.0,0.0,0.0,0.0,0.0,0.0,-2.8437,-2.834,-2.8144,-2.8027,-2.8027,-2.8125,-2.8027,-2.7969,-2.7969,-2.7969,-2.8184,-2.8613,-2.8926,-2.9196,-2.9238,-2.9238,-2.9238,-2.9277,-2.9805,-3.0039,-3.0078,-3.0527,-3.0723,-3.0723,-3.084,-3.0898,-3.0898,-3.0898,-3.0898,-3.0898,0.0,0.0,0.0,0.0,0.0,0.0,0.0,0.0,0.0,0.0,0.0,0.0,-2.0605,-2.0625,-2.0762,-2.1151,-2.1641,-2.2227,-2.3003,-2.3081,0.0,-2.3101,-2.3101,0.0,-2.3101,0.0,0.0,0.0,0.0,0.0,-2.3769,-2.4219,-2.4883,-2.5713,-2.6172,-2.5879,-2.5106,0.0,0.0,0.0,0.0,0.0,0.0,0.0,0.0,0.0,-2.3101,-2.3101,-2.3101,-2.3101,-2.3101,-2.3101,-2.3101,-2.3101,-2.3101,0.0,0.0,0.0,0.0,0.0,0.0,0.0,0.0,0.0,0.0,0.0,0.0,0.0,0.0,0.0,0.0,0.0,0.0,0.0,0.0,0.0,0.0,0.0,0.0,0.0,0.0,0.0,0.0,0.0,0.0,0.0,-2.7109,-2.7285,-2.7728,-2.7305,-2.7266,-2.7748,-2.7305,-2.709,-2.709,-2.709,-2.7305,-2.7787,-2.7806,-2.7969,-2.8359,-2.8359,-2.8359,-2.8398,-2.9238,-2.9609,-2.9629,-3.0059,-3.0234,-3.0273,-3.0723,-3.0898,-3.0898,-3.0898,-3.0898,-3.0898,0.0,0.0,0.0,0.0,0.0,0.0,0.0,0.0,0.0,0.0,0.0,0.0,0.0,-2.0605,-2.0664,-2.0781,-2.1465,-2.2012,-2.2305,-2.2789,0.0,-2.3101,-2.3101,-2.3101,-2.3101,0.0,0.0,0.0,0.0,-2.3179,-2.3379,-2.3809,-2.4043,-2.4075,-2.541,-2.5801,-2.5469,-2.4883,0.0,0.0,0.0,0.0,0.0,0.0,0.0,0.0,0.0,-2.3276,-2.3555,-2.3555,-2.3555,-2.3555,-2.3555,-2.3315,-2.3101,-2.3101,-2.3101,0.0,0.0,0.0,0.0,0.0,0.0,0.0,0.0,0.0,0.0,0.0,0.0,0.0,0.0,0.0,0.0,0.0,0.0,0.0,0.0,0.0,0.0,0.0,0.0,0.0,0.0,0.0,0.0,0.0,0.0,-2.709,-2.7246,-2.709,-2.709,-2.7246,-2.709,-2.7012,-2.7012,-2.7012,-2.709,-2.7246,-2.7591,-2.7806,-2.7891,-2.8164,-2.8301,-2.832,-2.8613,-2.8906,-2.918,-2.9609,-2.9785,-2.9805,-2.998,-3.0215,-3.0449,-3.0449,-3.0644,-3.0898,0.0,0.0,0.0,0.0,0.0,0.0,0.0,0.0,0.0,0.0,0.0,0.0,0.0,0.0,-2.0723,-2.1016,-2.1584,-2.2012,-2.2285,-2.2789,-2.3101,-2.3101,-2.3101,-2.3101,0.0,0.0,0.0,0.0,0.0,0.0,0.0,-2.3437,-2.3496,-2.3418,-2.457,-2.5234,0.0,0.0,0.0,-2.4719,0.0,0.0,-2.4394,0.0,0.0,0.0,0.0,0.0,0.0,-2.3672,-2.3574,-2.3574,-2.3574,-2.3379,-2.3101,-2.3101,-2.3101,0.0,0.0,0.0,0.0,0.0,0.0,0.0,0.0,0.0,0.0,0.0,0.0,0.0,0.0,0.0,0.0,0.0,0.0,0.0,0.0,0.0,0.0,0.0,0.0,0.0,0.0,0.0,0.0,0.0,0.0,0.0,-2.6797,-2.666,-2.6582,-2.6582,-2.6582,-2.6582,-2.6582,-2.6582,-2.666,-2.6816,-2.709,-2.7305,-2.7461,-2.7734,-2.7871,-2.7871,-2.8008,-2.832,-2.875,-2.918,-2.9355,-2.9375,-2.9567,-2.9746,-2.998,-2.998,-3.0273,-3.0664,0.0,0.0,0.0,0.0,0.0,0.0,0.0,0.0,0.0,-1.9297,0.0,0.0,0.0,0.0,0.0,-2.1816,-2.1894,-2.2246,-2.3023,-2.3081,-2.3101,-2.3101,0.0,0.0,0.0,0.0,0.0,0.0,0.0,0.0,0.0,0.0,-2.3315,-2.3769,-2.3789,-2.4258,-2.5086,0.0,-2.5293,-2.5538,0.0,-2.4134,-2.5635,0.0,0.0,0.0,-2.5419,-2.4805,0.0,-2.3432,0.0,0.0,0.0,-2.3101,-2.3101,-2.3101,-2.3101,0.0,0.0,0.0,0.0,0.0,0.0,0.0,0.0,0.0,0.0,0.0,0.0,0.0,0.0,0.0,0.0,0.0,0.0,0.0,0.0,0.0,0.0,0.0,0.0,0.0,0.0,0.0,0.0,0.0,-2.5654,-2.5879,-2.6309,-2.5937,-2.5654,-2.5654,-2.5654,-2.5654,-2.5674,-2.5674,-2.5937,-2.6367,-2.6387,-2.6602,-2.6992,-2.7012,-2.7012,-2.7031,-2.7461,-2.7871,-2.8281,-2.8711,-2.8906,-2.8945,-2.9375,-2.9607,-2.9551,-2.957,-2.9844,-3.0195,0.0,0.0,0.0,0.0,0.0,0.0,0.0,0.0,0.0,0.0,0.0,0.0,-2.0605,-2.0859,-2.1269,-2.1836,-2.2168,-2.2441,-2.2676,-2.2925,-2.3101,-2.3101,-2.3101,0.0,0.0,0.0,0.0,0.0,0.0,0.0,0.0,0.0,0.0,0.0,-2.3652,-2.3926,-2.4141,-2.4141,0.0,-2.5538,-2.3783,-2.4134,0.0,0.0,0.0,0.0,0.0,-2.5047,-2.4844,0.0,-2.4531,-2.4434,0.0,-2.3354,-2.3101,-2.3101,0.0,0.0,-2.3101,0.0,0.0,0.0,0.0,0.0,0.0,0.0,0.0,0.0,0.0,0.0,0.0,0.0,0.0,0.0,0.0,0.0,0.0,0.0,0.0,0.0,0.0,0.0,0.0,0.0,0.0,0.0,-2.4738,-2.4844,-2.4961,-2.4844,-2.4738,-2.4738,-2.4738,-2.4941,-2.5254,-2.5254,-2.5488,-2.5918,-2.625,-2.6445,-2.6562,-2.6875,-2.7012,-2.7031,-2.7148,-2.7266,-2.7422,-2.8164,-2.8457,-2.8476,-2.8594,-2.8828,-2.9141,-2.9453,-2.9844,-3.0234,0.0,0.0,0.0,0.0,0.0,0.0,0.0,0.0,0.0,0.0,0.0,0.0,-2.082,-2.123,-2.168,-2.2109,-2.2363,-2.2578,-2.2711,-2.2964,-2.3101,-2.3101,-2.3101,-2.3101,0.0,0.0,0.0,0.0,0.0,0.0,0.0,0.0,0.0,0.0,0.0,0.0,0.0,0.0,0.0,0.0,-2.3647,0.0,0.0,-2.4961,-2.5098,0.0,0.0,0.0,-2.5508,-2.4785,-2.4578,0.0,0.0,0.0,0.0,0.0,0.0,0.0,0.0,0.0,0.0,0.0,0.0,0.0,-2.2828,-2.2949,0.0,0.0,0.0,0.0,0.0,0.0,0.0,0.0,0.0,0.0,0.0,0.0,0.0,0.0,0.0,0.0,0.0,-2.4414,-2.4414,-2.4414,-2.4414,-2.4414,-2.4414,-2.4414,-2.4414,-2.4414,-2.4414,-2.4531,-2.4805,-2.498,-2.5195,-2.5469,-2.5918,-2.6113,-2.6133,-2.6367,-2.6484,-2.6484,-2.668,-2.6758,-2.6816,-2.7676,-2.8027,-2.8047,-2.8223,-2.8437,-2.8691,-2.8945,-2.9297,-2.9707,0.0,0.0,0.0,0.0,0.0,0.0,0.0,0.0,0.0,0.0,0.0,-2.082,-2.121,-2.1699,-2.2129,-2.2539,-2.2578,-2.2734,-2.3081,-2.3101,-2.3101,-2.3101,-2.3101,-2.3101,-2.3101,0.0,0.0,0.0,0.0,0.0,0.0,0.0,0.0,0.0,0.0,0.0,0.0,0.0,0.0,-2.4199,-2.3393,-2.4368,0.0,0.0,-2.6367,-2.7363,-2.6641,-2.6367,-2.6074,-2.4473,-2.3828,0.0,0.0,0.0,0.0,0.0,-2.3457,0.0,0.0,0.0,0.0,0.0,0.0,0.0,-2.2539,-2.2227,-2.1934,0.0,0.0,0.0,0.0,0.0,0.0,0.0,0.0,0.0,0.0,0.0,0.0,0.0,0.0,0.0,-2.4277,-2.4277,-2.4277,-2.4277,-2.4277,-2.4277,-2.4277,-2.4277,-2.4277,-2.4277,-2.4277,-2.4297,-2.4355,-2.4727,-2.4988,-2.5047,-2.5449,-2.5615,-2.5615,-2.5674,-2.5693,-2.5713,-2.6152,-2.6309,-2.6387,-2.7187,-2.763,-2.7767,-2.8125,-2.8301,-2.8301,-2.834,-2.8594,-2.8926,-1.5473,0.0,0.0,0.0,0.0,0.0,0.0,0.0,0.0,0.0,0.0,0.0,-2.1699,-2.2129,-2.2559,-2.2945,-2.2984,-2.3003,-2.3081,-2.3101,-2.3101,-2.3101,-2.3101,-2.3101,-2.3101,-2.3023,0.0,0.0,0.0,0.0,0.0,0.0,0.0,0.0,0.0,0.0,0.0,0.0,0.0,-2.3335,-2.3159,0.0,-2.5732,-2.498,-2.5226,-2.6133,-2.6328,-2.6172,-2.5762,-2.5059,-2.4121,-2.3335,0.0,0.0,0.0,-2.3613,0.0,0.0,0.0,0.0,0.0,0.0,0.0,0.0,-2.2676,-2.2441,-2.2305,0.0,0.0,0.0,0.0,0.0,0.0,0.0,0.0,0.0,0.0,0.0,0.0,0.0,0.0,0.0,-2.3335,-2.3335,-2.3335,-2.3335,-2.3335,-2.3335,-2.3335,-2.3335,-2.3335,-2.3335,-2.3335,-2.3555,-2.3906,-2.4004,-2.4219,-2.4551,-2.5,-2.5195,-2.5215,-2.5566,-2.5693,-2.5693,-2.5771,-2.5859,-2.5898,-2.6426,-2.7051,-2.7767,-2.8125,-2.8301,-2.834,-2.8672,-2.8848,-2.8965,-1.51,0.0,0.0,0.0,0.0,0.0,0.0,0.0,0.0,0.0,0.0,0.0,-2.2168,-2.2578,-2.2867,-2.3081,-2.3101,-2.3101,-2.3101,-2.3101,-2.3101,-2.3101,-2.3101,-2.3101,-2.3101,-2.3101,0.0,0.0,0.0,0.0,0.0,0.0,0.0,0.0,0.0,0.0,0.0,0.0,-2.3101,-2.3101,-2.3101,0.0,-2.4707,-2.4277,-2.4512,-2.505,-2.5332,-2.5137,-2.4766,-2.4746,-2.418,0.0,-2.3666,-2.3725,-2.3686,0.0,-2.3457,-2.3418,0.0,0.0,0.0,-2.314,0.0,0.0,0.0,-2.2187,-2.1875,0.0,0.0,0.0,0.0,0.0,0.0,0.0,0.0,0.0,0.0,0.0,0.0,0.0,0.0,0.0,-2.3081,-2.3101,-2.3101,-2.3101,-2.3101,-2.3101,-2.3101,-2.3101,-2.3101,-2.3101,-2.3101,-2.3198,-2.3457,-2.3691,-2.3906,-2.4102,-2.4766,-2.5106,-2.5125,-2.5527,-2.5693,-2.5693,-2.5693,-2.5693,-2.5732,-2.6211,-2.6641,-2.709,-2.7734,-2.8105,-2.832,-2.8535,-2.8613,-2.8633,-1.4728,0.0,0.0,0.0,0.0,0.0,0.0,0.0,0.0,0.0,0.0,0.0,0.0,-2.2847,-2.314,-2.3218,-2.314,-2.314,-2.3218,-2.314,-2.3101,-2.3101,-2.3101,-2.3101,-2.3101,-2.3101,-2.3101,0.0,0.0,0.0,0.0,0.0,0.0,0.0,0.0,0.0,0.0,0.0,0.0,-2.3101,0.0,-2.3398,-2.3789,-2.3789,-2.4043,-2.4414,-2.4414,-2.4141,-2.3848,-2.418,-2.4023,-2.3613,-2.334,-2.3672,0.0,0.0,0.0,0.0,0.0,0.0,0.0,0.0,0.0,-2.2715,0.0,0.0,0.0,0.0,0.0,0.0,0.0,0.0,0.0,0.0,0.0,0.0,0.0,0.0,0.0,0.0,0.0,0.0,0.0,-2.3042,-2.3101,-2.3101,-2.3101,-2.3101,-2.3101,-2.3101,-2.3101,-2.3101,-2.3101,-2.3101,-2.3101,-2.3496,-2.3672,-2.3672,-2.4453,-2.4871,-2.4891,-2.5293,-2.5479,-2.5557,-2.5557,-2.5615,-2.5713,-2.6113,-2.6309,-2.6484,-2.7376,-2.7924,-2.8184,-2.8262,-2.8301,-2.8301,-1.3665,-1.5332,0.0,0.0,0.0,0.0,0.0,0.0,0.0,0.0,0.0,0.0,0.0,-2.2847,-2.3257,-2.3691,-2.3315,-2.3257,-2.3691,-2.3315,-2.3101,-2.3101,-2.3101,-2.3101,-2.3101,-2.3101,-2.3101,0.0,0.0,0.0,0.0,0.0,0.0,0.0,-2.3101,0.0,0.0,0.0,-2.3101,0.0,-2.3101,-2.3398,0.0,-2.3789,-2.4043,-2.4414,-2.4414,-2.4141,-2.3789,0.0,-2.3574,-2.3218,0.0,-2.3516,-2.3296,-2.3633,0.0,0.0,0.0,0.0,0.0,0.0,-2.3398,0.0,0.0,0.0,-2.2285,-2.1953,0.0,0.0,0.0,0.0,0.0,0.0,0.0,0.0,0.0,0.0,0.0,0.0,0.0,0.0,0.0,-2.2886,-2.3101,-2.3101,-2.3101,-2.3101,-2.3101,-2.3101,-2.3101,-2.3101,-2.3101,-2.3101,-2.3101,-2.314,-2.3159,-2.3179,-2.3711,-2.3945,-2.3945,-2.4375,-2.4785,-2.5184,-2.5184,-2.5371,-2.5693,-2.5752,-2.6035,-2.6484,-2.7376,-2.7748,-2.7826,-2.8164,-2.8301,-2.8301,-1.3629,-1.4506,0.0,0.0,0.0,0.0,0.0,0.0,0.0,0.0,0.0,0.0,0.0,0.0,-2.321,-2.2445,-2.3057,-2.3496,-2.3418,-2.3198,-2.3101,-2.3101,-2.3101,-2.3101,-2.3101,-2.3101,-2.3101,-2.3101,-2.3101,0.0,0.0,0.0,0.0,0.0,-2.3101,0.0,-2.3057,0.0,-2.2448,0.0,0.0,0.0,0.0,-2.3418,-2.3516,-2.3627,-2.3627,-2.3555,-2.3418,0.0,-2.3257,0.0,0.0,0.0,0.0,-2.3359,0.0,0.0,0.0,0.0,0.0,0.0,0.0,0.0,-2.2906,0.0,-2.2539,0.0,0.0,0.0,0.0,0.0,0.0,0.0,-2.0605,0.0,0.0,0.0,0.0,0.0,0.0,0.0,0.0,0.0,0.0,0.0,-2.273,-2.2847,-2.3081,-2.3101,-2.3101,-2.3101,-2.3101,-2.3101,-2.3101,-2.3101,-2.3101,-2.3101,-2.3574,-2.3789,-2.3809,-2.4219,-2.4512,-2.4687,-2.4687,-2.4941,-2.5352,-2.5352,-2.5605,-2.6074,-2.668,-2.7226,-2.7748,-2.7871,-2.8086,-2.8262,-1.3447,0.0,0.0,0.0,0.0,0.0,0.0,0.0,0.0,0.0,0.0,0.0,-1.9966,-2.1951,0.0,-2.1331,-2.2611,-2.3176,0.0,-2.2536,-2.2448,-2.2138,-2.2448,-2.2599,-2.2599,-2.2599,-2.2624,0.0,0.0,0.0,0.0,0.0,0.0,0.0,0.0,-2.2775,-2.3013,0.0,0.0,-2.2994,-2.1791,-2.181,-2.2624,-2.295,-2.3101,-2.3101,-2.3101,-2.3101,-2.3101,-2.3101,-2.3101,0.0,-2.3101,0.0,-2.3101,0.0,0.0,0.0,-2.3101,0.0,0.0,0.0,0.0,0.0,0.0,0.0,0.0,0.0,0.0,0.0,0.0,0.0,0.0,0.0,0.0,0.0,0.0,0.0,0.0,0.0,0.0,0.0,0.0,0.0,0.0,-2.2324,-2.2441,-2.2637,-2.2906,-2.3042,-2.3101,-2.3101,-2.3101,-2.3101,-2.3101,-2.3101,-2.3101,-2.3101,-2.3457,-2.3613,-2.3633,-2.3926,-2.4141,-2.4258,-2.4355,-2.4668,-2.5125,-2.5195,-2.5449,-2.5732,-2.6211,-2.6777,-2.7376,-2.7441,-2.7754,-2.8066,-1.2847,-1.3312,0.0,0.0,0.0,0.0,0.0,0.0,0.0,0.0,0.0,0.0,0.0,0.0,0.0,0.0,0.0,-2.2097,-2.0776,0.0,-2.0854,-1.9679,-2.0702,-2.1346,-2.1382,-2.1346,-2.1346,0.0,0.0,0.0,0.0,0.0,0.0,0.0,0.0,-2.2031,-2.295,-2.0584,-2.0944,-2.2994,-2.1791,-2.1346,-2.148,0.0,-2.3101,-2.3101,-2.3101,0.0,0.0,-2.3101,-2.3101,0.0,0.0,0.0,0.0,0.0,0.0,0.0,0.0,0.0,0.0,-2.3101,0.0,0.0,0.0,0.0,-2.3081,0.0,0.0,0.0,0.0,0.0,0.0,0.0,0.0,0.0,0.0,0.0,0.0,0.0,0.0,0.0,0.0,0.0,0.0,-2.1894,-2.2285,-2.2519,-2.2539,-2.2867,-2.3101,-2.3101,-2.3101,-2.3101,-2.3101,-2.3101,-2.3101,-2.3101,-2.3101,-2.312,-2.312,-2.314,-2.3418,-2.3828,-2.4238,-2.4668,-2.5145,-2.5527,-2.5674,-2.5732,-2.6211,-2.6406,-2.6484,-2.6894,-2.7305,-2.7728,0.0,0.0,0.0,0.0,0.0,0.0,0.0,-1.6781,0.0,0.0,-1.9322,0.0,0.0,-2.1576,-2.2527,0.0,0.0,-2.1475,-2.0506,-2.0389,0.0,-1.9542,-1.9889,-2.0133,-2.0087,-2.0133,-2.0133,0.0,0.0,0.0,0.0,0.0,0.0,0.0,0.0,-2.1212,0.0,0.0,0.0,0.0,0.0,-2.095,-2.0503,0.0,-2.1898,-2.1898,-2.1898,-2.2403,0.0,-2.3101,-2.3101,-2.3101,-2.3101,-2.3101,-2.3101,-2.3101,-2.3101,-2.3101,0.0,0.0,-2.3101,-2.3101,0.0,0.0,0.0,0.0,0.0,0.0,0.0,0.0,0.0,0.0,0.0,0.0,0.0,0.0,0.0,0.0,0.0,0.0,0.0,0.0,0.0,0.0,0.0,-2.1426,-2.1541,-2.1873,-2.248,-2.2656,-2.2808,-2.3081,-2.3101,-2.3101,-2.3101,-2.3101,-2.3101,-2.3101,-2.3101,-2.3101,-2.3101,-2.3101,-2.3179,-2.3315,-2.3471,-2.3828,-2.4258,-2.4687,-2.5039,-2.5332,-2.5781,-2.5957,-2.6016,-2.6445,-2.6875,-2.7226,-1.3533,0.0,0.0,0.0,0.0,0.0,0.0,0.0,0.0,0.0,-1.8643,0.0,-1.8288,0.0,-2.1739,0.0,-2.0284,-2.0578,-1.9464,-1.9394,0.0,-1.8411,-1.8769,-1.8937,-1.8872,-1.8856,-1.8856,0.0,0.0,-1.8626,0.0,0.0,0.0,0.0,0.0,0.0,-2.2108,0.0,-1.8672,0.0,0.0,-2.0315,0.0,0.0,-2.0987,-2.15,0.0,-2.2448,-2.3101,-2.3101,-2.3101,-2.3101,-2.3101,-2.3101,-2.3101,-2.3101,-2.3101,-2.3101,-2.3101,-2.3101,0.0,-2.3101,-2.3101,0.0,-2.3101,0.0,-2.3101,0.0,0.0,0.0,0.0,0.0,0.0,0.0,0.0,0.0,0.0,-2.0605,0.0,0.0,0.0,0.0,0.0,0.0,-2.0723,-2.0977,-2.1112,-2.1444,0.0,0.0,-2.2637,-2.2867,-2.3023,-2.3101,-2.3101,-2.3101,-2.3101,-2.3101,-2.3101,-2.3101,-2.3101,-2.3101,-2.3101,-2.3101,-2.3257,-2.3535,-2.3828,-2.4414,-2.4805,-2.5165,-2.5566,-2.5693,-2.5732,-2.6055,-2.6426,-2.6816,-1.3626,0.0,0.0,0.0,-1.4322,0.0,0.0,0.0,-1.6011,0.0,-1.7141,-1.7319,-1.9638,-2.0142,-1.9847,-1.867,-1.9567,-1.9488,-1.7728,-1.8152,0.0,0.0,-1.7409,-1.7871,-1.7606,-1.7591,-1.7591,-1.7591,0.0,0.0,0.0,0.0,0.0,0.0,-1.7474,0.0,-2.0586,-1.7211,-1.784,-2.0926,-1.9844,-1.936,-1.9376,-1.9542,-2.0463,-2.1833,-2.2707,-2.3057,-2.3101,-2.3101,-2.3101,-2.3101,-2.3101,-2.3101,-2.3101,-2.3101,-2.3101,-2.3101,-2.3101,-2.3101,-2.3101,-2.3101,-2.3101,0.0,0.0,0.0,-2.3101,0.0,0.0,0.0,0.0,0.0,0.0,0.0,0.0,0.0,0.0,0.0,0.0,0.0,0.0,0.0,0.0,-2.0605,-2.0605,-2.0605,-2.0957,0.0,0.0,0.0,-2.2461,-2.2519,-2.2847,-2.3081,-2.3101,-2.3101,-2.3101,-2.3101,-2.3101,-2.3101,-2.3101,-2.3101,-2.3101,-2.312,-2.3574,-2.3769,-2.3828,-2.4668,-2.5047,-2.5106,-2.5527,-2.5674,-2.5693,-2.5693,-2.5996,-2.6406,-1.3975,-1.4202,-1.4402,0.0,-1.4295,-1.4416,0.0,0.0,0.0,0.0,-1.8403,-1.9031,-1.9499,-2.0554,-2.0696,-1.9304,-1.9055,0.0,0.0,0.0,0.0,-1.6348,-1.6614,-1.6608,-1.6305,-1.6292,-1.6292,-1.6292,0.0,0.0,-1.5818,0.0,0.0,0.0,0.0,0.0,-1.9681,-1.694,-1.6325,-1.7296,-1.7902,-1.7725,-1.7395,0.0,-2.0629,-2.0505,-2.1446,-2.2359,-2.3101,-2.3101,-2.3101,-2.3101,-2.3101,-2.3101,-2.3101,-2.3101,-2.3101,-2.3101,-2.3101,-2.3101,-2.3101,-2.3101,-2.3101,-2.3101,0.0,0.0,0.0,0.0,0.0,0.0,0.0,0.0,0.0,0.0,0.0,0.0,0.0,0.0,0.0,-2.1016,0.0,0.0,0.0,-2.0605,-2.0605,-2.0605,-2.0703,0.0,0.0,0.0,0.0,-2.25,-2.2617,-2.2789,-2.3081,-2.3101,-2.3101,-2.3101,-2.3101,-2.3101,-2.3101,-2.3101,-2.3101,-2.3101,-2.3218,-2.3257,-2.3296,-2.3887,-2.4121,-2.4199,-2.4941,-2.5449,-2.5693,-2.5693,-2.5752,-2.5869,-1.4255,0.0,0.0,-1.4883,0.0,0.0,-1.5484,-1.5551,0.0,-1.7286,-1.8331,0.0,-1.9004,-1.9988,-2.0258,-1.93,-1.8758,0.0,-1.8009,0.0,0.0,-1.6486,-1.646,-1.6259,-1.5798,-1.5784,0.0,-1.5784,0.0,0.0,-1.5631,0.0,0.0,0.0,0.0,-1.6493,0.0,-1.7101,-1.6292,-1.5879,-1.6574,-1.6909,0.0,-1.9028,-1.9704,-1.9807,-2.0337,-2.1632,-2.3101,-2.3101,-2.3101,-2.3101,-2.3101,-2.3101,-2.3101,-2.3101,-2.3101,-2.3101,-2.3101,-2.3101,-2.3101,-2.3101,-2.3101,-2.3101,-2.3101,-2.3101,-2.3101,0.0,-2.2945,-2.2691,0.0,0.0,0.0,0.0,0.0,0.0,0.0,0.0,0.0,0.0,-2.0723,0.0,0.0,-2.0605,-2.0605,-2.0605,-2.0605,0.0,0.0,0.0,0.0,-2.2227,-2.2422,-2.2672,-2.3081,-2.3101,-2.3101,-2.3101,-2.3101,-2.3101,-2.3101,-2.3101,-2.3101,-2.3101,-2.3101,-2.3101,-2.314,-2.3613,-2.3906,-2.416,-2.5019,-2.5508,-2.5693,-2.5693,-2.5693,-2.5693,-1.4536,0.0,0.0,0.0,0.0,0.0,0.0,-1.6166,0.0,-1.7179,0.0,-1.8102,-1.8464,-1.8945,-1.9145,-1.8891,0.0,-1.8303,-1.7955,-1.7702,-1.7261,-1.6673,-1.6647,-1.6393,-1.5798,-1.5784,-1.5758,0.0,0.0,0.0,0.0,0.0,0.0,0.0,0.0,0.0,0.0,-1.7187,-1.6767,-1.5784,-1.5784,-1.648,-1.7451,-1.7638,-1.8365,-1.9268,-1.9451,-2.0854,-2.2643,-2.2643,-2.2731,-2.2862,-2.2862,-2.295,-2.3101,-2.3101,-2.3101,-2.3101,-2.3101,-2.3101,-2.3101,-2.3101,-2.3101,-2.3101,-2.3101,-2.3101,-2.3101,-2.3101,-2.2808,-2.2441,-2.1973,0.0,0.0,0.0,0.0,0.0,0.0,0.0,0.0,0.0,0.0,0.0,0.0,0.0,0.0,0.0,0.0,0.0,0.0,0.0,0.0,-2.1875,-2.2246,-2.2676,-2.3179,-2.312,-2.312,-2.3179,-2.312,-2.3101,-2.3101,-2.3101,-2.3101,-2.3101,-2.3101,-2.3101,-2.312,-2.3555,-2.3984,-2.4492,-2.5226,-2.5577,-2.5693,-2.5693,-2.5693,-2.5693,-1.4968,0.0,0.0,0.0,0.0,-1.6219,-1.6513,-1.6593,-1.6847,-1.7435,-1.7822,-1.8102,-1.8464,-1.8584,-1.8624,-1.8571,-1.829,0.0,0.0,0.0,0.0,-1.6429,-1.6353,-1.6192,-1.5784,-1.5784,-1.5712,0.0,0.0,0.0,0.0,0.0,0.0,0.0,0.0,0.0,-1.5631,-1.5741,0.0,-1.5784,-1.5784,-1.5913,-1.6244,-1.7311,-1.7824,-1.8149,-1.9131,-1.977,-2.0133,-2.0133,-2.0809,-2.1614,-2.1614,-2.2315,-2.3101,-2.3101,-2.3101,-2.3101,-2.3101,-2.3101,-2.3101,-2.3101,-2.3101,-2.3101,-2.3101,-2.3101,-2.3101,-2.3101,-2.3042,-2.275,-2.2031,0.0,0.0,0.0,0.0,0.0,0.0,0.0,0.0,0.0,0.0,-2.0742,0.0,0.0,0.0,0.0,0.0,0.0,0.0,0.0,0.0,0.0,-2.1953,0.0,0.0,0.0,-2.3276,-2.3672,-2.3257,-2.3101,-2.3101,-2.3101,-2.3101,-2.3101,-2.3101,-2.3101,-2.3101,-2.3179,-2.3666,-2.4434,-2.459,-2.505,-2.5693,-2.5693,-2.5693,-2.5693,0.0,0.0,0.0,0.0,0.0,0.0,0.0,-1.7061,-1.7208,-1.7393,-1.7622,-1.7862,-1.8009,-1.8303,-1.8424,-1.8277,-1.8075,-1.7916,-1.7609,-1.7367,-1.7005,-1.6513,-1.6353,-1.6126,-1.5784,-1.5784,-1.5765,-1.5618,0.0,0.0,0.0,0.0,0.0,0.0,0.0,-1.499,0.0,0.0,0.0,-1.5784,-1.5784,-1.5784,-1.5879,-1.648,-1.6716,-1.681,-1.739,-1.7576,-1.7886,-1.9798,-2.0792,-2.1436,-2.2031,-2.2624,-2.3101,-2.3101,-2.3101,-2.3101,-2.3101,-2.3101,-2.3101,-2.3101,-2.3101,-2.3101,-2.3101,-2.3101,-2.3101,-2.3101,-2.275,-2.2227,-2.1367,-2.0899,0.0,0.0,0.0,0.0,0.0,0.0,-2.0683,0.0,0.0,0.0,0.0,0.0,0.0,0.0,0.0,0.0,0.0,0.0,0.0,0.0,0.0,0.0,0.0,0.0,-2.3198,-2.3457,-2.3198,-2.3101,-2.3101,-2.3101,-2.3101,-2.3101,-2.3101,-2.3101,-2.312,-2.3379,-2.3848,-2.4434,-2.4668,-2.5156,-2.5693,-2.5693,-2.5693,-2.5693,0.0,-1.5765,0.0,0.0,-1.6607,0.0,-1.7166,-1.7447,-1.7502,-1.7326,-1.7487,-1.7582,-1.7582,-1.8009,-1.8196,-1.7916,-1.7836,-1.7729,-1.7422,-1.7179,-1.6884,-1.654,-1.6299,-1.6072,-1.5832,-1.5784,-1.5758,0.0,0.0,0.0,0.0,0.0,0.0,0.0,0.0,0.0,0.0,0.0,-1.5765,-1.5784,-1.5784,-1.5784,-1.5784,-1.5784,-1.5784,-1.5784,-1.5784,-1.5784,-1.6292,-1.948,-2.0702,-2.1123,-2.2359,-2.2906,-2.3101,-2.3101,-2.3042,-2.2964,-2.2964,-2.2964,-2.2964,-2.2964,-2.3023,-2.3101,-2.3101,-2.3101,-2.3081,-2.2984,-2.2324,-2.1543,-2.084,-2.0664,0.0,0.0,0.0,0.0,0.0,0.0,0.0,0.0,0.0,0.0,-2.0625,0.0,0.0,0.0,0.0,0.0,-2.0605,0.0,0.0,0.0,0.0,-2.2285,-2.3101,0.0,-2.314,-2.3237,-2.314,-2.3101,-2.3101,-2.3101,-2.3101,-2.3101,-2.3101,-2.3101,-2.314,-2.3613,-2.4043,-2.4453,-2.4902,-2.5352,-2.5693,-2.5693,-2.5693,-2.5693,0.0,0.0,0.0,0.0,0.0,0.0,-1.7192,-1.7447,-1.7569,-1.7542,-1.7569,-1.7582,-1.7582,-1.7635,-1.7649,-1.7622,-1.7434,-1.7152,-1.6807,-1.6513,-1.6219,-1.5878,-1.5838,-1.5811,-1.5784,-1.5784,-1.5698,0.0,0.0,-1.483,0.0,0.0,0.0,0.0,0.0,0.0,0.0,-1.5431,-1.5591,-1.5784,-1.5784,-1.5784,-1.5784,-1.5784,-1.5784,-1.5784,-1.5784,-1.5784,-1.6008,-1.7544,-1.878,-1.9906,-2.1078,-2.2208,-2.3101,-2.3101,-2.2828,-2.2578,-2.2578,-2.2578,-2.2578,-2.2578,-2.2808,-2.3101,-2.3101,-2.3101,-2.2984,-2.2656,-2.1853,-2.1229,-2.1151,-2.084,-2.0605,0.0,0.0,0.0,0.0,0.0,-2.1016,-2.0644,0.0,0.0,0.0,-2.0605,0.0,0.0,-2.0605,0.0,0.0,0.0,0.0,-2.1249,0.0,-2.2347,-2.3208,-2.3144,-2.3296,-2.373,-2.3276,-2.3101,-2.3101,-2.3101,-2.3101,-2.3101,-2.3101,-2.3101,-2.314,-2.3613,-2.4043,-2.4453,-2.4902,-2.5352,-2.5693,-2.5693,-2.5693,-2.5693,0.0,0.0,0.0,0.0,0.0,0.0,0.0,-1.7502,-1.7582,-1.7582,-1.7582,-1.7515,-1.7393,-1.738,-1.73,-1.7074,-1.6954,-1.6834,-1.6714,-1.6433,-1.6219,-1.6099,-1.5925,-1.5784,-1.5784,-1.5784,-1.5765,0.0,0.0,0.0,0.0,0.0,0.0,0.0,0.0,-1.5177,-1.5404,-1.5578,-1.5678,-1.5784,-1.5784,-1.5784,-1.5784,-1.5784,-1.5784,-1.5784,-1.5784,-1.5784,-1.5974,-1.7264,-1.801,-1.8642,-1.9861,-2.0539,-2.1043,-2.1514,-2.1565,-2.1564,-2.2287,-2.2324,-2.2266,-2.2711,-2.2789,-2.2789,-2.3042,-2.2906,-2.2672,-2.2539,-2.1795,-2.1112,-2.0879,-2.0723,-2.0605,-2.0605,0.0,0.0,0.0,0.0,0.0,-2.0625,0.0,-2.0762,0.0,0.0,0.0,0.0,0.0,0.0,0.0,0.0,0.0,-2.1171,0.0,-2.2168,-2.2773,-2.2964,-2.3179,-2.3398,-2.3179,-2.3101,-2.3101,-2.3101,-2.3101,-2.3101,-2.3101,-2.3237,-2.3535,-2.3711,-2.4199,-2.4824,-2.5047,-2.5352,-2.5693,-2.5693,-2.5693,-2.5693,-1.682,0.0,-1.6927,0.0,-1.7326,-1.7393,-1.7555,-1.7582,-1.7582,-1.7582,-1.7582,-1.7554,-1.7353,-1.7246,-1.7112,-1.686,-1.6673,-1.658,-1.658,-1.6299,-1.6139,-1.6139,-1.5939,0.0,-1.5784,-1.5784,-1.5784,-1.5784,-1.5538,0.0,0.0,0.0,0.0,0.0,-1.5311,-1.5444,-1.5538,-1.5738,-1.5784,-1.5784,-1.5784,-1.5784,-1.5771,-1.5691,-1.5698,-1.5698,-1.5698,-1.5698,-1.5839,-1.6714,-1.704,-1.7318,-1.8894,-1.9602,-1.9939,-2.0436,-2.0686,-2.1038,-2.1878,-2.1914,-2.1836,-2.2379,-2.2496,-2.2559,-2.2734,-2.2637,-2.2441,-2.2187,-2.1502,-2.0937,-2.0664,-2.0605,-2.0605,-2.0605,0.0,0.0,0.0,-2.0723,0.0,-2.0625,-2.0684,-2.0742,-2.0625,-2.0293,0.0,0.0,0.0,0.0,0.0,0.0,0.0,0.0,0.0,0.0,-2.25,-2.2886,-2.3101,-2.3101,-2.3101,-2.3101,-2.3101,-2.3101,-2.3101,-2.3101,-2.3101,-2.3379,-2.3809,-2.3926,-2.4394,-2.5125,-2.5215,-2.5449,-2.5693,-2.5693,-2.5693,-2.5693,-1.7139,-1.7192,-1.7286,-1.7528,-1.7582,-1.7582,-1.7582,-1.7582,-1.7582,-1.7582,-1.7582,-1.7582,-1.7582,-1.738,-1.7206,-1.7192,-1.6656,-1.6273,-1.6273,-1.6005,-1.5832,0.0,0.0,-1.5784,-1.5784,-1.5784,-1.5784,-1.5784,0.0,0.0,-1.5391,0.0,-1.5156,-1.5391,-1.5391,-1.5551,-1.5784,-1.5784,-1.5784,-1.5784,-1.5784,-1.5784,-1.5744,-1.5511,-1.5404,-1.5404,-1.5404,-1.5404,-1.5404,-1.5404,-1.545,-1.5851,-1.8345,-1.9851,-2.0634,-2.028,-2.0664,-2.121,-2.121,-2.121,-2.121,-2.121,-2.1853,-2.2402,-2.1992,-2.2227,-2.2266,-2.1385,-2.0898,-2.0605,-2.0605,-2.0605,-2.0605,-2.0605,0.0,0.0,0.0,-2.0937,0.0,-2.0664,-2.0957,-2.1055,-2.0644,-2.0605,0.0,0.0,0.0,0.0,0.0,0.0,0.0,-2.1171,-2.166,0.0,-2.25,-2.2886,-2.3101,-2.3101,-2.3101,-2.3101,-2.3101,-2.3101,-2.3101,-2.3101,-2.3101,-2.3379,-2.3828,-2.4238,-2.4668,-2.5165,-2.5566,-2.5693,-2.5693,-2.5693,-2.5693,-2.5693,-1.7422,-1.7448,-1.7475,-1.7569,-1.7582,-1.7582,-1.7582,-1.7582,-1.7582,-1.7582,-1.7582,-1.7502,-1.7367,-1.7072,-1.6687,0.0,-1.6086,-1.5965,0.0,-1.5885,-1.5784,-1.5784,-1.5784,-1.5784,-1.5784,-1.5784,-1.5784,-1.5784,0.0,0.0,0.0,-1.5605,-1.5605,-1.5698,-1.5698,-1.5738,-1.5784,-1.5784,-1.5784,-1.5784,-1.5784,-1.5712,-1.5524,-1.5431,-1.5271,-1.5142,-1.5142,-1.5142,-1.5142,-1.5142,-1.5142,-1.5237,-1.5773,-1.636,-1.6905,-1.729,-1.7566,-1.7904,-1.8794,-1.8784,-1.8696,-1.9263,-1.9428,-1.9463,-1.9629,-2.0105,-2.057,-2.074,-2.0703,-2.0605,-2.0605,-2.0605,-2.0605,-2.0605,-2.0605,0.0,-2.0605,0.0,-2.0723,-2.0625,-2.0684,-2.0723,-2.0625,-2.0293,0.0,0.0,0.0,0.0,0.0,0.0,0.0,0.0,-2.166,0.0,-2.25,-2.2886,-2.3101,-2.3101,-2.3101,-2.3101,-2.3101,-2.3437,-2.3574,-2.3594,-2.3887,-2.4258,-2.4715,-2.4805,-2.5117,-2.5527,-2.5635,-2.5693,-2.5693,-2.5693,-2.5693,-2.5635,-1.7582,-1.7582,-1.7582,-1.7582,-1.7582,-1.7582,-1.7582,-1.7582,-1.7542,-1.7435,-1.7515,-1.7382,-1.6924,-1.6754,0.0,-1.6032,-1.5885,-1.5784,-1.5784,-1.5784,-1.5784,-1.5784,-1.5784,-1.5784,-1.5784,-1.5784,0.0,-1.5784,-1.5784,-1.5784,-1.5784,-1.5784,-1.5784,-1.5784,-1.5784,-1.5784,-1.5784,-1.5784,-1.5718,-1.5671,-1.5671,-1.5498,-1.5217,-1.511,-1.495,-1.4803,-1.4803,-1.4803,-1.4803,-1.4803,-1.4803,-1.475,-1.4456,-1.4482,-1.4851,-1.5688,-1.6247,-1.6708,-1.7515,-1.7516,-1.7449,-1.7979,-1.8363,-1.878,-1.9441,-1.977,-2.0106,-2.0489,-2.0605,-2.0605,-2.0605,-2.0605,-2.0605,-2.0605,-2.0605,-2.0605,-2.0605,0.0,-2.0605,0.0,0.0,0.0,0.0,-2.0312,-2.0391,0.0,0.0,0.0,0.0,0.0,-2.1016,-2.1465,-2.1894,-2.2324,-2.2711,-2.2964,-2.3101,-2.3101,-2.3101,-2.3179,-2.3354,-2.3672,-2.3867,-2.4043,-2.4297,-2.4668,-2.5106,-2.5106,-2.5332,-2.5693,-2.5693,-2.5693,-2.5693,-2.5693,-2.5577,-2.5449,-1.7582,-1.7582,-1.7582,0.0,-1.7569,0.0,-1.7555,-1.7528,-1.7474,-1.7206,-1.7407,-1.7208,-1.6415,-1.6513,-1.6553,-1.6273,0.0,0.0,0.0,-1.5784,-1.5784,-1.5784,-1.5784,-1.5784,-1.5784,-1.5784,-1.5784,-1.5784,-1.5784,-1.5784,-1.5784,-1.5784,-1.5784,-1.5784,-1.5784,-1.5771,-1.5758,-1.5758,-1.5631,-1.5364,-1.5364,-1.519,-1.4941,-1.4629,-1.4509,-1.4496,-1.4496,-1.4496,-1.4496,-1.4496,-1.4496,-1.4442,-1.4175,-1.4082,-1.4292,-1.5296,-1.6314,-1.709,-1.709,-1.709,-1.709,-1.709,-1.8155,-1.9498,-2.069,-2.0662,-2.0411,-2.0566,-2.0605,-2.0605,-2.0605,-2.0605,-2.0605,-2.0605,-2.0605,-2.0605,-2.0605,-2.0605,-2.0605,0.0,0.0,0.0,-2.0605,-2.0625,-2.0644,0.0,0.0,0.0,0.0,0.0,-2.1504,-2.1875,-2.2305,-2.2672,-2.3081,-2.3101,-2.3101,-2.3101,-2.3101,-2.3379,-2.3789,-2.3828,-2.4062,-2.4473,-2.4492,-2.4746,-2.5165,-2.5165,-2.5352,-2.5635,-2.5674,-2.5674,-2.5635,-2.5674,-2.5449,-2.5106,0.0,0.0,-1.7582,-1.7582,-1.7447,-1.73,-1.73,-1.7061,-1.6887,-1.682,-1.6874,-1.6754,-1.6326,-1.6388,-1.6259,-1.5965,-1.5872,-1.5784,-1.5784,-1.5784,-1.5784,-1.5784,-1.5784,-1.5784,-1.5784,-1.5784,-1.5784,-1.5784,-1.5784,-1.5784,-1.5784,-1.5784,-1.5784,-1.5784,-1.5784,-1.5712,-1.5498,-1.5498,-1.5337,-1.5115,-1.5115,-1.4883,-1.4616,-1.4549,-1.4389,-1.4188,-1.4188,-1.4188,-1.4188,-1.4188,-1.4188,-1.4175,-1.4108,-1.4082,-1.4124,-1.4405,-1.4657,-1.4866,-1.4866,-1.4866,-1.4866,-1.4866,-1.5118,-1.5914,-1.7792,-1.8129,-1.8541,-2.0235,-2.0605,-2.0605,-2.0605,-2.0605,-2.0605,-2.0605,-2.0605,-2.0605,-2.0605,-2.0605,-2.0605,0.0,-2.0859,-2.0937,-2.0644,-2.0879,-2.1074,0.0,0.0,0.0,-2.1562,-2.1973,-2.2109,-2.1894,-2.2305,-2.2672,-2.3081,-2.3101,-2.3101,-2.3101,-2.3101,-2.3379,-2.3809,-2.4121,-2.4512,-2.4922,-2.5273,-2.5488,-2.5586,-2.5586,-2.5449,-2.5254,-2.5605,-2.5527,-2.5273,-2.5605,-2.5449,-2.5067,-1.746,-1.7541,-1.7542,-1.746,-1.73,-1.7206,-1.7206,-1.6901,-1.666,-1.6526,-1.662,-1.654,-1.6112,-1.6192,-1.6152,-1.5811,-1.5784,-1.5784,-1.5784,-1.5784,-1.5784,-1.5784,-1.5784,-1.5784,-1.5784,-1.5784,-1.5718,-1.5631,-1.5631,-1.5631,-1.5631,-1.5718,-1.5704,-1.5631,-1.5631,-1.5471,-1.5204,-1.5204,-1.503,-1.4763,-1.4763,-1.4589,-1.4322,-1.4322,-1.4229,-1.4082,-1.4082,-1.4082,-1.4082,-1.4082,-1.4082,-1.4082,-1.4082,-1.4082,-1.4082,-1.4082,-1.4082,-1.4082,-1.4082,-1.4082,-1.4208,-1.4699,-1.481,-1.5269,-1.6927,-1.7293,-1.7658,-1.882,-1.9511,-1.9726,-1.9195,-1.9923,-2.045,-1.9962,-2.0274,-2.0605,-2.0605,-2.0605,-2.0683,-2.084,-2.1094,-2.1211,-2.1172,-2.1387,-2.1523,-2.1523,-2.1678,0.0,-2.1894,-2.2461,-2.2598,-2.2187,-2.2578,-2.2867,-2.3101,-2.3101,-2.3101,-2.3101,-2.3101,-2.3379,-2.3809,-2.4219,-2.4648,-2.5145,-2.5547,-2.5693,-2.5674,-2.5508,-2.5293,-2.5145,-2.5332,-2.5273,-2.5165,-2.5566,-2.5449,-2.5086,-1.7179,-1.734,-1.7368,-1.7179,-1.7099,-1.7072,-1.7072,-1.6767,-1.6486,-1.6233,-1.642,-1.638,-1.5838,-1.6059,-1.6099,-1.5798,-1.5784,-1.5784,-1.5784,-1.5784,-1.5784,-1.5784,-1.5784,-1.5784,-1.5784,-1.5784,-1.5712,-1.5458,-1.5458,-1.5444,-1.5404,-1.5698,-1.5658,-1.5337,-1.5378,-1.5217,-1.4941,-1.4941,-1.4723,-1.4456,-1.4456,-1.4309,-1.4082,-1.4082,-1.4082,-1.4082,-1.4082,-1.4082,-1.4082,-1.4082,-1.4082,-1.4082,-1.4082,-1.4082,-1.4082,-1.4082,-1.4082,-1.4082,-1.4082,-1.4082,-1.4334,-1.5213,-1.5462,-1.5752,-1.6805,-1.705,-1.709,-1.7253,-1.806,-1.8439,-1.7455,-1.8838,-1.9883,-1.9116,-1.9766,-2.0411,-2.0566,0.0,-2.0742,-2.1132,-2.1249,-2.1484,-2.1855,-2.1934,-2.1973,-2.1973,-2.2305,-2.2383,-2.209,-2.2711,-2.2925,-2.2617,-2.2906,-2.3101,-2.3101,-2.3101,-2.3101,-2.3101,-2.3101,-2.3379,-2.3809,-2.4219,-2.4648,-2.5145,-2.5469,-2.5596,-2.5605,-2.5156,-2.4988,-2.493,-2.4988,-2.4961,-2.5019,-2.5391,-2.5293,-2.5008,-1.678,-1.6807,-1.682,-1.678,-1.6567,-1.6455,-1.6455,-1.6152,-1.5904,-1.5899,-1.5891,-1.5878,-1.5798,-1.5872,-1.5885,-1.5784,-1.5784,-1.5784,-1.5784,-1.5784,-1.5784,-1.5784,-1.5784,-1.5784,-1.5784,-1.5784,-1.5758,-1.5765,-1.5765,-1.5631,-1.5404,-1.5698,-1.5551,-1.5089,-1.5284,-1.5097,-1.4589,-1.4589,-1.4416,-1.4162,-1.4162,-1.4122,-1.4082,-1.4082,-1.4082,-1.4082,-1.4082,-1.4082,-1.4082,-1.4082,-1.4082,-1.4082,-1.4082,-1.4082,-1.4082,-1.4082,-1.4082,-1.4082,-1.4082,-1.4082,-1.4124,-1.4292,-1.4334,-1.4615,-1.5696,-1.5944,-1.6191,-1.709,-1.7455,-1.7496,-1.7334,-1.7577,-1.806,-1.8877,-1.9155,-1.9569,-2.0489,0.0,-2.0742,-2.1132,-2.1562,-2.1816,-2.1875,-2.2207,-2.2422,-2.2422,-2.248,-2.2637,-2.2886,-2.3023,-2.3062,-2.3003,-2.3062,-2.3101,-2.3101,-2.3101,-2.3101,-2.3101,-2.3101,-2.3379,-2.3809,-2.4219,-2.4648,-2.5125,-2.5184,-2.5176,-2.5137,-2.4707,-2.4316,-2.4023,-2.4375,-2.4512,-2.4531,-2.459,-2.457,-2.4473,-1.674,-1.67,-1.666,-1.65,-1.6366,-1.6321,-1.6321,-1.6019,-1.5784,-1.5784,-1.5784,-1.5784,-1.5784,-1.5784,-1.5784,-1.5784,-1.5784,-1.5784,-1.5784,-1.5784,-1.5784,-1.5784,-1.5784,-1.5784,-1.5784,-1.5671,-1.5524,-1.5364,-1.5364,-1.5297,-1.5164,-1.5458,-1.5378,-1.5022,-1.5156,-1.4843,-1.4282,-1.4282,-1.4215,-1.4082,-1.4082,-1.4082,-1.4082,-1.4082,-1.4082,-1.4082,-1.4082,-1.4082,-1.4082,-1.4082,-1.4082,-1.4082,-1.4082,-1.4082,-1.4082,-1.4082,-1.4082,-1.4082,-1.4082,-1.4082,-1.4082,-1.4082,-1.4082,-1.4208,-1.4741,-1.4852,-1.4977,-1.5477,-1.6041,-1.6273,-1.567,-1.6535,-1.7563,-1.8336,-1.878,-1.9445,-2.0721,-2.0918,-2.1094,-2.1523,-2.1953,-2.2305,-2.2539,-2.2691,-2.2808,-2.2808,-2.2808,-2.2886,-2.3081,-2.3101,-2.3101,-2.3101,-2.3101,-2.3101,-2.3101,-2.3101,-2.3101,-2.3101,-2.3101,-2.3198,-2.3457,-2.3887,-2.418,-2.4394,-2.4629,-2.4727,-2.4687,-2.4258,-2.3965,-2.3809,-2.4004,-2.4082,-2.4102,-2.4336,-2.4414,-2.4394,-1.572,-1.5632,-1.5518,-1.5316,-1.5278,-1.5278,-1.5278,-1.504,-1.4902,-1.4902,-1.4902,-1.4902,-1.4902,-1.4902,-1.4902,-1.4902,-1.4902,-1.5057,-1.5343,-1.5343,-1.5486,-1.5784,-1.5784,-1.5784,-1.5784,-1.5605,-1.5391,-1.5209,-1.5142,-1.5075,-1.5008,-1.519,-1.5097,-1.4807,-1.4874,-1.4576,-1.4082,-1.4082,-1.4082,-1.4082,-1.4082,-1.4082,-1.4082,-1.4082,-1.4082,-1.4082,-1.4082,-1.4082,-1.4082,-1.4082,-1.4082,-1.4082,-1.4082,-1.4082,-1.4082,-1.4082,-1.4082,-1.4082,-1.4082,-1.4082,-1.4082,-1.4082,-1.4135,-1.4175,-1.4095,-1.4135,-1.4175,-1.4095,-1.4727,-1.5103,-1.425,-1.5494,-1.6832,-1.7398,0.0,-1.93,-2.065,-2.1147,-2.1543,-2.1973,-2.2324,-2.2676,-2.3062,-2.3101,-2.3101,-2.3101,-2.3101,-2.3101,-2.3101,-2.3101,-2.3101,-2.3101,-2.3101,-2.3101,-2.3101,-2.3101,-2.3101,-2.3101,-2.3101,-2.3101,-2.312,-2.3594,-2.3789,-2.3809,-2.4141,-2.4277,-2.4238,-2.3809,-2.3633,-2.3633,-2.3633,-2.3691,-2.3809,-2.4043,-2.418,-2.4258,-1.2544,-1.2379,-1.2234,-1.2214,-1.2214,-1.2214,-1.2214,-1.2204,-1.2193,-1.2193,-1.2193,-1.2193,-1.2193,-1.2193,-1.2193,-1.2193,-1.2193,-1.2716,-1.3968,-1.4016,-1.4555,-1.5737,-1.5784,-1.5784,-1.5784,-1.5758,-1.5744,-1.5718,-1.5498,-1.5231,-1.5008,-1.5035,-1.474,-1.4162,-1.4429,-1.4376,-1.4082,-1.4082,-1.4082,-1.4082,-1.4082,-1.4082,-1.4082,-1.4082,-1.4082,-1.4082,-1.4082,-1.4082,-1.4082,-1.4082,-1.4082,-1.4082,-1.4082,-1.4082,-1.4082,-1.4082,-1.4082,-1.4082,-1.4082,-1.4082,-1.4082,-1.4082,-1.4295,-1.4416,-1.4148,-1.4295,-1.4416,-1.4135,-1.4166,-1.4208,-1.4124,-1.4437,-1.4948,-1.5744,0.0,0.0,-1.9588,-2.093,-2.1992,-2.2422,-2.25,-2.2676,-2.3062,-2.3101,-2.3101,-2.3101,-2.3101,-2.3101,-2.3101,-2.3101,-2.3101,-2.3101,-2.3101,-2.3101,-2.3101,-2.3101,-2.3101,-2.3101,-2.3101,-2.3101,-2.312,-2.3594,-2.3789,-2.3789,-2.3828,-2.3828,-2.3809,-2.3315,-2.314,-2.314,-2.314,-2.3437,-2.375,-2.3379,-2.3496,-2.3769,-1.2761,-1.3702,-1.4326,-1.3434,-1.3202,-1.3151,-1.3151,-1.2425,-1.1901,-1.1901,-1.1901,-1.2231,-1.3054,-1.3151,-1.3151,-1.3151,-1.3151,-1.3343,-1.3872,-1.3102,-1.3596,-1.5737,-1.5784,-1.5784,-1.5784,-1.5658,-1.5471,-1.5297,-1.5003,-1.4803,-1.4696,-1.4696,-1.4576,-1.4362,-1.4469,-1.4362,-1.4082,-1.4082,-1.4082,-1.4082,-1.4082,-1.4082,-1.4082,-1.4082,-1.4082,-1.4082,-1.4082,-1.4082,-1.4082,-1.4082,-1.4082,-1.4082,-1.4082,-1.4082,-1.4082,-1.4082,-1.4082,-1.4082,-1.4082,-1.4082,-1.4135,-1.4309,-1.4442,-1.4536,-1.4616,-1.4754,-1.4763,-1.47,-1.4673,-1.4673,-1.4673,-1.4723,-1.5202,-1.6418,0.0,-1.7704,-1.8912,-1.9627,-2.0346,-2.1287,-2.1615,-2.2102,-2.2994,-2.3101,-2.3101,-2.3101,-2.3101,-2.3101,-2.3101,-2.3101,-2.3101,-2.3101,-2.3101,-2.3101,-2.3101,-2.3101,-2.3101,-2.3101,-2.3101,-2.3101,-2.3101,-2.3257,-2.3379,-2.3379,-2.3379,-2.3379,-2.3335,-2.3159,-2.3101,-2.3101,-2.3101,-2.3198,-2.3315,-2.3159,-2.3198,-2.3315,-1.1557,-1.2628,-1.3346,-1.236,-1.2139,-1.2027,-1.2027,-1.1258,-1.0681,-1.0681,-1.0681,-1.1014,-1.193,-1.2027,-1.2027,-1.2027,-1.2027,-1.2415,-1.3199,-1.3151,-1.374,-1.514,-1.5502,-1.5698,-1.5698,-1.5404,-1.5164,-1.5008,-1.4669,-1.4522,-1.4522,-1.4429,-1.4389,-1.4389,-1.4389,-1.4269,-1.4082,-1.4082,-1.4082,-1.4082,-1.4082,-1.4082,-1.4082,-1.4082,-1.4082,-1.4082,-1.4082,-1.4082,-1.4082,-1.4082,-1.4082,-1.4082,-1.4082,-1.4082,-1.4082,-1.4082,-1.4082,-1.4108,-1.4202,-1.4229,-1.4269,-1.4469,-1.4656,-1.483,-1.4981,-1.5075,-1.5115,-1.5022,-1.5008,-1.5008,-1.5008,-1.5089,-1.5441,-1.6382,-1.6742,-1.725,-1.8163,-1.8722,-1.934,-2.0228,-2.09,-2.1614,-2.2448,-2.2862,-2.3101,-2.3101,-2.3101,-2.3101,-2.3101,-2.3101,-2.3101,-2.3101,-2.3101,-2.3101,-2.3101,-2.3237,-2.3354,-2.3491,-2.3354,-2.3374,-2.3491,-2.3218,-2.3179,-2.3296,-2.3159,-2.3101,-2.3101,-2.3101,-2.3101,-2.3101,-2.3101,-2.3101,-2.3101,-2.3101,-2.3101,-2.3101,-0.8327,-0.8147,-0.8038,-0.8045,-0.8038,-0.8038,-0.8038,-0.7988,-0.7988,-0.7988,-0.7988,-0.7988,-0.8038,-0.8038,-0.8038,-0.8038,-0.8038,-0.9114,-1.1707,-1.4328,-1.5201,-1.392,-1.4884,-1.5404,-1.5404,-1.5156,-1.5008,-1.5008,-1.4669,-1.4522,-1.4509,-1.4215,-1.4082,-1.4082,-1.4082,-1.4082,-1.4082,-1.4082,-1.4082,-1.4082,-1.4082,-1.4082,-1.4082,-1.4082,-1.4082,-1.4082,-1.4082,-1.4082,-1.4082,-1.4082,-1.4082,-1.4082,-1.4082,-1.4082,-1.4082,-1.4082,-1.4082,-1.4148,-1.4442,-1.4479,-1.4522,-1.4522,-1.4963,-1.5324,-1.5075,-1.519,-1.5324,-1.5075,-1.5022,-1.5022,-1.5022,-1.5204,-1.5311,-1.5062,-1.6504,-1.7565,-1.7251,-1.8496,-1.9497,-1.9497,-2.0567,-2.1302,-2.1302,-2.2403,-2.3101,-2.3101,-2.3101,-2.3101,-2.3101,-2.3101,-2.3101,-2.3101,-2.3101,-2.3101,-2.3101,-2.3574,-2.3984,-2.4394,-2.3984,-2.4004,-2.4375,-2.3491,-2.3335,-2.3769,-2.3276,-2.3101,-2.3101,-2.3101,-2.3101,-2.3101,-2.3101,-2.3101,-2.3101,-2.3101,-2.3101,-2.3101,-0.8605,-0.9865,-1.0739,-0.9736,-0.949,-0.941,-0.941,-0.8627,-0.7988,-0.7988,-0.7988,-0.8386,-0.9312,-0.941,-0.941,-0.941,-0.941,-0.9312,-0.9164,-1.1599,-1.2872,-1.2522,-1.4541,-1.5698,-1.5698,-1.5217,-1.5008,-1.5008,-1.4469,-1.4215,-1.4215,-1.4122,-1.4082,-1.4082,-1.4082,-1.4082,-1.4082,-1.4082,-1.4082,-1.4082,-1.4082,-1.4082,-1.4082,-1.4082,-1.4082,-1.4082,-1.4082,-1.4082,-1.4082,-1.4082,-1.4082,-1.4082,-1.4082,-1.4082,-1.4082,-1.4082,-1.4229,-1.4402,-1.4496,-1.4816,-1.5137,-1.5137,-1.5271,-1.5431,-1.5551,-1.5631,-1.5671,-1.5591,-1.5565,-1.5565,-1.5565,-1.5645,-1.5671,-1.5578,-1.5994,-1.6358,-1.6201,-1.6598,-1.725,-1.8133,-1.9314,-2.0342,-2.1194,-2.2403,-2.3101,-2.3101,-2.3101,-2.3101,-2.3101,-2.3101,-2.3101,-2.3101,-2.3101,-2.3237,-2.3594,-2.3418,-2.3354,-2.3471,-2.3354,-2.3354,-2.3471,-2.3218,-2.3159,-2.3276,-2.3159,-2.3101,-2.3101,-2.3101,-2.3101,-2.3101,-2.3101,-2.3101,-2.3101,-2.3101,-2.3101,-2.3101,-0.8443,-0.9591,-1.0362,-0.9461,-0.9283,-0.9213,-0.9213,-0.8528,-0.7988,-0.7988,-0.7988,-0.8336,-0.9114,-0.9213,-0.9213,-0.9213,-0.9706,-0.9657,-0.8825,-1.073,-1.1901,-1.1901,-1.3403,-1.4659,-1.5498,-1.491,-1.466,-1.466,-1.4269,-1.4082,-1.4082,-1.4082,-1.4082,-1.4082,-1.4082,-1.4082,-1.4082,-1.4082,-1.4082,-1.4082,-1.4082,-1.4082,-1.4082,-1.4082,-1.4082,-1.4082,-1.4082,-1.4082,-1.4082,-1.4082,-1.4082,-1.4082,-1.4082,-1.4162,-1.4255,-1.4255,-1.4469,-1.4723,-1.483,-1.5124,-1.5431,-1.5538,-1.5565,-1.5618,-1.5744,-1.5784,-1.5784,-1.5784,-1.5784,-1.5784,-1.5784,-1.5784,-1.5784,-1.5784,-1.5784,-1.5784,-1.5784,-1.5784,-1.6103,-1.6857,-1.8041,-1.9085,-1.9815,-2.0989,-2.1676,-2.1676,-2.1676,-2.1676,-2.1676,-2.2138,-2.2403,-2.2403,-2.2862,-2.3218,-2.3535,-2.3218,-2.3257,-2.3608,-2.3432,-2.3432,-2.3588,-2.3257,-2.3198,-2.3379,-2.3179,-2.3101,-2.3101,-2.3101,-2.3101,-2.3101,-2.3101,-2.3101,-2.3101,-2.3101,-2.3101,-2.3101,-0.7988,-0.7988,-0.7988,-0.7988,-0.7988,-0.7988,-0.7988,-0.7988,-0.7988,-0.7988,-0.7988,-0.7988,-0.7988,-0.7988,-0.7988,-0.7988,-0.9114,-0.9805,-0.9805,-1.0925,-1.1609,-1.1707,-1.1687,-1.2621,-1.4649,-1.4213,-1.4064,-1.4122,-1.4095,-1.4082,-1.4082,-1.4082,-1.4082,-1.4082,-1.4082,-1.4082,-1.4082,-1.4082,-1.4082,-1.4082,-1.4082,-1.4082,-1.4082,-1.4082,-1.4082,-1.4082,-1.4082,-1.4082,-1.4082,-1.4082,-1.4082,-1.4082,-1.4082,-1.4282,-1.4522,-1.4522,-1.475,-1.5102,-1.5324,-1.5418,-1.5498,-1.5718,-1.5784,-1.5784,-1.5784,-1.5784,-1.5784,-1.5784,-1.5784,-1.5784,-1.5784,-1.5784,-1.5784,-1.5784,-1.5784,-1.5784,-1.5784,-1.5784,-1.5784,-1.5784,-1.6904,-1.7684,-1.7684,-1.8764,-1.9542,-1.9679,-1.9679,-1.9724,-1.9815,-2.0854,-2.148,-2.148,-2.2536,-2.3101,-2.3101,-2.3101,-2.3491,-2.4297,-2.3906,-2.3926,-2.4277,-2.3452,-2.3315,-2.3711,-2.332,-2.3101,-2.3101,-2.3101,-2.3101,-2.3101,-2.3101,-2.3101,-2.3101,-2.3101,-2.3101,-2.3101,-0.7988,-0.7988,-0.7988,-0.7988,-0.7988,-0.7988,-0.7988,-0.7988,-0.7988,-0.7988,-0.7988,-0.7988,-0.7988,-0.7988,-0.7988,-0.7988,-0.8287,-0.8428,-0.8428,-0.8676,-0.9312,-1.0386,-1.0149,-1.066,-1.2073,-1.2868,-1.3616,-1.4429,-1.4202,-1.4082,-1.4082,-1.4082,-1.4082,-1.4082,-1.4082,-1.4082,-1.4082,-1.4082,-1.4082,-1.4082,-1.4082,-1.4082,-1.4082,-1.4082,-1.4082,-1.4082,-1.4082,-1.4082,-1.4082,-1.4082,-1.4082,-1.4082,-1.4082,-1.4282,-1.4522,-1.4522,-1.4897,-1.5324,-1.5378,-1.5565,-1.5752,-1.5771,-1.5784,-1.5784,-1.5784,-1.5784,-1.5784,-1.5784,-1.5784,-1.5784,-1.5784,-1.5784,-1.5784,-1.5784,-1.5784,-1.5784,-1.5784,-1.5784,-1.5784,-1.5784,-1.6904,-1.7684,-1.7684,-1.8764,-1.9889,-2.0836,-2.0899,-2.1302,-2.2271,-2.258,-2.2731,-2.2731,-2.295,-2.3101,-2.3101,-2.3101,-2.3179,-2.3374,-2.3276,-2.3276,-2.3374,-2.3179,-2.314,-2.3237,-2.314,-2.3101,-2.3101,-2.3101,-2.3101,-2.3101,-2.3101,-2.3101,-2.3101,-2.3101,-2.3101,-2.3101,-0.7988,-0.7988,-0.7988,-0.7988,-0.7988,-0.7988,-0.7988,-0.7988,-0.7988,-0.7988,-0.7988,-0.7988,-0.7988,-0.7988,-0.7988,-0.7988,-0.7988,-0.7988,-0.7988,-0.7988,-0.8336,-0.9023,-0.889,-0.9284,-1.0416,-1.0964,-1.1968,-1.3466,-1.3315,-1.3561,-1.4082,-1.4082,-1.4082,-1.4082,-1.4082,-1.4082,-1.4082,-1.4082,-1.4082,-1.4082,-1.4082,-1.4082,-1.4082,-1.4082,-1.4082,-1.4082,-1.4082,-1.4175,-1.4295,-1.4295,-1.4389,-1.4482,-1.4335,-1.4589,-1.491,-1.4776,-1.515,-1.5605,-1.5605,-1.5712,-1.5784,-1.5784,-1.5784,-1.5784,-1.5784,-1.5784,-1.5784,-1.5784,-1.5784,-1.5784,-1.5784,-1.5784,-1.5784,-1.5784,-1.5784,-1.5784,-1.5784,-1.5784,-1.5784,-1.5784,-1.6386,-1.681,-1.681,-1.7343,-1.7979,-1.861,-1.8702,-1.8932,-1.9571,-2.0178,-2.0512,-2.0512,-2.1096,-2.1676,-2.2252,-2.2252,-2.2536,-2.3101,-2.3101,-2.3101,-2.3101,-2.3101,-2.3101,-2.3101,-2.3101,-2.3101,-2.3101,-2.3101,-2.3101,-2.3101,-2.3101,-2.3101,-2.3101,-2.3101,-2.3101,-2.3101,-0.7988,-0.7988,-0.7988,-0.7988,-0.7988,-0.7988,-0.7988,-0.7988,-0.7988,-0.7988,-0.7988,-0.7988,-0.7988,-0.7988,-0.7988,-0.7988,-0.7988,-0.7982,-0.7955,-0.7975,-0.7968,-0.7921,-0.7934,-0.8356,-0.9116,-0.9058,-1.0003,-1.2049,-1.2003,-1.2632,-1.3773,-1.3773,-1.3913,-1.4082,-1.4082,-1.4082,-1.4082,-1.4082,-1.4082,-1.4082,-1.4082,-1.4082,-1.4082,-1.4082,-1.4082,-1.4082,-1.4082,-1.4242,-1.4456,-1.4496,-1.4656,-1.4821,-1.4589,-1.4883,-1.5284,-1.5142,-1.5418,-1.5784,-1.5784,-1.5784,-1.5784,-1.5784,-1.5784,-1.5784,-1.5784,-1.5784,-1.5784,-1.5784,-1.5784,-1.5784,-1.5784,-1.5784,-1.5784,-1.5784,-1.5784,-1.5784,-1.5784,-1.5784,-1.5784,-1.5784,-1.5784,-1.5784,-1.5784,-1.5784,-1.5879,-1.6103,-1.6103,-1.6197,-1.6419,-1.7451,-1.801,-1.801,-1.8993,-1.998,-2.0971,-2.1194,-2.181,-2.2775,-2.2994,-2.3101,-2.3101,-2.3101,-2.3101,-2.3101,-2.3101,-2.3101,-2.3101,-2.3101,-2.3101,-2.3101,-2.3101,-2.3101,-2.3101,-2.3101,-2.3101,-2.3101,-0.7988,-0.7988,-0.7988,-0.7988,-0.7988,-0.7988,-0.7988,-0.7988,-0.7988,-0.7988,-0.7988,-0.7988,-0.7988,-0.7988,-0.7988,-0.7988,-0.7988,-0.7934,-0.7848,-0.7914,-0.7874,-0.7672,-0.7773,-0.776,-0.7664,-0.7682,-0.8775,-1.0987,-1.0881,-1.1423,-1.2547,-1.2547,-1.3112,-1.4082,-1.4082,-1.4082,-1.4082,-1.4082,-1.4082,-1.4082,-1.4082,-1.4082,-1.4082,-1.4082,-1.4082,-1.4082,-1.4082,-1.4108,-1.4188,-1.4442,-1.4376,-1.4242,-1.4456,-1.475,-1.5115,-1.5284,-1.5565,-1.5784,-1.5784,-1.5784,-1.5784,-1.5784,-1.5784,-1.5784,-1.5784,-1.5784,-1.5784,-1.5784,-1.5784,-1.5784,-1.5784,-1.5784,-1.5784,-1.5784,-1.5784,-1.5784,-1.5784,-1.5784,-1.5784,-1.5784,-1.5784,-1.5784,-1.5784,-1.5784,-1.6244,-1.7358,-1.7451,-1.7902,-1.8948,-1.9177,-1.9268,-1.9268,-1.9405,-1.9588,-1.9724,-2.0792,-2.1391,-2.1569,-2.258,-2.3101,-2.3101,-2.3101,-2.3101,-2.3101,-2.3101,-2.3101,-2.3101,-2.3101,-2.3101,-2.3101,-2.3101,-2.3101,-2.3101,-2.3101,-2.3101,-2.3101,-0.7988,-0.7988,-0.7988,-0.7988,-0.7988,-0.7988,-0.7988,-0.7988,-0.7988,-0.7988,-0.7988,-0.7988,-0.7988,-0.7988,-0.7955,-0.7874,-0.7941,-0.7928,-0.7821,-0.7907,-0.7934,-0.7848,-0.7853,-0.7834,-0.7624,-0.7543,-0.7954,-0.8894,-0.9411,-1.0226,-1.1338,-1.1338,-1.1992,-1.3069,-1.3069,-1.3464,-1.4082,-1.4082,-1.4082,-1.4082,-1.4082,-1.4082,-1.4108,-1.4269,-1.4322,-1.4322,-1.4322,-1.4322,-1.4349,-1.4482,-1.4656,-1.4816,-1.4776,-1.5084,-1.5444,-1.5404,-1.5605,-1.5784,-1.5784,-1.5784,-1.5784,-1.5784,-1.5784,-1.5784,-1.5784,-1.5784,-1.5784,-1.5784,-1.5784,-1.5784,-1.5784,-1.5784,-1.5784,-1.5784,-1.5784,-1.5784,-1.5784,-1.5784,-1.5784,-1.5784,-1.5784,-1.5784,-1.5784,-1.5784,-1.6008,-1.6622,-1.6622,-1.6889,-1.739,-1.7436,-1.7436,-1.7436,-1.7436,-1.7762,-1.8503,-1.8993,-1.9633,-2.0296,-2.0809,-2.181,-2.3101,-2.3101,-2.3101,-2.3101,-2.3101,-2.3101,-2.3101,-2.3101,-2.3101,-2.3101,-2.3101,-2.3101,-2.3101,-2.3101,-2.3101,-2.3101]}]]